<?xml version="1.0" encoding="utf-8"?>
<gpx xmlns:xsi="http://www.w3.org/2001/XMLSchema-instance" xmlns:xsd="http://www.w3.org/2001/XMLSchema" version="1.1" creator="Shapelink.com" xmlns="http://www.topografix.com/GPX/1/1" xmlns:gpxtpx="http://www.garmin.com/xmlschemas/TrackPointExtension/v1">
  <metadata>
    <name>Cycling 12.07 km, 2014-05-17</name>
    <desc></desc>
    <author><name>Carl Grundberg</name></author> 
    <time>2014-05-17T11:59:04Z</time>
  </metadata>
  <trk>
    <name>Cycling 12.07 km, 2014-05-17</name>
    <trkseg>
      <trkpt lat="56.344893" lon="13.656344">
        <ele>108.6</ele>
        <time>2014-05-17T11:59:04Z</time>
      </trkpt>
      <trkpt lat="56.344913" lon="13.656384">
        <ele>108.7</ele>
        <time>2014-05-17T11:59:05Z</time>
      </trkpt>
      <trkpt lat="56.344934" lon="13.656424">
        <ele>108.8</ele>
        <time>2014-05-17T11:59:06Z</time>
      </trkpt>
      <trkpt lat="56.344957" lon="13.656459">
        <ele>108.9</ele>
        <time>2014-05-17T11:59:07Z</time>
      </trkpt>
      <trkpt lat="56.344983" lon="13.65649">
        <ele>109</ele>
        <time>2014-05-17T11:59:08Z</time>
      </trkpt>
      <trkpt lat="56.345015" lon="13.656525">
        <ele>109.1</ele>
        <time>2014-05-17T11:59:09Z</time>
      </trkpt>
      <trkpt lat="56.345048" lon="13.65656">
        <ele>109.3</ele>
        <time>2014-05-17T11:59:10Z</time>
      </trkpt>
      <trkpt lat="56.345082" lon="13.656596">
        <ele>109.4</ele>
        <time>2014-05-17T11:59:11Z</time>
      </trkpt>
      <trkpt lat="56.345116" lon="13.656631">
        <ele>109.5</ele>
        <time>2014-05-17T11:59:12Z</time>
      </trkpt>
      <trkpt lat="56.345152" lon="13.656666">
        <ele>109.7</ele>
        <time>2014-05-17T11:59:13Z</time>
      </trkpt>
      <trkpt lat="56.345188" lon="13.6567">
        <ele>109.8</ele>
        <time>2014-05-17T11:59:14Z</time>
      </trkpt>
      <trkpt lat="56.345227" lon="13.656731">
        <ele>109.9</ele>
        <time>2014-05-17T11:59:15Z</time>
      </trkpt>
      <trkpt lat="56.345266" lon="13.656761">
        <ele>110.1</ele>
        <time>2014-05-17T11:59:16Z</time>
      </trkpt>
      <trkpt lat="56.345305" lon="13.656792">
        <ele>110.3</ele>
        <time>2014-05-17T11:59:17Z</time>
      </trkpt>
      <trkpt lat="56.345343" lon="13.656825">
        <ele>110.4</ele>
        <time>2014-05-17T11:59:18Z</time>
      </trkpt>
      <trkpt lat="56.34538" lon="13.656858">
        <ele>110.6</ele>
        <time>2014-05-17T11:59:19Z</time>
      </trkpt>
      <trkpt lat="56.345416" lon="13.656886">
        <ele>110.8</ele>
        <time>2014-05-17T11:59:20Z</time>
      </trkpt>
      <trkpt lat="56.345453" lon="13.656911">
        <ele>110.9</ele>
        <time>2014-05-17T11:59:21Z</time>
      </trkpt>
      <trkpt lat="56.345487" lon="13.656937">
        <ele>111</ele>
        <time>2014-05-17T11:59:22Z</time>
      </trkpt>
      <trkpt lat="56.345519" lon="13.656968">
        <ele>111.2</ele>
        <time>2014-05-17T11:59:23Z</time>
      </trkpt>
      <trkpt lat="56.345552" lon="13.657001">
        <ele>111.3</ele>
        <time>2014-05-17T11:59:24Z</time>
      </trkpt>
      <trkpt lat="56.345585" lon="13.657037">
        <ele>111.5</ele>
        <time>2014-05-17T11:59:25Z</time>
      </trkpt>
      <trkpt lat="56.345618" lon="13.657072">
        <ele>111.7</ele>
        <time>2014-05-17T11:59:26Z</time>
      </trkpt>
      <trkpt lat="56.345652" lon="13.657106">
        <ele>111.7</ele>
        <time>2014-05-17T11:59:27Z</time>
      </trkpt>
      <trkpt lat="56.345685" lon="13.657142">
        <ele>111.6</ele>
        <time>2014-05-17T11:59:28Z</time>
      </trkpt>
      <trkpt lat="56.345718" lon="13.657174">
        <ele>111.6</ele>
        <time>2014-05-17T11:59:29Z</time>
      </trkpt>
      <trkpt lat="56.345752" lon="13.657205">
        <ele>111.5</ele>
        <time>2014-05-17T11:59:30Z</time>
      </trkpt>
      <trkpt lat="56.345786" lon="13.657235">
        <ele>111.5</ele>
        <time>2014-05-17T11:59:31Z</time>
      </trkpt>
      <trkpt lat="56.345818" lon="13.657262">
        <ele>111.4</ele>
        <time>2014-05-17T11:59:32Z</time>
      </trkpt>
      <trkpt lat="56.345851" lon="13.65729">
        <ele>111.4</ele>
        <time>2014-05-17T11:59:33Z</time>
      </trkpt>
      <trkpt lat="56.345885" lon="13.657313">
        <ele>111.3</ele>
        <time>2014-05-17T11:59:34Z</time>
      </trkpt>
      <trkpt lat="56.345919" lon="13.657333">
        <ele>111.3</ele>
        <time>2014-05-17T11:59:35Z</time>
      </trkpt>
      <trkpt lat="56.34595" lon="13.657349">
        <ele>111.2</ele>
        <time>2014-05-17T11:59:36Z</time>
      </trkpt>
      <trkpt lat="56.345982" lon="13.657366">
        <ele>111.2</ele>
        <time>2014-05-17T11:59:37Z</time>
      </trkpt>
      <trkpt lat="56.346014" lon="13.657386">
        <ele>111.2</ele>
        <time>2014-05-17T11:59:38Z</time>
      </trkpt>
      <trkpt lat="56.346046" lon="13.657407">
        <ele>111.1</ele>
        <time>2014-05-17T11:59:39Z</time>
      </trkpt>
      <trkpt lat="56.346076" lon="13.657431">
        <ele>111.1</ele>
        <time>2014-05-17T11:59:40Z</time>
      </trkpt>
      <trkpt lat="56.346109" lon="13.657455">
        <ele>111.1</ele>
        <time>2014-05-17T11:59:41Z</time>
      </trkpt>
      <trkpt lat="56.346141" lon="13.657483">
        <ele>111.1</ele>
        <time>2014-05-17T11:59:42Z</time>
      </trkpt>
      <trkpt lat="56.346174" lon="13.657507">
        <ele>111</ele>
        <time>2014-05-17T11:59:43Z</time>
      </trkpt>
      <trkpt lat="56.346204" lon="13.657542">
        <ele>111</ele>
        <time>2014-05-17T11:59:44Z</time>
      </trkpt>
      <trkpt lat="56.346235" lon="13.657573">
        <ele>111</ele>
        <time>2014-05-17T11:59:45Z</time>
      </trkpt>
      <trkpt lat="56.346267" lon="13.657605">
        <ele>110.9</ele>
        <time>2014-05-17T11:59:46Z</time>
      </trkpt>
      <trkpt lat="56.346297" lon="13.65764">
        <ele>110.7</ele>
        <time>2014-05-17T11:59:47Z</time>
      </trkpt>
      <trkpt lat="56.346324" lon="13.657683">
        <ele>110.6</ele>
        <time>2014-05-17T11:59:48Z</time>
      </trkpt>
      <trkpt lat="56.346349" lon="13.65773">
        <ele>110.5</ele>
        <time>2014-05-17T11:59:49Z</time>
      </trkpt>
      <trkpt lat="56.346372" lon="13.657782">
        <ele>110.4</ele>
        <time>2014-05-17T11:59:50Z</time>
      </trkpt>
      <trkpt lat="56.346393" lon="13.657837">
        <ele>110.4</ele>
        <time>2014-05-17T11:59:51Z</time>
      </trkpt>
      <trkpt lat="56.346412" lon="13.657894">
        <ele>110.4</ele>
        <time>2014-05-17T11:59:52Z</time>
      </trkpt>
      <trkpt lat="56.346428" lon="13.657956">
        <ele>110.5</ele>
        <time>2014-05-17T11:59:53Z</time>
      </trkpt>
      <trkpt lat="56.346442" lon="13.658021">
        <ele>110.6</ele>
        <time>2014-05-17T11:59:54Z</time>
      </trkpt>
      <trkpt lat="56.346454" lon="13.658087">
        <ele>110.7</ele>
        <time>2014-05-17T11:59:55Z</time>
      </trkpt>
      <trkpt lat="56.346465" lon="13.658156">
        <ele>110.9</ele>
        <time>2014-05-17T11:59:56Z</time>
      </trkpt>
      <trkpt lat="56.346475" lon="13.658223">
        <ele>111.1</ele>
        <time>2014-05-17T11:59:57Z</time>
      </trkpt>
      <trkpt lat="56.346485" lon="13.65829">
        <ele>111.2</ele>
        <time>2014-05-17T11:59:58Z</time>
      </trkpt>
      <trkpt lat="56.346496" lon="13.65836">
        <ele>111.4</ele>
        <time>2014-05-17T11:59:59Z</time>
      </trkpt>
      <trkpt lat="56.346509" lon="13.658429">
        <ele>111.6</ele>
        <time>2014-05-17T12:00:00Z</time>
      </trkpt>
      <trkpt lat="56.346524" lon="13.658497">
        <ele>111.9</ele>
        <time>2014-05-17T12:00:01Z</time>
      </trkpt>
      <trkpt lat="56.346538" lon="13.658565">
        <ele>112.1</ele>
        <time>2014-05-17T12:00:02Z</time>
      </trkpt>
      <trkpt lat="56.346549" lon="13.658634">
        <ele>112.3</ele>
        <time>2014-05-17T12:00:03Z</time>
      </trkpt>
      <trkpt lat="56.346557" lon="13.658704">
        <ele>112.6</ele>
        <time>2014-05-17T12:00:04Z</time>
      </trkpt>
      <trkpt lat="56.346565" lon="13.658774">
        <ele>112.7</ele>
        <time>2014-05-17T12:00:05Z</time>
      </trkpt>
      <trkpt lat="56.346575" lon="13.658841">
        <ele>112.7</ele>
        <time>2014-05-17T12:00:06Z</time>
      </trkpt>
      <trkpt lat="56.346587" lon="13.658906">
        <ele>112.7</ele>
        <time>2014-05-17T12:00:07Z</time>
      </trkpt>
      <trkpt lat="56.346599" lon="13.658971">
        <ele>112.7</ele>
        <time>2014-05-17T12:00:08Z</time>
      </trkpt>
      <trkpt lat="56.346608" lon="13.659036">
        <ele>112.7</ele>
        <time>2014-05-17T12:00:09Z</time>
      </trkpt>
      <trkpt lat="56.346615" lon="13.6591">
        <ele>112.7</ele>
        <time>2014-05-17T12:00:10Z</time>
      </trkpt>
      <trkpt lat="56.346617" lon="13.659165">
        <ele>112.7</ele>
        <time>2014-05-17T12:00:11Z</time>
      </trkpt>
      <trkpt lat="56.346616" lon="13.659231">
        <ele>112.6</ele>
        <time>2014-05-17T12:00:12Z</time>
      </trkpt>
      <trkpt lat="56.346612" lon="13.659299">
        <ele>112.6</ele>
        <time>2014-05-17T12:00:13Z</time>
      </trkpt>
      <trkpt lat="56.346606" lon="13.659368">
        <ele>112.5</ele>
        <time>2014-05-17T12:00:14Z</time>
      </trkpt>
      <trkpt lat="56.346598" lon="13.659439">
        <ele>112.5</ele>
        <time>2014-05-17T12:00:15Z</time>
      </trkpt>
      <trkpt lat="56.346588" lon="13.659528">
        <ele>112.4</ele>
        <time>2014-05-17T12:00:16Z</time>
      </trkpt>
      <trkpt lat="56.346574" lon="13.659633">
        <ele>112.3</ele>
        <time>2014-05-17T12:00:17Z</time>
      </trkpt>
      <trkpt lat="56.346568" lon="13.659736">
        <ele>112.2</ele>
        <time>2014-05-17T12:00:18Z</time>
      </trkpt>
      <trkpt lat="56.346561" lon="13.659838">
        <ele>112.1</ele>
        <time>2014-05-17T12:00:19Z</time>
      </trkpt>
      <trkpt lat="56.346551" lon="13.659948">
        <ele>112</ele>
        <time>2014-05-17T12:00:20Z</time>
      </trkpt>
      <trkpt lat="56.346537" lon="13.660058">
        <ele>112</ele>
        <time>2014-05-17T12:00:21Z</time>
      </trkpt>
      <trkpt lat="56.346536" lon="13.660176">
        <ele>111.9</ele>
        <time>2014-05-17T12:00:22Z</time>
      </trkpt>
      <trkpt lat="56.346529" lon="13.660273">
        <ele>111.8</ele>
        <time>2014-05-17T12:00:23Z</time>
      </trkpt>
      <trkpt lat="56.346534" lon="13.66036">
        <ele>111.7</ele>
        <time>2014-05-17T12:00:24Z</time>
      </trkpt>
      <trkpt lat="56.346565" lon="13.660434">
        <ele>111.6</ele>
        <time>2014-05-17T12:00:25Z</time>
      </trkpt>
      <trkpt lat="56.346605" lon="13.660482">
        <ele>111.5</ele>
        <time>2014-05-17T12:00:26Z</time>
      </trkpt>
      <trkpt lat="56.346653" lon="13.660525">
        <ele>111.4</ele>
        <time>2014-05-17T12:00:27Z</time>
      </trkpt>
      <trkpt lat="56.346709" lon="13.660521">
        <ele>111.3</ele>
        <time>2014-05-17T12:00:28Z</time>
      </trkpt>
      <trkpt lat="56.346767" lon="13.660531">
        <ele>111.2</ele>
        <time>2014-05-17T12:00:29Z</time>
      </trkpt>
      <trkpt lat="56.346825" lon="13.660555">
        <ele>111.1</ele>
        <time>2014-05-17T12:00:30Z</time>
      </trkpt>
      <trkpt lat="56.346889" lon="13.660575">
        <ele>111</ele>
        <time>2014-05-17T12:00:31Z</time>
      </trkpt>
      <trkpt lat="56.346955" lon="13.660595">
        <ele>110.9</ele>
        <time>2014-05-17T12:00:32Z</time>
      </trkpt>
      <trkpt lat="56.347016" lon="13.660609">
        <ele>110.8</ele>
        <time>2014-05-17T12:00:33Z</time>
      </trkpt>
      <trkpt lat="56.347088" lon="13.660628">
        <ele>110.7</ele>
        <time>2014-05-17T12:00:34Z</time>
      </trkpt>
      <trkpt lat="56.347162" lon="13.66066">
        <ele>110.5</ele>
        <time>2014-05-17T12:00:35Z</time>
      </trkpt>
      <trkpt lat="56.347235" lon="13.660683">
        <ele>110.3</ele>
        <time>2014-05-17T12:00:36Z</time>
      </trkpt>
      <trkpt lat="56.347314" lon="13.660708">
        <ele>110.1</ele>
        <time>2014-05-17T12:00:37Z</time>
      </trkpt>
      <trkpt lat="56.347388" lon="13.660727">
        <ele>109.9</ele>
        <time>2014-05-17T12:00:38Z</time>
      </trkpt>
      <trkpt lat="56.347464" lon="13.660763">
        <ele>109.7</ele>
        <time>2014-05-17T12:00:39Z</time>
      </trkpt>
      <trkpt lat="56.347533" lon="13.66078">
        <ele>109.5</ele>
        <time>2014-05-17T12:00:40Z</time>
      </trkpt>
      <trkpt lat="56.347605" lon="13.660798">
        <ele>109.3</ele>
        <time>2014-05-17T12:00:41Z</time>
      </trkpt>
      <trkpt lat="56.347675" lon="13.660805">
        <ele>109.1</ele>
        <time>2014-05-17T12:00:42Z</time>
      </trkpt>
      <trkpt lat="56.347743" lon="13.660813">
        <ele>108.9</ele>
        <time>2014-05-17T12:00:43Z</time>
      </trkpt>
      <trkpt lat="56.347808" lon="13.660824">
        <ele>108.8</ele>
        <time>2014-05-17T12:00:44Z</time>
      </trkpt>
      <trkpt lat="56.347866" lon="13.660835">
        <ele>108.6</ele>
        <time>2014-05-17T12:00:45Z</time>
      </trkpt>
      <trkpt lat="56.347926" lon="13.660857">
        <ele>108.5</ele>
        <time>2014-05-17T12:00:46Z</time>
      </trkpt>
      <trkpt lat="56.347979" lon="13.660859">
        <ele>108.7</ele>
        <time>2014-05-17T12:00:47Z</time>
      </trkpt>
      <trkpt lat="56.348038" lon="13.660875">
        <ele>108.9</ele>
        <time>2014-05-17T12:00:48Z</time>
      </trkpt>
      <trkpt lat="56.348106" lon="13.660888">
        <ele>109.1</ele>
        <time>2014-05-17T12:00:49Z</time>
      </trkpt>
      <trkpt lat="56.348143" lon="13.660899">
        <ele>109.2</ele>
        <time>2014-05-17T12:00:50Z</time>
      </trkpt>
      <trkpt lat="56.348181" lon="13.660903">
        <ele>109.3</ele>
        <time>2014-05-17T12:00:51Z</time>
      </trkpt>
      <trkpt lat="56.348223" lon="13.660892">
        <ele>109.5</ele>
        <time>2014-05-17T12:00:52Z</time>
      </trkpt>
      <trkpt lat="56.348267" lon="13.660884">
        <ele>109.6</ele>
        <time>2014-05-17T12:00:53Z</time>
      </trkpt>
      <trkpt lat="56.348305" lon="13.660888">
        <ele>109.8</ele>
        <time>2014-05-17T12:00:54Z</time>
      </trkpt>
      <trkpt lat="56.348337" lon="13.660881">
        <ele>109.9</ele>
        <time>2014-05-17T12:00:55Z</time>
      </trkpt>
      <trkpt lat="56.348373" lon="13.660882">
        <ele>110</ele>
        <time>2014-05-17T12:00:56Z</time>
      </trkpt>
      <trkpt lat="56.348407" lon="13.660886">
        <ele>110.1</ele>
        <time>2014-05-17T12:00:57Z</time>
      </trkpt>
      <trkpt lat="56.348441" lon="13.66093">
        <ele>110.1</ele>
        <time>2014-05-17T12:00:58Z</time>
      </trkpt>
      <trkpt lat="56.348495" lon="13.660923">
        <ele>110.3</ele>
        <time>2014-05-17T12:01:00Z</time>
      </trkpt>
      <trkpt lat="56.348526" lon="13.660924">
        <ele>110.4</ele>
        <time>2014-05-17T12:01:01Z</time>
      </trkpt>
      <trkpt lat="56.348561" lon="13.660936">
        <ele>110.5</ele>
        <time>2014-05-17T12:01:02Z</time>
      </trkpt>
      <trkpt lat="56.348594" lon="13.660939">
        <ele>110.6</ele>
        <time>2014-05-17T12:01:03Z</time>
      </trkpt>
      <trkpt lat="56.348627" lon="13.660938">
        <ele>110.7</ele>
        <time>2014-05-17T12:01:04Z</time>
      </trkpt>
      <trkpt lat="56.348661" lon="13.660936">
        <ele>110.8</ele>
        <time>2014-05-17T12:01:05Z</time>
      </trkpt>
      <trkpt lat="56.348694" lon="13.660936">
        <ele>110.9</ele>
        <time>2014-05-17T12:01:06Z</time>
      </trkpt>
      <trkpt lat="56.348726" lon="13.660937">
        <ele>111</ele>
        <time>2014-05-17T12:01:07Z</time>
      </trkpt>
      <trkpt lat="56.348757" lon="13.66094">
        <ele>111.1</ele>
        <time>2014-05-17T12:01:08Z</time>
      </trkpt>
      <trkpt lat="56.348787" lon="13.660939">
        <ele>111.1</ele>
        <time>2014-05-17T12:01:09Z</time>
      </trkpt>
      <trkpt lat="56.348816" lon="13.660938">
        <ele>111.1</ele>
        <time>2014-05-17T12:01:10Z</time>
      </trkpt>
      <trkpt lat="56.348847" lon="13.660931">
        <ele>111.1</ele>
        <time>2014-05-17T12:01:11Z</time>
      </trkpt>
      <trkpt lat="56.348877" lon="13.660919">
        <ele>111.1</ele>
        <time>2014-05-17T12:01:12Z</time>
      </trkpt>
      <trkpt lat="56.348904" lon="13.660884">
        <ele>111.2</ele>
        <time>2014-05-17T12:01:13Z</time>
      </trkpt>
      <trkpt lat="56.348927" lon="13.660836">
        <ele>111.4</ele>
        <time>2014-05-17T12:01:14Z</time>
      </trkpt>
      <trkpt lat="56.34894" lon="13.660771">
        <ele>111.6</ele>
        <time>2014-05-17T12:01:15Z</time>
      </trkpt>
      <trkpt lat="56.348948" lon="13.660699">
        <ele>111.8</ele>
        <time>2014-05-17T12:01:16Z</time>
      </trkpt>
      <trkpt lat="56.348953" lon="13.660628">
        <ele>112.1</ele>
        <time>2014-05-17T12:01:17Z</time>
      </trkpt>
      <trkpt lat="56.348957" lon="13.660558">
        <ele>112.3</ele>
        <time>2014-05-17T12:01:18Z</time>
      </trkpt>
      <trkpt lat="56.348962" lon="13.66049">
        <ele>112.5</ele>
        <time>2014-05-17T12:01:19Z</time>
      </trkpt>
      <trkpt lat="56.348968" lon="13.660428">
        <ele>112.7</ele>
        <time>2014-05-17T12:01:20Z</time>
      </trkpt>
      <trkpt lat="56.348976" lon="13.660371">
        <ele>112.7</ele>
        <time>2014-05-17T12:01:21Z</time>
      </trkpt>
      <trkpt lat="56.348985" lon="13.660316">
        <ele>112.7</ele>
        <time>2014-05-17T12:01:22Z</time>
      </trkpt>
      <trkpt lat="56.348995" lon="13.660262">
        <ele>112.7</ele>
        <time>2014-05-17T12:01:23Z</time>
      </trkpt>
      <trkpt lat="56.349004" lon="13.660207">
        <ele>112.7</ele>
        <time>2014-05-17T12:01:24Z</time>
      </trkpt>
      <trkpt lat="56.349009" lon="13.66015">
        <ele>112.7</ele>
        <time>2014-05-17T12:01:25Z</time>
      </trkpt>
      <trkpt lat="56.349014" lon="13.660095">
        <ele>112.7</ele>
        <time>2014-05-17T12:01:26Z</time>
      </trkpt>
      <trkpt lat="56.349018" lon="13.660038">
        <ele>112.7</ele>
        <time>2014-05-17T12:01:27Z</time>
      </trkpt>
      <trkpt lat="56.349025" lon="13.659981">
        <ele>112.7</ele>
        <time>2014-05-17T12:01:28Z</time>
      </trkpt>
      <trkpt lat="56.349035" lon="13.659925">
        <ele>112.7</ele>
        <time>2014-05-17T12:01:29Z</time>
      </trkpt>
      <trkpt lat="56.349047" lon="13.659869">
        <ele>112.7</ele>
        <time>2014-05-17T12:01:30Z</time>
      </trkpt>
      <trkpt lat="56.349057" lon="13.659811">
        <ele>112.7</ele>
        <time>2014-05-17T12:01:31Z</time>
      </trkpt>
      <trkpt lat="56.349065" lon="13.659748">
        <ele>112.7</ele>
        <time>2014-05-17T12:01:32Z</time>
      </trkpt>
      <trkpt lat="56.349072" lon="13.659685">
        <ele>112.8</ele>
        <time>2014-05-17T12:01:33Z</time>
      </trkpt>
      <trkpt lat="56.349077" lon="13.659621">
        <ele>112.8</ele>
        <time>2014-05-17T12:01:34Z</time>
      </trkpt>
      <trkpt lat="56.349083" lon="13.659558">
        <ele>112.8</ele>
        <time>2014-05-17T12:01:35Z</time>
      </trkpt>
      <trkpt lat="56.349089" lon="13.659498">
        <ele>112.9</ele>
        <time>2014-05-17T12:01:36Z</time>
      </trkpt>
      <trkpt lat="56.349095" lon="13.659439">
        <ele>112.9</ele>
        <time>2014-05-17T12:01:37Z</time>
      </trkpt>
      <trkpt lat="56.349106" lon="13.659354">
        <ele>113</ele>
        <time>2014-05-17T12:01:39Z</time>
      </trkpt>
      <trkpt lat="56.34914" lon="13.659295">
        <ele>113.1</ele>
        <time>2014-05-17T12:01:41Z</time>
      </trkpt>
      <trkpt lat="56.349167" lon="13.659286">
        <ele>113.2</ele>
        <time>2014-05-17T12:01:42Z</time>
      </trkpt>
      <trkpt lat="56.349199" lon="13.659283">
        <ele>113.3</ele>
        <time>2014-05-17T12:01:43Z</time>
      </trkpt>
      <trkpt lat="56.34924" lon="13.659278">
        <ele>113.4</ele>
        <time>2014-05-17T12:01:44Z</time>
      </trkpt>
      <trkpt lat="56.349279" lon="13.659265">
        <ele>113.5</ele>
        <time>2014-05-17T12:01:45Z</time>
      </trkpt>
      <trkpt lat="56.349317" lon="13.659254">
        <ele>113.6</ele>
        <time>2014-05-17T12:01:46Z</time>
      </trkpt>
      <trkpt lat="56.349355" lon="13.65924">
        <ele>113.8</ele>
        <time>2014-05-17T12:01:47Z</time>
      </trkpt>
      <trkpt lat="56.349392" lon="13.659232">
        <ele>113.9</ele>
        <time>2014-05-17T12:01:48Z</time>
      </trkpt>
      <trkpt lat="56.34943" lon="13.659227">
        <ele>114</ele>
        <time>2014-05-17T12:01:49Z</time>
      </trkpt>
      <trkpt lat="56.34947" lon="13.659225">
        <ele>114.1</ele>
        <time>2014-05-17T12:01:50Z</time>
      </trkpt>
      <trkpt lat="56.349511" lon="13.65923">
        <ele>114.2</ele>
        <time>2014-05-17T12:01:51Z</time>
      </trkpt>
      <trkpt lat="56.349553" lon="13.659239">
        <ele>114.3</ele>
        <time>2014-05-17T12:01:52Z</time>
      </trkpt>
      <trkpt lat="56.349594" lon="13.659251">
        <ele>114.4</ele>
        <time>2014-05-17T12:01:53Z</time>
      </trkpt>
      <trkpt lat="56.349633" lon="13.659265">
        <ele>114.3</ele>
        <time>2014-05-17T12:01:54Z</time>
      </trkpt>
      <trkpt lat="56.349675" lon="13.659281">
        <ele>114.3</ele>
        <time>2014-05-17T12:01:55Z</time>
      </trkpt>
      <trkpt lat="56.349716" lon="13.659296">
        <ele>114.2</ele>
        <time>2014-05-17T12:01:56Z</time>
      </trkpt>
      <trkpt lat="56.349757" lon="13.659309">
        <ele>114.1</ele>
        <time>2014-05-17T12:01:57Z</time>
      </trkpt>
      <trkpt lat="56.349799" lon="13.659323">
        <ele>114.1</ele>
        <time>2014-05-17T12:01:58Z</time>
      </trkpt>
      <trkpt lat="56.349839" lon="13.659342">
        <ele>114</ele>
        <time>2014-05-17T12:01:59Z</time>
      </trkpt>
      <trkpt lat="56.349877" lon="13.659363">
        <ele>113.9</ele>
        <time>2014-05-17T12:02:00Z</time>
      </trkpt>
      <trkpt lat="56.349914" lon="13.659384">
        <ele>113.8</ele>
        <time>2014-05-17T12:02:01Z</time>
      </trkpt>
      <trkpt lat="56.349949" lon="13.659409">
        <ele>113.8</ele>
        <time>2014-05-17T12:02:02Z</time>
      </trkpt>
      <trkpt lat="56.349984" lon="13.659434">
        <ele>113.7</ele>
        <time>2014-05-17T12:02:03Z</time>
      </trkpt>
      <trkpt lat="56.350019" lon="13.659456">
        <ele>113.6</ele>
        <time>2014-05-17T12:02:04Z</time>
      </trkpt>
      <trkpt lat="56.350054" lon="13.659479">
        <ele>113.6</ele>
        <time>2014-05-17T12:02:05Z</time>
      </trkpt>
      <trkpt lat="56.350086" lon="13.659515">
        <ele>113.5</ele>
        <time>2014-05-17T12:02:06Z</time>
      </trkpt>
      <trkpt lat="56.350114" lon="13.659562">
        <ele>113.4</ele>
        <time>2014-05-17T12:02:07Z</time>
      </trkpt>
      <trkpt lat="56.350133" lon="13.659625">
        <ele>113.2</ele>
        <time>2014-05-17T12:02:08Z</time>
      </trkpt>
      <trkpt lat="56.35014" lon="13.659702">
        <ele>113</ele>
        <time>2014-05-17T12:02:09Z</time>
      </trkpt>
      <trkpt lat="56.350133" lon="13.659786">
        <ele>112.9</ele>
        <time>2014-05-17T12:02:10Z</time>
      </trkpt>
      <trkpt lat="56.350072" lon="13.65995">
        <ele>112.5</ele>
        <time>2014-05-17T12:02:11Z</time>
      </trkpt>
      <trkpt lat="56.350059" lon="13.660046">
        <ele>112.3</ele>
        <time>2014-05-17T12:02:12Z</time>
      </trkpt>
      <trkpt lat="56.35005" lon="13.660156">
        <ele>112.1</ele>
        <time>2014-05-17T12:02:13Z</time>
      </trkpt>
      <trkpt lat="56.350038" lon="13.660257">
        <ele>111.8</ele>
        <time>2014-05-17T12:02:14Z</time>
      </trkpt>
      <trkpt lat="56.350018" lon="13.660376">
        <ele>111.6</ele>
        <time>2014-05-17T12:02:15Z</time>
      </trkpt>
      <trkpt lat="56.350004" lon="13.660492">
        <ele>111.4</ele>
        <time>2014-05-17T12:02:16Z</time>
      </trkpt>
      <trkpt lat="56.349988" lon="13.660597">
        <ele>111.2</ele>
        <time>2014-05-17T12:02:17Z</time>
      </trkpt>
      <trkpt lat="56.349982" lon="13.660711">
        <ele>111</ele>
        <time>2014-05-17T12:02:18Z</time>
      </trkpt>
      <trkpt lat="56.349985" lon="13.660824">
        <ele>110.8</ele>
        <time>2014-05-17T12:02:19Z</time>
      </trkpt>
      <trkpt lat="56.349997" lon="13.660938">
        <ele>110.6</ele>
        <time>2014-05-17T12:02:20Z</time>
      </trkpt>
      <trkpt lat="56.349987" lon="13.661053">
        <ele>110.4</ele>
        <time>2014-05-17T12:02:21Z</time>
      </trkpt>
      <trkpt lat="56.349984" lon="13.661166">
        <ele>110.2</ele>
        <time>2014-05-17T12:02:22Z</time>
      </trkpt>
      <trkpt lat="56.349974" lon="13.661272">
        <ele>109.9</ele>
        <time>2014-05-17T12:02:23Z</time>
      </trkpt>
      <trkpt lat="56.349971" lon="13.66137">
        <ele>109.6</ele>
        <time>2014-05-17T12:02:24Z</time>
      </trkpt>
      <trkpt lat="56.349961" lon="13.661467">
        <ele>109.3</ele>
        <time>2014-05-17T12:02:25Z</time>
      </trkpt>
      <trkpt lat="56.34996" lon="13.661547">
        <ele>109.1</ele>
        <time>2014-05-17T12:02:26Z</time>
      </trkpt>
      <trkpt lat="56.349977" lon="13.661613">
        <ele>108.9</ele>
        <time>2014-05-17T12:02:27Z</time>
      </trkpt>
      <trkpt lat="56.349983" lon="13.66168">
        <ele>108.7</ele>
        <time>2014-05-17T12:02:28Z</time>
      </trkpt>
      <trkpt lat="56.350075" lon="13.661679">
        <ele>108.8</ele>
        <time>2014-05-17T12:02:29Z</time>
      </trkpt>
      <trkpt lat="56.350122" lon="13.661668">
        <ele>108.8</ele>
        <time>2014-05-17T12:02:30Z</time>
      </trkpt>
      <trkpt lat="56.350158" lon="13.661682">
        <ele>108.8</ele>
        <time>2014-05-17T12:02:31Z</time>
      </trkpt>
      <trkpt lat="56.350202" lon="13.661693">
        <ele>108.8</ele>
        <time>2014-05-17T12:02:32Z</time>
      </trkpt>
      <trkpt lat="56.350242" lon="13.661708">
        <ele>108.8</ele>
        <time>2014-05-17T12:02:33Z</time>
      </trkpt>
      <trkpt lat="56.350273" lon="13.661714">
        <ele>108.8</ele>
        <time>2014-05-17T12:02:34Z</time>
      </trkpt>
      <trkpt lat="56.350313" lon="13.661713">
        <ele>108.8</ele>
        <time>2014-05-17T12:02:35Z</time>
      </trkpt>
      <trkpt lat="56.350352" lon="13.661693">
        <ele>108.9</ele>
        <time>2014-05-17T12:02:36Z</time>
      </trkpt>
      <trkpt lat="56.350391" lon="13.66167">
        <ele>109</ele>
        <time>2014-05-17T12:02:37Z</time>
      </trkpt>
      <trkpt lat="56.350431" lon="13.66165">
        <ele>109</ele>
        <time>2014-05-17T12:02:38Z</time>
      </trkpt>
      <trkpt lat="56.35047" lon="13.661634">
        <ele>109</ele>
        <time>2014-05-17T12:02:39Z</time>
      </trkpt>
      <trkpt lat="56.350512" lon="13.661637">
        <ele>109</ele>
        <time>2014-05-17T12:02:40Z</time>
      </trkpt>
      <trkpt lat="56.350551" lon="13.661662">
        <ele>108.9</ele>
        <time>2014-05-17T12:02:41Z</time>
      </trkpt>
      <trkpt lat="56.350586" lon="13.6617">
        <ele>108.8</ele>
        <time>2014-05-17T12:02:42Z</time>
      </trkpt>
      <trkpt lat="56.350621" lon="13.661738">
        <ele>108.8</ele>
        <time>2014-05-17T12:02:43Z</time>
      </trkpt>
      <trkpt lat="56.350655" lon="13.661763">
        <ele>108.7</ele>
        <time>2014-05-17T12:02:44Z</time>
      </trkpt>
      <trkpt lat="56.35069" lon="13.661768">
        <ele>108.7</ele>
        <time>2014-05-17T12:02:45Z</time>
      </trkpt>
      <trkpt lat="56.350726" lon="13.661759">
        <ele>108.7</ele>
        <time>2014-05-17T12:02:46Z</time>
      </trkpt>
      <trkpt lat="56.350763" lon="13.661743">
        <ele>108.7</ele>
        <time>2014-05-17T12:02:47Z</time>
      </trkpt>
      <trkpt lat="56.350801" lon="13.661733">
        <ele>108.7</ele>
        <time>2014-05-17T12:02:48Z</time>
      </trkpt>
      <trkpt lat="56.350841" lon="13.661733">
        <ele>108.7</ele>
        <time>2014-05-17T12:02:49Z</time>
      </trkpt>
      <trkpt lat="56.350881" lon="13.661739">
        <ele>108.7</ele>
        <time>2014-05-17T12:02:50Z</time>
      </trkpt>
      <trkpt lat="56.350921" lon="13.661746">
        <ele>108.7</ele>
        <time>2014-05-17T12:02:51Z</time>
      </trkpt>
      <trkpt lat="56.35096" lon="13.661749">
        <ele>108.7</ele>
        <time>2014-05-17T12:02:52Z</time>
      </trkpt>
      <trkpt lat="56.350998" lon="13.661754">
        <ele>108.7</ele>
        <time>2014-05-17T12:02:53Z</time>
      </trkpt>
      <trkpt lat="56.351032" lon="13.661771">
        <ele>108.7</ele>
        <time>2014-05-17T12:02:54Z</time>
      </trkpt>
      <trkpt lat="56.351061" lon="13.661826">
        <ele>108.7</ele>
        <time>2014-05-17T12:02:56Z</time>
      </trkpt>
      <trkpt lat="56.351069" lon="13.661881">
        <ele>108.7</ele>
        <time>2014-05-17T12:02:58Z</time>
      </trkpt>
      <trkpt lat="56.351073" lon="13.661953">
        <ele>108.7</ele>
        <time>2014-05-17T12:03:00Z</time>
      </trkpt>
      <trkpt lat="56.351072" lon="13.662029">
        <ele>108.8</ele>
        <time>2014-05-17T12:03:02Z</time>
      </trkpt>
      <trkpt lat="56.351073" lon="13.662117">
        <ele>108.8</ele>
        <time>2014-05-17T12:03:04Z</time>
      </trkpt>
      <trkpt lat="56.351099" lon="13.662194">
        <ele>108.8</ele>
        <time>2014-05-17T12:03:06Z</time>
      </trkpt>
      <trkpt lat="56.351147" lon="13.662224">
        <ele>108.9</ele>
        <time>2014-05-17T12:03:08Z</time>
      </trkpt>
      <trkpt lat="56.351193" lon="13.662247">
        <ele>108.9</ele>
        <time>2014-05-17T12:03:10Z</time>
      </trkpt>
      <trkpt lat="56.351241" lon="13.662255">
        <ele>109</ele>
        <time>2014-05-17T12:03:12Z</time>
      </trkpt>
      <trkpt lat="56.351292" lon="13.662249">
        <ele>109</ele>
        <time>2014-05-17T12:03:14Z</time>
      </trkpt>
      <trkpt lat="56.35135" lon="13.662256">
        <ele>109</ele>
        <time>2014-05-17T12:03:16Z</time>
      </trkpt>
      <trkpt lat="56.351382" lon="13.662264">
        <ele>109</ele>
        <time>2014-05-17T12:03:17Z</time>
      </trkpt>
      <trkpt lat="56.351413" lon="13.662271">
        <ele>109</ele>
        <time>2014-05-17T12:03:18Z</time>
      </trkpt>
      <trkpt lat="56.351445" lon="13.662276">
        <ele>109</ele>
        <time>2014-05-17T12:03:19Z</time>
      </trkpt>
      <trkpt lat="56.351478" lon="13.662281">
        <ele>109</ele>
        <time>2014-05-17T12:03:20Z</time>
      </trkpt>
      <trkpt lat="56.35151" lon="13.662285">
        <ele>109</ele>
        <time>2014-05-17T12:03:21Z</time>
      </trkpt>
      <trkpt lat="56.351543" lon="13.66229">
        <ele>109</ele>
        <time>2014-05-17T12:03:22Z</time>
      </trkpt>
      <trkpt lat="56.351573" lon="13.662294">
        <ele>109</ele>
        <time>2014-05-17T12:03:23Z</time>
      </trkpt>
      <trkpt lat="56.351606" lon="13.662296">
        <ele>109</ele>
        <time>2014-05-17T12:03:24Z</time>
      </trkpt>
      <trkpt lat="56.351637" lon="13.6623">
        <ele>109</ele>
        <time>2014-05-17T12:03:25Z</time>
      </trkpt>
      <trkpt lat="56.351668" lon="13.662306">
        <ele>109</ele>
        <time>2014-05-17T12:03:26Z</time>
      </trkpt>
      <trkpt lat="56.351698" lon="13.66231">
        <ele>109</ele>
        <time>2014-05-17T12:03:27Z</time>
      </trkpt>
      <trkpt lat="56.351726" lon="13.662316">
        <ele>109.1</ele>
        <time>2014-05-17T12:03:28Z</time>
      </trkpt>
      <trkpt lat="56.351775" lon="13.662328">
        <ele>109.1</ele>
        <time>2014-05-17T12:03:30Z</time>
      </trkpt>
      <trkpt lat="56.351828" lon="13.662346">
        <ele>109.2</ele>
        <time>2014-05-17T12:03:32Z</time>
      </trkpt>
      <trkpt lat="56.351856" lon="13.662356">
        <ele>109.2</ele>
        <time>2014-05-17T12:03:33Z</time>
      </trkpt>
      <trkpt lat="56.351883" lon="13.662369">
        <ele>109.3</ele>
        <time>2014-05-17T12:03:34Z</time>
      </trkpt>
      <trkpt lat="56.35191" lon="13.662392">
        <ele>109.4</ele>
        <time>2014-05-17T12:03:35Z</time>
      </trkpt>
      <trkpt lat="56.351936" lon="13.662424">
        <ele>109.5</ele>
        <time>2014-05-17T12:03:36Z</time>
      </trkpt>
      <trkpt lat="56.351965" lon="13.662462">
        <ele>109.7</ele>
        <time>2014-05-17T12:03:37Z</time>
      </trkpt>
      <trkpt lat="56.351993" lon="13.662498">
        <ele>109.9</ele>
        <time>2014-05-17T12:03:38Z</time>
      </trkpt>
      <trkpt lat="56.35202" lon="13.662536">
        <ele>110.1</ele>
        <time>2014-05-17T12:03:39Z</time>
      </trkpt>
      <trkpt lat="56.352044" lon="13.66258">
        <ele>110.3</ele>
        <time>2014-05-17T12:03:40Z</time>
      </trkpt>
      <trkpt lat="56.352067" lon="13.662628">
        <ele>110.6</ele>
        <time>2014-05-17T12:03:41Z</time>
      </trkpt>
      <trkpt lat="56.352089" lon="13.662675">
        <ele>110.8</ele>
        <time>2014-05-17T12:03:42Z</time>
      </trkpt>
      <trkpt lat="56.352112" lon="13.662722">
        <ele>111</ele>
        <time>2014-05-17T12:03:43Z</time>
      </trkpt>
      <trkpt lat="56.352138" lon="13.662769">
        <ele>111.2</ele>
        <time>2014-05-17T12:03:44Z</time>
      </trkpt>
      <trkpt lat="56.352166" lon="13.662818">
        <ele>111.3</ele>
        <time>2014-05-17T12:03:45Z</time>
      </trkpt>
      <trkpt lat="56.352195" lon="13.662862">
        <ele>111.5</ele>
        <time>2014-05-17T12:03:46Z</time>
      </trkpt>
      <trkpt lat="56.352226" lon="13.662902">
        <ele>111.6</ele>
        <time>2014-05-17T12:03:47Z</time>
      </trkpt>
      <trkpt lat="56.352259" lon="13.662941">
        <ele>111.7</ele>
        <time>2014-05-17T12:03:48Z</time>
      </trkpt>
      <trkpt lat="56.352297" lon="13.662976">
        <ele>111.8</ele>
        <time>2014-05-17T12:03:49Z</time>
      </trkpt>
      <trkpt lat="56.352336" lon="13.663001">
        <ele>111.8</ele>
        <time>2014-05-17T12:03:50Z</time>
      </trkpt>
      <trkpt lat="56.352379" lon="13.663019">
        <ele>111.8</ele>
        <time>2014-05-17T12:03:51Z</time>
      </trkpt>
      <trkpt lat="56.352422" lon="13.663038">
        <ele>111.8</ele>
        <time>2014-05-17T12:03:52Z</time>
      </trkpt>
      <trkpt lat="56.352465" lon="13.663057">
        <ele>111.8</ele>
        <time>2014-05-17T12:03:53Z</time>
      </trkpt>
      <trkpt lat="56.352509" lon="13.663073">
        <ele>111.8</ele>
        <time>2014-05-17T12:03:54Z</time>
      </trkpt>
      <trkpt lat="56.352554" lon="13.663079">
        <ele>111.8</ele>
        <time>2014-05-17T12:03:55Z</time>
      </trkpt>
      <trkpt lat="56.352601" lon="13.663078">
        <ele>111.7</ele>
        <time>2014-05-17T12:03:56Z</time>
      </trkpt>
      <trkpt lat="56.352648" lon="13.663075">
        <ele>111.5</ele>
        <time>2014-05-17T12:03:57Z</time>
      </trkpt>
      <trkpt lat="56.352692" lon="13.663077">
        <ele>111.4</ele>
        <time>2014-05-17T12:03:58Z</time>
      </trkpt>
      <trkpt lat="56.352735" lon="13.663073">
        <ele>111.3</ele>
        <time>2014-05-17T12:03:59Z</time>
      </trkpt>
      <trkpt lat="56.352776" lon="13.663062">
        <ele>111.2</ele>
        <time>2014-05-17T12:04:00Z</time>
      </trkpt>
      <trkpt lat="56.352811" lon="13.663045">
        <ele>111</ele>
        <time>2014-05-17T12:04:01Z</time>
      </trkpt>
      <trkpt lat="56.352846" lon="13.663026">
        <ele>110.8</ele>
        <time>2014-05-17T12:04:02Z</time>
      </trkpt>
      <trkpt lat="56.352879" lon="13.663007">
        <ele>110.6</ele>
        <time>2014-05-17T12:04:03Z</time>
      </trkpt>
      <trkpt lat="56.352912" lon="13.662988">
        <ele>110.4</ele>
        <time>2014-05-17T12:04:04Z</time>
      </trkpt>
      <trkpt lat="56.352946" lon="13.662968">
        <ele>110.3</ele>
        <time>2014-05-17T12:04:05Z</time>
      </trkpt>
      <trkpt lat="56.352979" lon="13.662952">
        <ele>110.1</ele>
        <time>2014-05-17T12:04:06Z</time>
      </trkpt>
      <trkpt lat="56.353014" lon="13.662937">
        <ele>110</ele>
        <time>2014-05-17T12:04:07Z</time>
      </trkpt>
      <trkpt lat="56.353044" lon="13.662927">
        <ele>109.9</ele>
        <time>2014-05-17T12:04:08Z</time>
      </trkpt>
      <trkpt lat="56.353076" lon="13.662931">
        <ele>109.9</ele>
        <time>2014-05-17T12:04:09Z</time>
      </trkpt>
      <trkpt lat="56.353108" lon="13.662942">
        <ele>109.9</ele>
        <time>2014-05-17T12:04:10Z</time>
      </trkpt>
      <trkpt lat="56.353139" lon="13.662961">
        <ele>109.9</ele>
        <time>2014-05-17T12:04:11Z</time>
      </trkpt>
      <trkpt lat="56.353168" lon="13.662982">
        <ele>109.9</ele>
        <time>2014-05-17T12:04:12Z</time>
      </trkpt>
      <trkpt lat="56.353196" lon="13.663003">
        <ele>110</ele>
        <time>2014-05-17T12:04:13Z</time>
      </trkpt>
      <trkpt lat="56.353222" lon="13.663021">
        <ele>110</ele>
        <time>2014-05-17T12:04:14Z</time>
      </trkpt>
      <trkpt lat="56.353248" lon="13.663037">
        <ele>110</ele>
        <time>2014-05-17T12:04:15Z</time>
      </trkpt>
      <trkpt lat="56.353274" lon="13.663057">
        <ele>110</ele>
        <time>2014-05-17T12:04:16Z</time>
      </trkpt>
      <trkpt lat="56.353299" lon="13.663094">
        <ele>110</ele>
        <time>2014-05-17T12:04:17Z</time>
      </trkpt>
      <trkpt lat="56.35332" lon="13.663136">
        <ele>110.1</ele>
        <time>2014-05-17T12:04:18Z</time>
      </trkpt>
      <trkpt lat="56.353337" lon="13.663188">
        <ele>110.1</ele>
        <time>2014-05-17T12:04:19Z</time>
      </trkpt>
      <trkpt lat="56.353353" lon="13.663245">
        <ele>110.2</ele>
        <time>2014-05-17T12:04:20Z</time>
      </trkpt>
      <trkpt lat="56.35337" lon="13.663304">
        <ele>110.3</ele>
        <time>2014-05-17T12:04:21Z</time>
      </trkpt>
      <trkpt lat="56.353391" lon="13.66338">
        <ele>110.3</ele>
        <time>2014-05-17T12:04:22Z</time>
      </trkpt>
      <trkpt lat="56.353411" lon="13.663456">
        <ele>110.3</ele>
        <time>2014-05-17T12:04:23Z</time>
      </trkpt>
      <trkpt lat="56.353428" lon="13.663537">
        <ele>110.4</ele>
        <time>2014-05-17T12:04:24Z</time>
      </trkpt>
      <trkpt lat="56.353445" lon="13.663614">
        <ele>110.4</ele>
        <time>2014-05-17T12:04:25Z</time>
      </trkpt>
      <trkpt lat="56.35346" lon="13.663691">
        <ele>110.4</ele>
        <time>2014-05-17T12:04:26Z</time>
      </trkpt>
      <trkpt lat="56.353476" lon="13.663765">
        <ele>110.3</ele>
        <time>2014-05-17T12:04:27Z</time>
      </trkpt>
      <trkpt lat="56.353492" lon="13.663836">
        <ele>110.1</ele>
        <time>2014-05-17T12:04:28Z</time>
      </trkpt>
      <trkpt lat="56.353507" lon="13.663906">
        <ele>109.9</ele>
        <time>2014-05-17T12:04:29Z</time>
      </trkpt>
      <trkpt lat="56.353522" lon="13.663964">
        <ele>109.8</ele>
        <time>2014-05-17T12:04:30Z</time>
      </trkpt>
      <trkpt lat="56.353537" lon="13.664023">
        <ele>109.6</ele>
        <time>2014-05-17T12:04:31Z</time>
      </trkpt>
      <trkpt lat="56.353554" lon="13.664077">
        <ele>109.5</ele>
        <time>2014-05-17T12:04:32Z</time>
      </trkpt>
      <trkpt lat="56.353572" lon="13.664132">
        <ele>109.3</ele>
        <time>2014-05-17T12:04:33Z</time>
      </trkpt>
      <trkpt lat="56.353592" lon="13.664183">
        <ele>109.1</ele>
        <time>2014-05-17T12:04:34Z</time>
      </trkpt>
      <trkpt lat="56.353609" lon="13.664237">
        <ele>109</ele>
        <time>2014-05-17T12:04:35Z</time>
      </trkpt>
      <trkpt lat="56.353624" lon="13.664293">
        <ele>108.9</ele>
        <time>2014-05-17T12:04:36Z</time>
      </trkpt>
      <trkpt lat="56.353639" lon="13.664347">
        <ele>108.7</ele>
        <time>2014-05-17T12:04:37Z</time>
      </trkpt>
      <trkpt lat="56.353655" lon="13.664402">
        <ele>108.6</ele>
        <time>2014-05-17T12:04:38Z</time>
      </trkpt>
      <trkpt lat="56.353673" lon="13.664456">
        <ele>108.5</ele>
        <time>2014-05-17T12:04:39Z</time>
      </trkpt>
      <trkpt lat="56.35369" lon="13.66451">
        <ele>108.4</ele>
        <time>2014-05-17T12:04:40Z</time>
      </trkpt>
      <trkpt lat="56.353705" lon="13.664565">
        <ele>108.3</ele>
        <time>2014-05-17T12:04:41Z</time>
      </trkpt>
      <trkpt lat="56.353717" lon="13.664622">
        <ele>108.2</ele>
        <time>2014-05-17T12:04:42Z</time>
      </trkpt>
      <trkpt lat="56.353727" lon="13.664678">
        <ele>108.1</ele>
        <time>2014-05-17T12:04:43Z</time>
      </trkpt>
      <trkpt lat="56.353733" lon="13.664736">
        <ele>108.1</ele>
        <time>2014-05-17T12:04:44Z</time>
      </trkpt>
      <trkpt lat="56.353741" lon="13.664793">
        <ele>108</ele>
        <time>2014-05-17T12:04:45Z</time>
      </trkpt>
      <trkpt lat="56.35375" lon="13.66485">
        <ele>108</ele>
        <time>2014-05-17T12:04:46Z</time>
      </trkpt>
      <trkpt lat="56.353758" lon="13.664905">
        <ele>108</ele>
        <time>2014-05-17T12:04:47Z</time>
      </trkpt>
      <trkpt lat="56.353768" lon="13.664962">
        <ele>108.1</ele>
        <time>2014-05-17T12:04:48Z</time>
      </trkpt>
      <trkpt lat="56.353777" lon="13.66502">
        <ele>108.1</ele>
        <time>2014-05-17T12:04:49Z</time>
      </trkpt>
      <trkpt lat="56.353787" lon="13.665081">
        <ele>108.2</ele>
        <time>2014-05-17T12:04:50Z</time>
      </trkpt>
      <trkpt lat="56.353796" lon="13.665153">
        <ele>108.2</ele>
        <time>2014-05-17T12:04:51Z</time>
      </trkpt>
      <trkpt lat="56.353804" lon="13.665226">
        <ele>108.3</ele>
        <time>2014-05-17T12:04:52Z</time>
      </trkpt>
      <trkpt lat="56.353812" lon="13.665304">
        <ele>108.3</ele>
        <time>2014-05-17T12:04:53Z</time>
      </trkpt>
      <trkpt lat="56.353819" lon="13.665404">
        <ele>108.3</ele>
        <time>2014-05-17T12:04:54Z</time>
      </trkpt>
      <trkpt lat="56.35383" lon="13.665486">
        <ele>108.3</ele>
        <time>2014-05-17T12:04:55Z</time>
      </trkpt>
      <trkpt lat="56.353836" lon="13.66558">
        <ele>108.2</ele>
        <time>2014-05-17T12:04:56Z</time>
      </trkpt>
      <trkpt lat="56.353845" lon="13.665676">
        <ele>108.2</ele>
        <time>2014-05-17T12:04:57Z</time>
      </trkpt>
      <trkpt lat="56.353855" lon="13.665789">
        <ele>108.1</ele>
        <time>2014-05-17T12:04:58Z</time>
      </trkpt>
      <trkpt lat="56.353864" lon="13.665899">
        <ele>108</ele>
        <time>2014-05-17T12:04:59Z</time>
      </trkpt>
      <trkpt lat="56.353867" lon="13.666019">
        <ele>107.9</ele>
        <time>2014-05-17T12:05:00Z</time>
      </trkpt>
      <trkpt lat="56.353878" lon="13.666134">
        <ele>107.9</ele>
        <time>2014-05-17T12:05:01Z</time>
      </trkpt>
      <trkpt lat="56.353872" lon="13.666256">
        <ele>107.7</ele>
        <time>2014-05-17T12:05:02Z</time>
      </trkpt>
      <trkpt lat="56.353864" lon="13.666378">
        <ele>107.6</ele>
        <time>2014-05-17T12:05:03Z</time>
      </trkpt>
      <trkpt lat="56.35386" lon="13.66649">
        <ele>107.4</ele>
        <time>2014-05-17T12:05:04Z</time>
      </trkpt>
      <trkpt lat="56.353855" lon="13.66661">
        <ele>107.3</ele>
        <time>2014-05-17T12:05:05Z</time>
      </trkpt>
      <trkpt lat="56.35385" lon="13.666739">
        <ele>107.1</ele>
        <time>2014-05-17T12:05:06Z</time>
      </trkpt>
      <trkpt lat="56.35384" lon="13.666862">
        <ele>106.9</ele>
        <time>2014-05-17T12:05:07Z</time>
      </trkpt>
      <trkpt lat="56.353826" lon="13.66698">
        <ele>106.7</ele>
        <time>2014-05-17T12:05:08Z</time>
      </trkpt>
      <trkpt lat="56.353819" lon="13.667104">
        <ele>106.5</ele>
        <time>2014-05-17T12:05:09Z</time>
      </trkpt>
      <trkpt lat="56.353805" lon="13.667204">
        <ele>106.4</ele>
        <time>2014-05-17T12:05:10Z</time>
      </trkpt>
      <trkpt lat="56.353794" lon="13.667288">
        <ele>106.3</ele>
        <time>2014-05-17T12:05:11Z</time>
      </trkpt>
      <trkpt lat="56.353788" lon="13.667383">
        <ele>106.3</ele>
        <time>2014-05-17T12:05:12Z</time>
      </trkpt>
      <trkpt lat="56.353778" lon="13.667477">
        <ele>106.2</ele>
        <time>2014-05-17T12:05:13Z</time>
      </trkpt>
      <trkpt lat="56.353779" lon="13.667542">
        <ele>106.2</ele>
        <time>2014-05-17T12:05:14Z</time>
      </trkpt>
      <trkpt lat="56.353789" lon="13.667613">
        <ele>106.3</ele>
        <time>2014-05-17T12:05:15Z</time>
      </trkpt>
      <trkpt lat="56.353787" lon="13.667683">
        <ele>106.3</ele>
        <time>2014-05-17T12:05:16Z</time>
      </trkpt>
      <trkpt lat="56.353792" lon="13.667746">
        <ele>106.3</ele>
        <time>2014-05-17T12:05:17Z</time>
      </trkpt>
      <trkpt lat="56.353781" lon="13.667808">
        <ele>106.3</ele>
        <time>2014-05-17T12:05:18Z</time>
      </trkpt>
      <trkpt lat="56.353802" lon="13.667877">
        <ele>106.4</ele>
        <time>2014-05-17T12:05:19Z</time>
      </trkpt>
      <trkpt lat="56.353808" lon="13.667943">
        <ele>106.5</ele>
        <time>2014-05-17T12:05:20Z</time>
      </trkpt>
      <trkpt lat="56.353856" lon="13.667988">
        <ele>107</ele>
        <time>2014-05-17T12:05:21Z</time>
      </trkpt>
      <trkpt lat="56.353868" lon="13.668044">
        <ele>107.2</ele>
        <time>2014-05-17T12:05:22Z</time>
      </trkpt>
      <trkpt lat="56.353869" lon="13.668096">
        <ele>107.2</ele>
        <time>2014-05-17T12:05:23Z</time>
      </trkpt>
      <trkpt lat="56.353874" lon="13.668171">
        <ele>107.4</ele>
        <time>2014-05-17T12:05:25Z</time>
      </trkpt>
      <trkpt lat="56.353891" lon="13.668243">
        <ele>107.6</ele>
        <time>2014-05-17T12:05:27Z</time>
      </trkpt>
      <trkpt lat="56.353912" lon="13.668307">
        <ele>107.9</ele>
        <time>2014-05-17T12:05:29Z</time>
      </trkpt>
      <trkpt lat="56.353932" lon="13.668366">
        <ele>108.2</ele>
        <time>2014-05-17T12:05:31Z</time>
      </trkpt>
      <trkpt lat="56.353953" lon="13.668423">
        <ele>108.5</ele>
        <time>2014-05-17T12:05:33Z</time>
      </trkpt>
      <trkpt lat="56.353967" lon="13.668483">
        <ele>108.7</ele>
        <time>2014-05-17T12:05:35Z</time>
      </trkpt>
      <trkpt lat="56.353982" lon="13.668554">
        <ele>108.9</ele>
        <time>2014-05-17T12:05:37Z</time>
      </trkpt>
      <trkpt lat="56.353991" lon="13.668605">
        <ele>109.1</ele>
        <time>2014-05-17T12:05:38Z</time>
      </trkpt>
      <trkpt lat="56.354001" lon="13.66866">
        <ele>109.3</ele>
        <time>2014-05-17T12:05:39Z</time>
      </trkpt>
      <trkpt lat="56.354009" lon="13.668716">
        <ele>109.4</ele>
        <time>2014-05-17T12:05:40Z</time>
      </trkpt>
      <trkpt lat="56.354018" lon="13.668772">
        <ele>109.5</ele>
        <time>2014-05-17T12:05:41Z</time>
      </trkpt>
      <trkpt lat="56.354028" lon="13.66883">
        <ele>109.5</ele>
        <time>2014-05-17T12:05:42Z</time>
      </trkpt>
      <trkpt lat="56.354037" lon="13.668888">
        <ele>109.5</ele>
        <time>2014-05-17T12:05:43Z</time>
      </trkpt>
      <trkpt lat="56.354046" lon="13.668949">
        <ele>109.4</ele>
        <time>2014-05-17T12:05:44Z</time>
      </trkpt>
      <trkpt lat="56.354056" lon="13.669011">
        <ele>109.4</ele>
        <time>2014-05-17T12:05:45Z</time>
      </trkpt>
      <trkpt lat="56.354069" lon="13.669086">
        <ele>109.4</ele>
        <time>2014-05-17T12:05:46Z</time>
      </trkpt>
      <trkpt lat="56.354082" lon="13.669166">
        <ele>109.3</ele>
        <time>2014-05-17T12:05:47Z</time>
      </trkpt>
      <trkpt lat="56.354094" lon="13.669248">
        <ele>109.2</ele>
        <time>2014-05-17T12:05:48Z</time>
      </trkpt>
      <trkpt lat="56.354117" lon="13.669344">
        <ele>109.2</ele>
        <time>2014-05-17T12:05:49Z</time>
      </trkpt>
      <trkpt lat="56.354142" lon="13.669431">
        <ele>109.2</ele>
        <time>2014-05-17T12:05:50Z</time>
      </trkpt>
      <trkpt lat="56.354164" lon="13.669514">
        <ele>109.1</ele>
        <time>2014-05-17T12:05:51Z</time>
      </trkpt>
      <trkpt lat="56.354186" lon="13.669603">
        <ele>109.1</ele>
        <time>2014-05-17T12:05:52Z</time>
      </trkpt>
      <trkpt lat="56.354198" lon="13.669699">
        <ele>108.9</ele>
        <time>2014-05-17T12:05:53Z</time>
      </trkpt>
      <trkpt lat="56.354215" lon="13.669783">
        <ele>108.8</ele>
        <time>2014-05-17T12:05:54Z</time>
      </trkpt>
      <trkpt lat="56.354239" lon="13.66986">
        <ele>108.8</ele>
        <time>2014-05-17T12:05:55Z</time>
      </trkpt>
      <trkpt lat="56.354252" lon="13.669959">
        <ele>108.6</ele>
        <time>2014-05-17T12:05:56Z</time>
      </trkpt>
      <trkpt lat="56.354274" lon="13.670056">
        <ele>108.5</ele>
        <time>2014-05-17T12:05:57Z</time>
      </trkpt>
      <trkpt lat="56.354286" lon="13.670161">
        <ele>108.3</ele>
        <time>2014-05-17T12:05:58Z</time>
      </trkpt>
      <trkpt lat="56.354309" lon="13.670258">
        <ele>108.1</ele>
        <time>2014-05-17T12:05:59Z</time>
      </trkpt>
      <trkpt lat="56.35433" lon="13.670352">
        <ele>108</ele>
        <time>2014-05-17T12:06:00Z</time>
      </trkpt>
      <trkpt lat="56.354345" lon="13.670454">
        <ele>107.8</ele>
        <time>2014-05-17T12:06:01Z</time>
      </trkpt>
      <trkpt lat="56.354351" lon="13.670558">
        <ele>107.7</ele>
        <time>2014-05-17T12:06:02Z</time>
      </trkpt>
      <trkpt lat="56.354365" lon="13.670653">
        <ele>107.6</ele>
        <time>2014-05-17T12:06:03Z</time>
      </trkpt>
      <trkpt lat="56.354377" lon="13.670762">
        <ele>107.5</ele>
        <time>2014-05-17T12:06:04Z</time>
      </trkpt>
      <trkpt lat="56.354397" lon="13.670869">
        <ele>107.4</ele>
        <time>2014-05-17T12:06:05Z</time>
      </trkpt>
      <trkpt lat="56.354419" lon="13.670972">
        <ele>107.3</ele>
        <time>2014-05-17T12:06:06Z</time>
      </trkpt>
      <trkpt lat="56.354439" lon="13.67108">
        <ele>107.1</ele>
        <time>2014-05-17T12:06:07Z</time>
      </trkpt>
      <trkpt lat="56.354462" lon="13.671176">
        <ele>107</ele>
        <time>2014-05-17T12:06:08Z</time>
      </trkpt>
      <trkpt lat="56.35449" lon="13.671266">
        <ele>106.8</ele>
        <time>2014-05-17T12:06:09Z</time>
      </trkpt>
      <trkpt lat="56.354529" lon="13.671358">
        <ele>106.6</ele>
        <time>2014-05-17T12:06:10Z</time>
      </trkpt>
      <trkpt lat="56.354555" lon="13.671432">
        <ele>106.3</ele>
        <time>2014-05-17T12:06:11Z</time>
      </trkpt>
      <trkpt lat="56.35459" lon="13.671503">
        <ele>106.1</ele>
        <time>2014-05-17T12:06:12Z</time>
      </trkpt>
      <trkpt lat="56.354632" lon="13.671568">
        <ele>106.1</ele>
        <time>2014-05-17T12:06:13Z</time>
      </trkpt>
      <trkpt lat="56.354665" lon="13.671619">
        <ele>106</ele>
        <time>2014-05-17T12:06:14Z</time>
      </trkpt>
      <trkpt lat="56.354703" lon="13.671666">
        <ele>106</ele>
        <time>2014-05-17T12:06:15Z</time>
      </trkpt>
      <trkpt lat="56.354745" lon="13.671703">
        <ele>106</ele>
        <time>2014-05-17T12:06:16Z</time>
      </trkpt>
      <trkpt lat="56.354778" lon="13.671742">
        <ele>106</ele>
        <time>2014-05-17T12:06:17Z</time>
      </trkpt>
      <trkpt lat="56.354812" lon="13.671768">
        <ele>106.1</ele>
        <time>2014-05-17T12:06:18Z</time>
      </trkpt>
      <trkpt lat="56.354853" lon="13.671806">
        <ele>106.1</ele>
        <time>2014-05-17T12:06:19Z</time>
      </trkpt>
      <trkpt lat="56.354884" lon="13.671832">
        <ele>106.1</ele>
        <time>2014-05-17T12:06:20Z</time>
      </trkpt>
      <trkpt lat="56.354911" lon="13.671854">
        <ele>106.1</ele>
        <time>2014-05-17T12:06:21Z</time>
      </trkpt>
      <trkpt lat="56.354938" lon="13.671888">
        <ele>106.1</ele>
        <time>2014-05-17T12:06:22Z</time>
      </trkpt>
      <trkpt lat="56.354965" lon="13.671923">
        <ele>106</ele>
        <time>2014-05-17T12:06:23Z</time>
      </trkpt>
      <trkpt lat="56.354992" lon="13.671954">
        <ele>106</ele>
        <time>2014-05-17T12:06:24Z</time>
      </trkpt>
      <trkpt lat="56.355021" lon="13.671985">
        <ele>106</ele>
        <time>2014-05-17T12:06:25Z</time>
      </trkpt>
      <trkpt lat="56.355053" lon="13.672009">
        <ele>106</ele>
        <time>2014-05-17T12:06:26Z</time>
      </trkpt>
      <trkpt lat="56.355088" lon="13.67203">
        <ele>106</ele>
        <time>2014-05-17T12:06:27Z</time>
      </trkpt>
      <trkpt lat="56.355123" lon="13.672062">
        <ele>106</ele>
        <time>2014-05-17T12:06:28Z</time>
      </trkpt>
      <trkpt lat="56.355162" lon="13.672101">
        <ele>106.1</ele>
        <time>2014-05-17T12:06:29Z</time>
      </trkpt>
      <trkpt lat="56.355199" lon="13.672143">
        <ele>106.2</ele>
        <time>2014-05-17T12:06:30Z</time>
      </trkpt>
      <trkpt lat="56.355237" lon="13.672181">
        <ele>106.4</ele>
        <time>2014-05-17T12:06:31Z</time>
      </trkpt>
      <trkpt lat="56.355276" lon="13.672217">
        <ele>106.5</ele>
        <time>2014-05-17T12:06:32Z</time>
      </trkpt>
      <trkpt lat="56.355315" lon="13.672253">
        <ele>106.6</ele>
        <time>2014-05-17T12:06:33Z</time>
      </trkpt>
      <trkpt lat="56.355355" lon="13.672286">
        <ele>106.8</ele>
        <time>2014-05-17T12:06:34Z</time>
      </trkpt>
      <trkpt lat="56.355394" lon="13.672318">
        <ele>106.9</ele>
        <time>2014-05-17T12:06:35Z</time>
      </trkpt>
      <trkpt lat="56.35543" lon="13.672351">
        <ele>107.1</ele>
        <time>2014-05-17T12:06:36Z</time>
      </trkpt>
      <trkpt lat="56.355464" lon="13.672389">
        <ele>107.3</ele>
        <time>2014-05-17T12:06:37Z</time>
      </trkpt>
      <trkpt lat="56.355491" lon="13.672422">
        <ele>107.4</ele>
        <time>2014-05-17T12:06:38Z</time>
      </trkpt>
      <trkpt lat="56.355518" lon="13.672456">
        <ele>107.6</ele>
        <time>2014-05-17T12:06:39Z</time>
      </trkpt>
      <trkpt lat="56.355545" lon="13.672489">
        <ele>107.8</ele>
        <time>2014-05-17T12:06:40Z</time>
      </trkpt>
      <trkpt lat="56.355572" lon="13.672521">
        <ele>107.9</ele>
        <time>2014-05-17T12:06:41Z</time>
      </trkpt>
      <trkpt lat="56.355598" lon="13.67255">
        <ele>108.1</ele>
        <time>2014-05-17T12:06:42Z</time>
      </trkpt>
      <trkpt lat="56.355624" lon="13.672578">
        <ele>108.2</ele>
        <time>2014-05-17T12:06:43Z</time>
      </trkpt>
      <trkpt lat="56.355668" lon="13.672625">
        <ele>108.5</ele>
        <time>2014-05-17T12:06:45Z</time>
      </trkpt>
      <trkpt lat="56.355713" lon="13.672666">
        <ele>108.8</ele>
        <time>2014-05-17T12:06:47Z</time>
      </trkpt>
      <trkpt lat="56.355758" lon="13.672704">
        <ele>109</ele>
        <time>2014-05-17T12:06:49Z</time>
      </trkpt>
      <trkpt lat="56.355806" lon="13.67273">
        <ele>109.3</ele>
        <time>2014-05-17T12:06:51Z</time>
      </trkpt>
      <trkpt lat="56.355854" lon="13.672758">
        <ele>109.6</ele>
        <time>2014-05-17T12:06:53Z</time>
      </trkpt>
      <trkpt lat="56.355912" lon="13.67279">
        <ele>110</ele>
        <time>2014-05-17T12:06:55Z</time>
      </trkpt>
      <trkpt lat="56.355945" lon="13.672805">
        <ele>110.2</ele>
        <time>2014-05-17T12:06:56Z</time>
      </trkpt>
      <trkpt lat="56.355979" lon="13.67282">
        <ele>110.4</ele>
        <time>2014-05-17T12:06:57Z</time>
      </trkpt>
      <trkpt lat="56.356012" lon="13.672836">
        <ele>110.6</ele>
        <time>2014-05-17T12:06:58Z</time>
      </trkpt>
      <trkpt lat="56.356046" lon="13.672849">
        <ele>110.8</ele>
        <time>2014-05-17T12:06:59Z</time>
      </trkpt>
      <trkpt lat="56.356079" lon="13.672862">
        <ele>111</ele>
        <time>2014-05-17T12:07:00Z</time>
      </trkpt>
      <trkpt lat="56.356112" lon="13.672874">
        <ele>111.2</ele>
        <time>2014-05-17T12:07:01Z</time>
      </trkpt>
      <trkpt lat="56.356144" lon="13.672887">
        <ele>111.4</ele>
        <time>2014-05-17T12:07:02Z</time>
      </trkpt>
      <trkpt lat="56.356174" lon="13.672893">
        <ele>111.5</ele>
        <time>2014-05-17T12:07:03Z</time>
      </trkpt>
      <trkpt lat="56.356204" lon="13.672897">
        <ele>111.7</ele>
        <time>2014-05-17T12:07:04Z</time>
      </trkpt>
      <trkpt lat="56.356257" lon="13.672893">
        <ele>112</ele>
        <time>2014-05-17T12:07:06Z</time>
      </trkpt>
      <trkpt lat="56.356311" lon="13.672895">
        <ele>112.4</ele>
        <time>2014-05-17T12:07:08Z</time>
      </trkpt>
      <trkpt lat="56.356339" lon="13.672899">
        <ele>112.5</ele>
        <time>2014-05-17T12:07:09Z</time>
      </trkpt>
      <trkpt lat="56.356367" lon="13.672903">
        <ele>112.7</ele>
        <time>2014-05-17T12:07:10Z</time>
      </trkpt>
      <trkpt lat="56.356396" lon="13.672906">
        <ele>112.9</ele>
        <time>2014-05-17T12:07:11Z</time>
      </trkpt>
      <trkpt lat="56.356425" lon="13.672908">
        <ele>113.1</ele>
        <time>2014-05-17T12:07:12Z</time>
      </trkpt>
      <trkpt lat="56.356455" lon="13.672912">
        <ele>113.2</ele>
        <time>2014-05-17T12:07:13Z</time>
      </trkpt>
      <trkpt lat="56.356484" lon="13.672916">
        <ele>113.4</ele>
        <time>2014-05-17T12:07:14Z</time>
      </trkpt>
      <trkpt lat="56.356511" lon="13.672921">
        <ele>113.6</ele>
        <time>2014-05-17T12:07:15Z</time>
      </trkpt>
      <trkpt lat="56.356539" lon="13.67293">
        <ele>113.7</ele>
        <time>2014-05-17T12:07:16Z</time>
      </trkpt>
      <trkpt lat="56.356568" lon="13.672941">
        <ele>113.9</ele>
        <time>2014-05-17T12:07:17Z</time>
      </trkpt>
      <trkpt lat="56.356597" lon="13.672956">
        <ele>114</ele>
        <time>2014-05-17T12:07:18Z</time>
      </trkpt>
      <trkpt lat="56.356624" lon="13.672978">
        <ele>114.1</ele>
        <time>2014-05-17T12:07:19Z</time>
      </trkpt>
      <trkpt lat="56.356649" lon="13.673007">
        <ele>114.2</ele>
        <time>2014-05-17T12:07:20Z</time>
      </trkpt>
      <trkpt lat="56.356674" lon="13.673036">
        <ele>114.3</ele>
        <time>2014-05-17T12:07:21Z</time>
      </trkpt>
      <trkpt lat="56.3567" lon="13.673056">
        <ele>114.4</ele>
        <time>2014-05-17T12:07:22Z</time>
      </trkpt>
      <trkpt lat="56.356727" lon="13.673065">
        <ele>114.6</ele>
        <time>2014-05-17T12:07:23Z</time>
      </trkpt>
      <trkpt lat="56.356754" lon="13.673068">
        <ele>114.7</ele>
        <time>2014-05-17T12:07:24Z</time>
      </trkpt>
      <trkpt lat="56.356807" lon="13.673068">
        <ele>115</ele>
        <time>2014-05-17T12:07:26Z</time>
      </trkpt>
      <trkpt lat="56.356851" lon="13.673072">
        <ele>115.3</ele>
        <time>2014-05-17T12:07:28Z</time>
      </trkpt>
      <trkpt lat="56.356899" lon="13.673083">
        <ele>115.5</ele>
        <time>2014-05-17T12:07:30Z</time>
      </trkpt>
      <trkpt lat="56.35695" lon="13.673108">
        <ele>115.8</ele>
        <time>2014-05-17T12:07:32Z</time>
      </trkpt>
      <trkpt lat="56.356978" lon="13.673115">
        <ele>115.9</ele>
        <time>2014-05-17T12:07:33Z</time>
      </trkpt>
      <trkpt lat="56.357005" lon="13.673119">
        <ele>116.1</ele>
        <time>2014-05-17T12:07:34Z</time>
      </trkpt>
      <trkpt lat="56.357034" lon="13.673125">
        <ele>116.2</ele>
        <time>2014-05-17T12:07:35Z</time>
      </trkpt>
      <trkpt lat="56.357063" lon="13.673135">
        <ele>116.4</ele>
        <time>2014-05-17T12:07:36Z</time>
      </trkpt>
      <trkpt lat="56.357092" lon="13.673149">
        <ele>116.5</ele>
        <time>2014-05-17T12:07:37Z</time>
      </trkpt>
      <trkpt lat="56.357119" lon="13.673163">
        <ele>116.5</ele>
        <time>2014-05-17T12:07:38Z</time>
      </trkpt>
      <trkpt lat="56.357168" lon="13.673199">
        <ele>116.5</ele>
        <time>2014-05-17T12:07:40Z</time>
      </trkpt>
      <trkpt lat="56.35721" lon="13.673224">
        <ele>116.5</ele>
        <time>2014-05-17T12:07:42Z</time>
      </trkpt>
      <trkpt lat="56.357257" lon="13.673241">
        <ele>116.5</ele>
        <time>2014-05-17T12:07:44Z</time>
      </trkpt>
      <trkpt lat="56.357302" lon="13.673257">
        <ele>116.6</ele>
        <time>2014-05-17T12:07:46Z</time>
      </trkpt>
      <trkpt lat="56.357346" lon="13.67328">
        <ele>116.6</ele>
        <time>2014-05-17T12:07:48Z</time>
      </trkpt>
      <trkpt lat="56.357388" lon="13.673305">
        <ele>116.6</ele>
        <time>2014-05-17T12:07:50Z</time>
      </trkpt>
      <trkpt lat="56.35743" lon="13.673335">
        <ele>116.6</ele>
        <time>2014-05-17T12:07:52Z</time>
      </trkpt>
      <trkpt lat="56.357471" lon="13.673363">
        <ele>116.6</ele>
        <time>2014-05-17T12:07:54Z</time>
      </trkpt>
      <trkpt lat="56.357511" lon="13.673381">
        <ele>116.7</ele>
        <time>2014-05-17T12:07:56Z</time>
      </trkpt>
      <trkpt lat="56.35755" lon="13.673403">
        <ele>116.7</ele>
        <time>2014-05-17T12:07:58Z</time>
      </trkpt>
      <trkpt lat="56.357589" lon="13.67343">
        <ele>116.7</ele>
        <time>2014-05-17T12:08:00Z</time>
      </trkpt>
      <trkpt lat="56.357628" lon="13.673464">
        <ele>116.8</ele>
        <time>2014-05-17T12:08:02Z</time>
      </trkpt>
      <trkpt lat="56.357667" lon="13.673501">
        <ele>116.8</ele>
        <time>2014-05-17T12:08:04Z</time>
      </trkpt>
      <trkpt lat="56.357715" lon="13.673549">
        <ele>116.8</ele>
        <time>2014-05-17T12:08:06Z</time>
      </trkpt>
      <trkpt lat="56.357743" lon="13.673576">
        <ele>116.8</ele>
        <time>2014-05-17T12:08:07Z</time>
      </trkpt>
      <trkpt lat="56.357771" lon="13.673607">
        <ele>116.9</ele>
        <time>2014-05-17T12:08:08Z</time>
      </trkpt>
      <trkpt lat="56.3578" lon="13.673639">
        <ele>116.9</ele>
        <time>2014-05-17T12:08:09Z</time>
      </trkpt>
      <trkpt lat="56.357834" lon="13.673675">
        <ele>116.9</ele>
        <time>2014-05-17T12:08:10Z</time>
      </trkpt>
      <trkpt lat="56.357866" lon="13.673706">
        <ele>116.9</ele>
        <time>2014-05-17T12:08:11Z</time>
      </trkpt>
      <trkpt lat="56.357896" lon="13.673739">
        <ele>117</ele>
        <time>2014-05-17T12:08:12Z</time>
      </trkpt>
      <trkpt lat="56.357923" lon="13.673772">
        <ele>117</ele>
        <time>2014-05-17T12:08:13Z</time>
      </trkpt>
      <trkpt lat="56.357952" lon="13.673807">
        <ele>116.9</ele>
        <time>2014-05-17T12:08:14Z</time>
      </trkpt>
      <trkpt lat="56.357983" lon="13.673842">
        <ele>116.8</ele>
        <time>2014-05-17T12:08:15Z</time>
      </trkpt>
      <trkpt lat="56.358017" lon="13.673877">
        <ele>116.7</ele>
        <time>2014-05-17T12:08:16Z</time>
      </trkpt>
      <trkpt lat="56.35806" lon="13.673917">
        <ele>116.5</ele>
        <time>2014-05-17T12:08:17Z</time>
      </trkpt>
      <trkpt lat="56.358104" lon="13.673958">
        <ele>116.4</ele>
        <time>2014-05-17T12:08:18Z</time>
      </trkpt>
      <trkpt lat="56.358164" lon="13.674012">
        <ele>116.2</ele>
        <time>2014-05-17T12:08:19Z</time>
      </trkpt>
      <trkpt lat="56.358204" lon="13.674043">
        <ele>116.1</ele>
        <time>2014-05-17T12:08:20Z</time>
      </trkpt>
      <trkpt lat="56.358245" lon="13.674081">
        <ele>116</ele>
        <time>2014-05-17T12:08:21Z</time>
      </trkpt>
      <trkpt lat="56.358284" lon="13.67412">
        <ele>115.9</ele>
        <time>2014-05-17T12:08:22Z</time>
      </trkpt>
      <trkpt lat="56.358321" lon="13.674162">
        <ele>115.8</ele>
        <time>2014-05-17T12:08:23Z</time>
      </trkpt>
      <trkpt lat="56.358357" lon="13.674204">
        <ele>115.7</ele>
        <time>2014-05-17T12:08:24Z</time>
      </trkpt>
      <trkpt lat="56.358395" lon="13.674274">
        <ele>115.6</ele>
        <time>2014-05-17T12:08:25Z</time>
      </trkpt>
      <trkpt lat="56.358429" lon="13.674369">
        <ele>115.6</ele>
        <time>2014-05-17T12:08:26Z</time>
      </trkpt>
      <trkpt lat="56.358469" lon="13.674471">
        <ele>115.6</ele>
        <time>2014-05-17T12:08:27Z</time>
      </trkpt>
      <trkpt lat="56.358503" lon="13.674571">
        <ele>115.6</ele>
        <time>2014-05-17T12:08:28Z</time>
      </trkpt>
      <trkpt lat="56.358535" lon="13.674677">
        <ele>115.6</ele>
        <time>2014-05-17T12:08:29Z</time>
      </trkpt>
      <trkpt lat="56.358564" lon="13.67481">
        <ele>115.6</ele>
        <time>2014-05-17T12:08:30Z</time>
      </trkpt>
      <trkpt lat="56.358592" lon="13.674917">
        <ele>115.6</ele>
        <time>2014-05-17T12:08:31Z</time>
      </trkpt>
      <trkpt lat="56.35862" lon="13.675023">
        <ele>115.7</ele>
        <time>2014-05-17T12:08:32Z</time>
      </trkpt>
      <trkpt lat="56.358651" lon="13.675132">
        <ele>115.7</ele>
        <time>2014-05-17T12:08:33Z</time>
      </trkpt>
      <trkpt lat="56.358679" lon="13.675201">
        <ele>115.8</ele>
        <time>2014-05-17T12:08:34Z</time>
      </trkpt>
      <trkpt lat="56.358706" lon="13.675256">
        <ele>115.8</ele>
        <time>2014-05-17T12:08:35Z</time>
      </trkpt>
      <trkpt lat="56.35873" lon="13.675313">
        <ele>115.9</ele>
        <time>2014-05-17T12:08:36Z</time>
      </trkpt>
      <trkpt lat="56.358764" lon="13.675372">
        <ele>116</ele>
        <time>2014-05-17T12:08:37Z</time>
      </trkpt>
      <trkpt lat="56.358779" lon="13.675428">
        <ele>116</ele>
        <time>2014-05-17T12:08:38Z</time>
      </trkpt>
      <trkpt lat="56.358776" lon="13.675484">
        <ele>116</ele>
        <time>2014-05-17T12:08:39Z</time>
      </trkpt>
      <trkpt lat="56.35876" lon="13.675562">
        <ele>115.8</ele>
        <time>2014-05-17T12:08:41Z</time>
      </trkpt>
      <trkpt lat="56.358738" lon="13.67563">
        <ele>115.7</ele>
        <time>2014-05-17T12:08:43Z</time>
      </trkpt>
      <trkpt lat="56.358714" lon="13.675655">
        <ele>115.7</ele>
        <time>2014-05-17T12:08:44Z</time>
      </trkpt>
      <trkpt lat="56.358683" lon="13.675693">
        <ele>115.6</ele>
        <time>2014-05-17T12:08:46Z</time>
      </trkpt>
      <trkpt lat="56.358649" lon="13.675738">
        <ele>115.6</ele>
        <time>2014-05-17T12:08:48Z</time>
      </trkpt>
      <trkpt lat="56.358602" lon="13.675813">
        <ele>115.4</ele>
        <time>2014-05-17T12:08:50Z</time>
      </trkpt>
      <trkpt lat="56.358573" lon="13.67586">
        <ele>115.4</ele>
        <time>2014-05-17T12:08:51Z</time>
      </trkpt>
      <trkpt lat="56.358544" lon="13.675917">
        <ele>115.3</ele>
        <time>2014-05-17T12:08:52Z</time>
      </trkpt>
      <trkpt lat="56.358516" lon="13.675982">
        <ele>115.1</ele>
        <time>2014-05-17T12:08:53Z</time>
      </trkpt>
      <trkpt lat="56.358491" lon="13.676054">
        <ele>115</ele>
        <time>2014-05-17T12:08:54Z</time>
      </trkpt>
      <trkpt lat="56.358482" lon="13.676158">
        <ele>114.8</ele>
        <time>2014-05-17T12:08:55Z</time>
      </trkpt>
      <trkpt lat="56.358464" lon="13.676243">
        <ele>114.7</ele>
        <time>2014-05-17T12:08:56Z</time>
      </trkpt>
      <trkpt lat="56.358458" lon="13.676328">
        <ele>114.4</ele>
        <time>2014-05-17T12:08:57Z</time>
      </trkpt>
      <trkpt lat="56.35845" lon="13.67641">
        <ele>114.2</ele>
        <time>2014-05-17T12:08:58Z</time>
      </trkpt>
      <trkpt lat="56.358442" lon="13.676502">
        <ele>113.9</ele>
        <time>2014-05-17T12:08:59Z</time>
      </trkpt>
      <trkpt lat="56.35844" lon="13.676579">
        <ele>113.7</ele>
        <time>2014-05-17T12:09:00Z</time>
      </trkpt>
      <trkpt lat="56.358433" lon="13.676659">
        <ele>113.5</ele>
        <time>2014-05-17T12:09:01Z</time>
      </trkpt>
      <trkpt lat="56.358416" lon="13.676733">
        <ele>113.2</ele>
        <time>2014-05-17T12:09:02Z</time>
      </trkpt>
      <trkpt lat="56.358424" lon="13.676804">
        <ele>113</ele>
        <time>2014-05-17T12:09:03Z</time>
      </trkpt>
      <trkpt lat="56.358412" lon="13.676871">
        <ele>112.8</ele>
        <time>2014-05-17T12:09:04Z</time>
      </trkpt>
      <trkpt lat="56.358402" lon="13.676923">
        <ele>112.6</ele>
        <time>2014-05-17T12:09:05Z</time>
      </trkpt>
      <trkpt lat="56.35839" lon="13.67698">
        <ele>112.4</ele>
        <time>2014-05-17T12:09:06Z</time>
      </trkpt>
      <trkpt lat="56.358382" lon="13.677038">
        <ele>112.2</ele>
        <time>2014-05-17T12:09:07Z</time>
      </trkpt>
      <trkpt lat="56.358376" lon="13.677087">
        <ele>112.1</ele>
        <time>2014-05-17T12:09:08Z</time>
      </trkpt>
      <trkpt lat="56.358363" lon="13.677141">
        <ele>112.1</ele>
        <time>2014-05-17T12:09:09Z</time>
      </trkpt>
      <trkpt lat="56.35835" lon="13.677198">
        <ele>112.1</ele>
        <time>2014-05-17T12:09:10Z</time>
      </trkpt>
      <trkpt lat="56.358337" lon="13.677258">
        <ele>112.1</ele>
        <time>2014-05-17T12:09:11Z</time>
      </trkpt>
      <trkpt lat="56.358311" lon="13.677316">
        <ele>112.1</ele>
        <time>2014-05-17T12:09:12Z</time>
      </trkpt>
      <trkpt lat="56.358277" lon="13.677374">
        <ele>112</ele>
        <time>2014-05-17T12:09:13Z</time>
      </trkpt>
      <trkpt lat="56.358241" lon="13.677422">
        <ele>111.9</ele>
        <time>2014-05-17T12:09:14Z</time>
      </trkpt>
      <trkpt lat="56.358205" lon="13.677467">
        <ele>111.9</ele>
        <time>2014-05-17T12:09:15Z</time>
      </trkpt>
      <trkpt lat="56.358176" lon="13.677515">
        <ele>111.8</ele>
        <time>2014-05-17T12:09:16Z</time>
      </trkpt>
      <trkpt lat="56.358151" lon="13.677566">
        <ele>111.7</ele>
        <time>2014-05-17T12:09:17Z</time>
      </trkpt>
      <trkpt lat="56.358133" lon="13.677618">
        <ele>111.7</ele>
        <time>2014-05-17T12:09:18Z</time>
      </trkpt>
      <trkpt lat="56.358121" lon="13.677674">
        <ele>111.7</ele>
        <time>2014-05-17T12:09:19Z</time>
      </trkpt>
      <trkpt lat="56.358113" lon="13.677734">
        <ele>111.7</ele>
        <time>2014-05-17T12:09:20Z</time>
      </trkpt>
      <trkpt lat="56.358117" lon="13.677797">
        <ele>111.7</ele>
        <time>2014-05-17T12:09:21Z</time>
      </trkpt>
      <trkpt lat="56.358128" lon="13.677859">
        <ele>111.7</ele>
        <time>2014-05-17T12:09:22Z</time>
      </trkpt>
      <trkpt lat="56.358143" lon="13.677919">
        <ele>111.8</ele>
        <time>2014-05-17T12:09:23Z</time>
      </trkpt>
      <trkpt lat="56.358159" lon="13.677979">
        <ele>111.9</ele>
        <time>2014-05-17T12:09:24Z</time>
      </trkpt>
      <trkpt lat="56.358178" lon="13.678037">
        <ele>112.1</ele>
        <time>2014-05-17T12:09:25Z</time>
      </trkpt>
      <trkpt lat="56.358199" lon="13.678094">
        <ele>112.2</ele>
        <time>2014-05-17T12:09:26Z</time>
      </trkpt>
      <trkpt lat="56.358221" lon="13.678152">
        <ele>112.4</ele>
        <time>2014-05-17T12:09:27Z</time>
      </trkpt>
      <trkpt lat="56.358243" lon="13.678208">
        <ele>112.5</ele>
        <time>2014-05-17T12:09:28Z</time>
      </trkpt>
      <trkpt lat="56.358264" lon="13.678262">
        <ele>112.7</ele>
        <time>2014-05-17T12:09:29Z</time>
      </trkpt>
      <trkpt lat="56.358285" lon="13.678317">
        <ele>112.8</ele>
        <time>2014-05-17T12:09:30Z</time>
      </trkpt>
      <trkpt lat="56.358303" lon="13.678375">
        <ele>112.9</ele>
        <time>2014-05-17T12:09:31Z</time>
      </trkpt>
      <trkpt lat="56.358321" lon="13.678437">
        <ele>113.1</ele>
        <time>2014-05-17T12:09:32Z</time>
      </trkpt>
      <trkpt lat="56.358338" lon="13.678502">
        <ele>113.2</ele>
        <time>2014-05-17T12:09:33Z</time>
      </trkpt>
      <trkpt lat="56.358359" lon="13.678574">
        <ele>113.4</ele>
        <time>2014-05-17T12:09:34Z</time>
      </trkpt>
      <trkpt lat="56.358377" lon="13.678647">
        <ele>113.5</ele>
        <time>2014-05-17T12:09:35Z</time>
      </trkpt>
      <trkpt lat="56.358397" lon="13.678716">
        <ele>113.7</ele>
        <time>2014-05-17T12:09:36Z</time>
      </trkpt>
      <trkpt lat="56.358417" lon="13.678783">
        <ele>113.8</ele>
        <time>2014-05-17T12:09:37Z</time>
      </trkpt>
      <trkpt lat="56.358441" lon="13.678842">
        <ele>113.9</ele>
        <time>2014-05-17T12:09:38Z</time>
      </trkpt>
      <trkpt lat="56.358466" lon="13.678899">
        <ele>113.9</ele>
        <time>2014-05-17T12:09:39Z</time>
      </trkpt>
      <trkpt lat="56.358493" lon="13.678954">
        <ele>114</ele>
        <time>2014-05-17T12:09:40Z</time>
      </trkpt>
      <trkpt lat="56.35852" lon="13.679008">
        <ele>114</ele>
        <time>2014-05-17T12:09:41Z</time>
      </trkpt>
      <trkpt lat="56.358552" lon="13.679055">
        <ele>114</ele>
        <time>2014-05-17T12:09:42Z</time>
      </trkpt>
      <trkpt lat="56.35859" lon="13.679095">
        <ele>114</ele>
        <time>2014-05-17T12:09:43Z</time>
      </trkpt>
      <trkpt lat="56.35863" lon="13.679125">
        <ele>114</ele>
        <time>2014-05-17T12:09:44Z</time>
      </trkpt>
      <trkpt lat="56.358669" lon="13.679147">
        <ele>114</ele>
        <time>2014-05-17T12:09:45Z</time>
      </trkpt>
      <trkpt lat="56.358705" lon="13.679163">
        <ele>114</ele>
        <time>2014-05-17T12:09:46Z</time>
      </trkpt>
      <trkpt lat="56.35875" lon="13.679177">
        <ele>114</ele>
        <time>2014-05-17T12:09:48Z</time>
      </trkpt>
      <trkpt lat="56.358797" lon="13.679205">
        <ele>114</ele>
        <time>2014-05-17T12:09:50Z</time>
      </trkpt>
      <trkpt lat="56.35885" lon="13.679236">
        <ele>114.1</ele>
        <time>2014-05-17T12:09:52Z</time>
      </trkpt>
      <trkpt lat="56.358891" lon="13.679263">
        <ele>114.1</ele>
        <time>2014-05-17T12:09:53Z</time>
      </trkpt>
      <trkpt lat="56.358934" lon="13.679295">
        <ele>114.1</ele>
        <time>2014-05-17T12:09:54Z</time>
      </trkpt>
      <trkpt lat="56.358978" lon="13.679323">
        <ele>114.2</ele>
        <time>2014-05-17T12:09:55Z</time>
      </trkpt>
      <trkpt lat="56.359023" lon="13.679347">
        <ele>114.2</ele>
        <time>2014-05-17T12:09:56Z</time>
      </trkpt>
      <trkpt lat="56.359068" lon="13.679367">
        <ele>114.3</ele>
        <time>2014-05-17T12:09:57Z</time>
      </trkpt>
      <trkpt lat="56.359121" lon="13.679378">
        <ele>114.4</ele>
        <time>2014-05-17T12:09:58Z</time>
      </trkpt>
      <trkpt lat="56.359175" lon="13.679399">
        <ele>114.5</ele>
        <time>2014-05-17T12:09:59Z</time>
      </trkpt>
      <trkpt lat="56.359245" lon="13.679399">
        <ele>114.6</ele>
        <time>2014-05-17T12:10:00Z</time>
      </trkpt>
      <trkpt lat="56.359305" lon="13.67936">
        <ele>114.9</ele>
        <time>2014-05-17T12:10:02Z</time>
      </trkpt>
      <trkpt lat="56.359338" lon="13.679357">
        <ele>115</ele>
        <time>2014-05-17T12:10:03Z</time>
      </trkpt>
      <trkpt lat="56.359378" lon="13.679374">
        <ele>115</ele>
        <time>2014-05-17T12:10:04Z</time>
      </trkpt>
      <trkpt lat="56.359426" lon="13.679389">
        <ele>115.1</ele>
        <time>2014-05-17T12:10:05Z</time>
      </trkpt>
      <trkpt lat="56.359455" lon="13.679377">
        <ele>115.2</ele>
        <time>2014-05-17T12:10:06Z</time>
      </trkpt>
      <trkpt lat="56.359494" lon="13.679357">
        <ele>115.3</ele>
        <time>2014-05-17T12:10:07Z</time>
      </trkpt>
      <trkpt lat="56.359527" lon="13.679331">
        <ele>115.5</ele>
        <time>2014-05-17T12:10:08Z</time>
      </trkpt>
      <trkpt lat="56.359562" lon="13.679321">
        <ele>115.6</ele>
        <time>2014-05-17T12:10:09Z</time>
      </trkpt>
      <trkpt lat="56.359593" lon="13.679315">
        <ele>115.7</ele>
        <time>2014-05-17T12:10:10Z</time>
      </trkpt>
      <trkpt lat="56.359644" lon="13.679293">
        <ele>115.7</ele>
        <time>2014-05-17T12:10:12Z</time>
      </trkpt>
      <trkpt lat="56.359688" lon="13.679248">
        <ele>115.9</ele>
        <time>2014-05-17T12:10:14Z</time>
      </trkpt>
      <trkpt lat="56.35971" lon="13.67921">
        <ele>116</ele>
        <time>2014-05-17T12:10:15Z</time>
      </trkpt>
      <trkpt lat="56.359732" lon="13.679169">
        <ele>116.1</ele>
        <time>2014-05-17T12:10:16Z</time>
      </trkpt>
      <trkpt lat="56.359756" lon="13.679131">
        <ele>116.2</ele>
        <time>2014-05-17T12:10:17Z</time>
      </trkpt>
      <trkpt lat="56.35978" lon="13.679094">
        <ele>116.3</ele>
        <time>2014-05-17T12:10:18Z</time>
      </trkpt>
      <trkpt lat="56.359807" lon="13.679057">
        <ele>116.4</ele>
        <time>2014-05-17T12:10:19Z</time>
      </trkpt>
      <trkpt lat="56.35983" lon="13.679027">
        <ele>116.4</ele>
        <time>2014-05-17T12:10:20Z</time>
      </trkpt>
      <trkpt lat="56.359865" lon="13.678993">
        <ele>116.5</ele>
        <time>2014-05-17T12:10:21Z</time>
      </trkpt>
      <trkpt lat="56.359892" lon="13.678963">
        <ele>116.6</ele>
        <time>2014-05-17T12:10:22Z</time>
      </trkpt>
      <trkpt lat="56.359917" lon="13.678934">
        <ele>116.6</ele>
        <time>2014-05-17T12:10:23Z</time>
      </trkpt>
      <trkpt lat="56.359941" lon="13.678906">
        <ele>116.7</ele>
        <time>2014-05-17T12:10:24Z</time>
      </trkpt>
      <trkpt lat="56.359966" lon="13.678878">
        <ele>116.8</ele>
        <time>2014-05-17T12:10:25Z</time>
      </trkpt>
      <trkpt lat="56.35999" lon="13.678847">
        <ele>116.8</ele>
        <time>2014-05-17T12:10:26Z</time>
      </trkpt>
      <trkpt lat="56.360013" lon="13.678811">
        <ele>116.9</ele>
        <time>2014-05-17T12:10:27Z</time>
      </trkpt>
      <trkpt lat="56.360035" lon="13.678775">
        <ele>117</ele>
        <time>2014-05-17T12:10:28Z</time>
      </trkpt>
      <trkpt lat="56.360058" lon="13.678741">
        <ele>117</ele>
        <time>2014-05-17T12:10:29Z</time>
      </trkpt>
      <trkpt lat="56.36008" lon="13.67871">
        <ele>117.1</ele>
        <time>2014-05-17T12:10:30Z</time>
      </trkpt>
      <trkpt lat="56.360102" lon="13.678678">
        <ele>117.1</ele>
        <time>2014-05-17T12:10:31Z</time>
      </trkpt>
      <trkpt lat="56.360124" lon="13.678647">
        <ele>117.2</ele>
        <time>2014-05-17T12:10:32Z</time>
      </trkpt>
      <trkpt lat="56.360157" lon="13.678599">
        <ele>117.2</ele>
        <time>2014-05-17T12:10:34Z</time>
      </trkpt>
      <trkpt lat="56.360185" lon="13.678576">
        <ele>117.3</ele>
        <time>2014-05-17T12:10:36Z</time>
      </trkpt>
      <trkpt lat="56.36022" lon="13.67861">
        <ele>117.3</ele>
        <time>2014-05-17T12:10:38Z</time>
      </trkpt>
      <trkpt lat="56.360236" lon="13.678652">
        <ele>117.2</ele>
        <time>2014-05-17T12:10:39Z</time>
      </trkpt>
      <trkpt lat="56.36025" lon="13.678702">
        <ele>117.1</ele>
        <time>2014-05-17T12:10:40Z</time>
      </trkpt>
      <trkpt lat="56.360266" lon="13.678771">
        <ele>117</ele>
        <time>2014-05-17T12:10:41Z</time>
      </trkpt>
      <trkpt lat="56.360281" lon="13.678843">
        <ele>116.9</ele>
        <time>2014-05-17T12:10:42Z</time>
      </trkpt>
      <trkpt lat="56.360296" lon="13.678917">
        <ele>116.8</ele>
        <time>2014-05-17T12:10:43Z</time>
      </trkpt>
      <trkpt lat="56.360312" lon="13.678985">
        <ele>116.7</ele>
        <time>2014-05-17T12:10:44Z</time>
      </trkpt>
      <trkpt lat="56.360329" lon="13.67905">
        <ele>116.6</ele>
        <time>2014-05-17T12:10:45Z</time>
      </trkpt>
      <trkpt lat="56.360345" lon="13.679114">
        <ele>116.5</ele>
        <time>2014-05-17T12:10:46Z</time>
      </trkpt>
      <trkpt lat="56.36036" lon="13.679175">
        <ele>116.5</ele>
        <time>2014-05-17T12:10:47Z</time>
      </trkpt>
      <trkpt lat="56.360373" lon="13.679232">
        <ele>116.4</ele>
        <time>2014-05-17T12:10:48Z</time>
      </trkpt>
      <trkpt lat="56.360387" lon="13.679278">
        <ele>116.3</ele>
        <time>2014-05-17T12:10:49Z</time>
      </trkpt>
      <trkpt lat="56.360401" lon="13.679323">
        <ele>116.3</ele>
        <time>2014-05-17T12:10:50Z</time>
      </trkpt>
      <trkpt lat="56.360416" lon="13.679367">
        <ele>116.3</ele>
        <time>2014-05-17T12:10:51Z</time>
      </trkpt>
      <trkpt lat="56.360431" lon="13.679412">
        <ele>116.2</ele>
        <time>2014-05-17T12:10:52Z</time>
      </trkpt>
      <trkpt lat="56.360445" lon="13.679459">
        <ele>116.2</ele>
        <time>2014-05-17T12:10:53Z</time>
      </trkpt>
      <trkpt lat="56.360457" lon="13.679508">
        <ele>116.1</ele>
        <time>2014-05-17T12:10:54Z</time>
      </trkpt>
      <trkpt lat="56.360472" lon="13.679557">
        <ele>116.1</ele>
        <time>2014-05-17T12:10:55Z</time>
      </trkpt>
      <trkpt lat="56.360488" lon="13.679605">
        <ele>116</ele>
        <time>2014-05-17T12:10:56Z</time>
      </trkpt>
      <trkpt lat="56.360507" lon="13.679653">
        <ele>116</ele>
        <time>2014-05-17T12:10:57Z</time>
      </trkpt>
      <trkpt lat="56.360528" lon="13.679706">
        <ele>115.9</ele>
        <time>2014-05-17T12:10:58Z</time>
      </trkpt>
      <trkpt lat="56.360554" lon="13.679773">
        <ele>115.7</ele>
        <time>2014-05-17T12:10:59Z</time>
      </trkpt>
      <trkpt lat="56.36058" lon="13.679842">
        <ele>115.6</ele>
        <time>2014-05-17T12:11:00Z</time>
      </trkpt>
      <trkpt lat="56.360607" lon="13.679911">
        <ele>115.5</ele>
        <time>2014-05-17T12:11:01Z</time>
      </trkpt>
      <trkpt lat="56.360636" lon="13.679978">
        <ele>115.4</ele>
        <time>2014-05-17T12:11:02Z</time>
      </trkpt>
      <trkpt lat="56.360683" lon="13.680069">
        <ele>115.3</ele>
        <time>2014-05-17T12:11:03Z</time>
      </trkpt>
      <trkpt lat="56.360711" lon="13.680147">
        <ele>115.2</ele>
        <time>2014-05-17T12:11:04Z</time>
      </trkpt>
      <trkpt lat="56.360731" lon="13.680251">
        <ele>115.1</ele>
        <time>2014-05-17T12:11:05Z</time>
      </trkpt>
      <trkpt lat="56.360746" lon="13.680357">
        <ele>114.9</ele>
        <time>2014-05-17T12:11:06Z</time>
      </trkpt>
      <trkpt lat="56.360754" lon="13.680458">
        <ele>114.8</ele>
        <time>2014-05-17T12:11:07Z</time>
      </trkpt>
      <trkpt lat="56.36075" lon="13.680569">
        <ele>114.8</ele>
        <time>2014-05-17T12:11:08Z</time>
      </trkpt>
      <trkpt lat="56.36075" lon="13.680685">
        <ele>114.8</ele>
        <time>2014-05-17T12:11:09Z</time>
      </trkpt>
      <trkpt lat="56.360743" lon="13.680795">
        <ele>114.8</ele>
        <time>2014-05-17T12:11:10Z</time>
      </trkpt>
      <trkpt lat="56.360746" lon="13.680903">
        <ele>114.8</ele>
        <time>2014-05-17T12:11:11Z</time>
      </trkpt>
      <trkpt lat="56.36074" lon="13.681006">
        <ele>114.8</ele>
        <time>2014-05-17T12:11:12Z</time>
      </trkpt>
      <trkpt lat="56.360742" lon="13.681102">
        <ele>114.8</ele>
        <time>2014-05-17T12:11:13Z</time>
      </trkpt>
      <trkpt lat="56.360724" lon="13.681189">
        <ele>114.7</ele>
        <time>2014-05-17T12:11:14Z</time>
      </trkpt>
      <trkpt lat="56.360714" lon="13.681279">
        <ele>114.7</ele>
        <time>2014-05-17T12:11:15Z</time>
      </trkpt>
      <trkpt lat="56.360708" lon="13.681375">
        <ele>114.6</ele>
        <time>2014-05-17T12:11:16Z</time>
      </trkpt>
      <trkpt lat="56.360718" lon="13.681458">
        <ele>114.6</ele>
        <time>2014-05-17T12:11:17Z</time>
      </trkpt>
      <trkpt lat="56.360716" lon="13.681534">
        <ele>114.6</ele>
        <time>2014-05-17T12:11:18Z</time>
      </trkpt>
      <trkpt lat="56.360723" lon="13.681615">
        <ele>114.6</ele>
        <time>2014-05-17T12:11:19Z</time>
      </trkpt>
      <trkpt lat="56.36073" lon="13.681684">
        <ele>114.6</ele>
        <time>2014-05-17T12:11:20Z</time>
      </trkpt>
      <trkpt lat="56.36074" lon="13.68175">
        <ele>114.5</ele>
        <time>2014-05-17T12:11:21Z</time>
      </trkpt>
      <trkpt lat="56.360753" lon="13.681819">
        <ele>114.5</ele>
        <time>2014-05-17T12:11:22Z</time>
      </trkpt>
      <trkpt lat="56.360756" lon="13.681874">
        <ele>114.5</ele>
        <time>2014-05-17T12:11:23Z</time>
      </trkpt>
      <trkpt lat="56.360761" lon="13.681926">
        <ele>114.5</ele>
        <time>2014-05-17T12:11:24Z</time>
      </trkpt>
      <trkpt lat="56.360772" lon="13.681986">
        <ele>114.5</ele>
        <time>2014-05-17T12:11:25Z</time>
      </trkpt>
      <trkpt lat="56.360785" lon="13.682046">
        <ele>114.5</ele>
        <time>2014-05-17T12:11:26Z</time>
      </trkpt>
      <trkpt lat="56.36081" lon="13.682105">
        <ele>114.5</ele>
        <time>2014-05-17T12:11:27Z</time>
      </trkpt>
      <trkpt lat="56.360821" lon="13.682169">
        <ele>114.5</ele>
        <time>2014-05-17T12:11:28Z</time>
      </trkpt>
      <trkpt lat="56.360831" lon="13.682239">
        <ele>114.6</ele>
        <time>2014-05-17T12:11:29Z</time>
      </trkpt>
      <trkpt lat="56.36084" lon="13.682312">
        <ele>114.6</ele>
        <time>2014-05-17T12:11:30Z</time>
      </trkpt>
      <trkpt lat="56.360849" lon="13.682397">
        <ele>114.7</ele>
        <time>2014-05-17T12:11:31Z</time>
      </trkpt>
      <trkpt lat="56.360856" lon="13.68249">
        <ele>114.8</ele>
        <time>2014-05-17T12:11:32Z</time>
      </trkpt>
      <trkpt lat="56.360868" lon="13.682583">
        <ele>114.8</ele>
        <time>2014-05-17T12:11:33Z</time>
      </trkpt>
      <trkpt lat="56.360875" lon="13.682671">
        <ele>114.9</ele>
        <time>2014-05-17T12:11:34Z</time>
      </trkpt>
      <trkpt lat="56.360884" lon="13.68276">
        <ele>114.9</ele>
        <time>2014-05-17T12:11:35Z</time>
      </trkpt>
      <trkpt lat="56.360892" lon="13.682846">
        <ele>115</ele>
        <time>2014-05-17T12:11:36Z</time>
      </trkpt>
      <trkpt lat="56.360899" lon="13.682933">
        <ele>115</ele>
        <time>2014-05-17T12:11:37Z</time>
      </trkpt>
      <trkpt lat="56.360905" lon="13.68302">
        <ele>115.1</ele>
        <time>2014-05-17T12:11:38Z</time>
      </trkpt>
      <trkpt lat="56.36092" lon="13.683099">
        <ele>115.2</ele>
        <time>2014-05-17T12:11:39Z</time>
      </trkpt>
      <trkpt lat="56.36094" lon="13.683177">
        <ele>115.2</ele>
        <time>2014-05-17T12:11:40Z</time>
      </trkpt>
      <trkpt lat="56.360965" lon="13.68325">
        <ele>115.3</ele>
        <time>2014-05-17T12:11:41Z</time>
      </trkpt>
      <trkpt lat="56.360994" lon="13.683328">
        <ele>115.3</ele>
        <time>2014-05-17T12:11:42Z</time>
      </trkpt>
      <trkpt lat="56.361031" lon="13.683414">
        <ele>115.3</ele>
        <time>2014-05-17T12:11:43Z</time>
      </trkpt>
      <trkpt lat="56.361055" lon="13.683496">
        <ele>115.3</ele>
        <time>2014-05-17T12:11:44Z</time>
      </trkpt>
      <trkpt lat="56.361078" lon="13.683576">
        <ele>115.3</ele>
        <time>2014-05-17T12:11:45Z</time>
      </trkpt>
      <trkpt lat="56.361111" lon="13.683655">
        <ele>115.3</ele>
        <time>2014-05-17T12:11:46Z</time>
      </trkpt>
      <trkpt lat="56.36114" lon="13.683727">
        <ele>115.3</ele>
        <time>2014-05-17T12:11:47Z</time>
      </trkpt>
      <trkpt lat="56.361173" lon="13.683802">
        <ele>115.3</ele>
        <time>2014-05-17T12:11:48Z</time>
      </trkpt>
      <trkpt lat="56.361205" lon="13.683877">
        <ele>115.4</ele>
        <time>2014-05-17T12:11:49Z</time>
      </trkpt>
      <trkpt lat="56.361227" lon="13.683959">
        <ele>115.5</ele>
        <time>2014-05-17T12:11:50Z</time>
      </trkpt>
      <trkpt lat="56.361261" lon="13.68403">
        <ele>115.7</ele>
        <time>2014-05-17T12:11:51Z</time>
      </trkpt>
      <trkpt lat="56.361293" lon="13.684105">
        <ele>115.9</ele>
        <time>2014-05-17T12:11:52Z</time>
      </trkpt>
      <trkpt lat="56.361329" lon="13.684173">
        <ele>116.1</ele>
        <time>2014-05-17T12:11:53Z</time>
      </trkpt>
      <trkpt lat="56.361355" lon="13.684228">
        <ele>116.2</ele>
        <time>2014-05-17T12:11:54Z</time>
      </trkpt>
      <trkpt lat="56.361381" lon="13.684296">
        <ele>116.4</ele>
        <time>2014-05-17T12:11:55Z</time>
      </trkpt>
      <trkpt lat="56.361418" lon="13.684352">
        <ele>116.5</ele>
        <time>2014-05-17T12:11:56Z</time>
      </trkpt>
      <trkpt lat="56.361448" lon="13.684388">
        <ele>116.6</ele>
        <time>2014-05-17T12:11:57Z</time>
      </trkpt>
      <trkpt lat="56.361486" lon="13.684445">
        <ele>116.7</ele>
        <time>2014-05-17T12:11:58Z</time>
      </trkpt>
      <trkpt lat="56.361517" lon="13.684495">
        <ele>116.8</ele>
        <time>2014-05-17T12:11:59Z</time>
      </trkpt>
      <trkpt lat="56.361539" lon="13.684547">
        <ele>116.9</ele>
        <time>2014-05-17T12:12:00Z</time>
      </trkpt>
      <trkpt lat="56.361562" lon="13.684594">
        <ele>117</ele>
        <time>2014-05-17T12:12:01Z</time>
      </trkpt>
      <trkpt lat="56.361585" lon="13.684647">
        <ele>117.1</ele>
        <time>2014-05-17T12:12:02Z</time>
      </trkpt>
      <trkpt lat="56.361624" lon="13.684701">
        <ele>117.2</ele>
        <time>2014-05-17T12:12:03Z</time>
      </trkpt>
      <trkpt lat="56.361655" lon="13.684756">
        <ele>117.3</ele>
        <time>2014-05-17T12:12:04Z</time>
      </trkpt>
      <trkpt lat="56.361685" lon="13.684813">
        <ele>117.4</ele>
        <time>2014-05-17T12:12:05Z</time>
      </trkpt>
      <trkpt lat="56.361726" lon="13.684885">
        <ele>117.5</ele>
        <time>2014-05-17T12:12:06Z</time>
      </trkpt>
      <trkpt lat="56.361775" lon="13.684938">
        <ele>117.6</ele>
        <time>2014-05-17T12:12:07Z</time>
      </trkpt>
      <trkpt lat="56.361825" lon="13.68499">
        <ele>117.6</ele>
        <time>2014-05-17T12:12:08Z</time>
      </trkpt>
      <trkpt lat="56.361857" lon="13.685069">
        <ele>117.7</ele>
        <time>2014-05-17T12:12:09Z</time>
      </trkpt>
      <trkpt lat="56.361894" lon="13.685134">
        <ele>117.8</ele>
        <time>2014-05-17T12:12:10Z</time>
      </trkpt>
      <trkpt lat="56.361942" lon="13.685217">
        <ele>117.9</ele>
        <time>2014-05-17T12:12:11Z</time>
      </trkpt>
      <trkpt lat="56.361976" lon="13.6853">
        <ele>118</ele>
        <time>2014-05-17T12:12:12Z</time>
      </trkpt>
      <trkpt lat="56.362019" lon="13.685397">
        <ele>118.1</ele>
        <time>2014-05-17T12:12:13Z</time>
      </trkpt>
      <trkpt lat="56.362061" lon="13.685482">
        <ele>118.1</ele>
        <time>2014-05-17T12:12:14Z</time>
      </trkpt>
      <trkpt lat="56.362105" lon="13.685565">
        <ele>118</ele>
        <time>2014-05-17T12:12:15Z</time>
      </trkpt>
      <trkpt lat="56.362143" lon="13.685665">
        <ele>117.8</ele>
        <time>2014-05-17T12:12:16Z</time>
      </trkpt>
      <trkpt lat="56.362184" lon="13.685766">
        <ele>117.5</ele>
        <time>2014-05-17T12:12:17Z</time>
      </trkpt>
      <trkpt lat="56.362223" lon="13.685856">
        <ele>117.3</ele>
        <time>2014-05-17T12:12:18Z</time>
      </trkpt>
      <trkpt lat="56.362258" lon="13.685962">
        <ele>117.1</ele>
        <time>2014-05-17T12:12:19Z</time>
      </trkpt>
      <trkpt lat="56.36229" lon="13.686079">
        <ele>116.9</ele>
        <time>2014-05-17T12:12:20Z</time>
      </trkpt>
      <trkpt lat="56.362325" lon="13.686179">
        <ele>116.6</ele>
        <time>2014-05-17T12:12:21Z</time>
      </trkpt>
      <trkpt lat="56.362351" lon="13.686283">
        <ele>116.5</ele>
        <time>2014-05-17T12:12:22Z</time>
      </trkpt>
      <trkpt lat="56.362374" lon="13.686383">
        <ele>116.3</ele>
        <time>2014-05-17T12:12:23Z</time>
      </trkpt>
      <trkpt lat="56.362399" lon="13.686476">
        <ele>116.1</ele>
        <time>2014-05-17T12:12:24Z</time>
      </trkpt>
      <trkpt lat="56.362431" lon="13.686573">
        <ele>115.9</ele>
        <time>2014-05-17T12:12:25Z</time>
      </trkpt>
      <trkpt lat="56.362458" lon="13.686659">
        <ele>115.7</ele>
        <time>2014-05-17T12:12:26Z</time>
      </trkpt>
      <trkpt lat="56.362499" lon="13.686746">
        <ele>115.3</ele>
        <time>2014-05-17T12:12:27Z</time>
      </trkpt>
      <trkpt lat="56.362533" lon="13.686842">
        <ele>115</ele>
        <time>2014-05-17T12:12:28Z</time>
      </trkpt>
      <trkpt lat="56.362577" lon="13.686932">
        <ele>114.6</ele>
        <time>2014-05-17T12:12:29Z</time>
      </trkpt>
      <trkpt lat="56.36261" lon="13.687028">
        <ele>114.3</ele>
        <time>2014-05-17T12:12:30Z</time>
      </trkpt>
      <trkpt lat="56.362653" lon="13.687117">
        <ele>113.8</ele>
        <time>2014-05-17T12:12:31Z</time>
      </trkpt>
      <trkpt lat="56.362677" lon="13.687208">
        <ele>113.5</ele>
        <time>2014-05-17T12:12:32Z</time>
      </trkpt>
      <trkpt lat="56.362697" lon="13.687295">
        <ele>113.2</ele>
        <time>2014-05-17T12:12:33Z</time>
      </trkpt>
      <trkpt lat="56.362718" lon="13.68738">
        <ele>113</ele>
        <time>2014-05-17T12:12:34Z</time>
      </trkpt>
      <trkpt lat="56.362734" lon="13.687469">
        <ele>112.8</ele>
        <time>2014-05-17T12:12:35Z</time>
      </trkpt>
      <trkpt lat="56.36275" lon="13.687561">
        <ele>112.6</ele>
        <time>2014-05-17T12:12:36Z</time>
      </trkpt>
      <trkpt lat="56.362765" lon="13.687644">
        <ele>112.4</ele>
        <time>2014-05-17T12:12:37Z</time>
      </trkpt>
      <trkpt lat="56.362791" lon="13.687722">
        <ele>112.1</ele>
        <time>2014-05-17T12:12:38Z</time>
      </trkpt>
      <trkpt lat="56.362812" lon="13.687807">
        <ele>111.9</ele>
        <time>2014-05-17T12:12:39Z</time>
      </trkpt>
      <trkpt lat="56.362832" lon="13.687895">
        <ele>111.7</ele>
        <time>2014-05-17T12:12:40Z</time>
      </trkpt>
      <trkpt lat="56.362855" lon="13.687989">
        <ele>111.6</ele>
        <time>2014-05-17T12:12:41Z</time>
      </trkpt>
      <trkpt lat="56.362875" lon="13.688084">
        <ele>111.5</ele>
        <time>2014-05-17T12:12:42Z</time>
      </trkpt>
      <trkpt lat="56.3629" lon="13.688181">
        <ele>111.4</ele>
        <time>2014-05-17T12:12:43Z</time>
      </trkpt>
      <trkpt lat="56.362916" lon="13.688263">
        <ele>111.4</ele>
        <time>2014-05-17T12:12:44Z</time>
      </trkpt>
      <trkpt lat="56.36293" lon="13.688347">
        <ele>111.5</ele>
        <time>2014-05-17T12:12:45Z</time>
      </trkpt>
      <trkpt lat="56.36294" lon="13.68844">
        <ele>111.5</ele>
        <time>2014-05-17T12:12:46Z</time>
      </trkpt>
      <trkpt lat="56.362955" lon="13.688516">
        <ele>111.5</ele>
        <time>2014-05-17T12:12:47Z</time>
      </trkpt>
      <trkpt lat="56.362974" lon="13.688582">
        <ele>111.5</ele>
        <time>2014-05-17T12:12:48Z</time>
      </trkpt>
      <trkpt lat="56.362989" lon="13.68865">
        <ele>111.5</ele>
        <time>2014-05-17T12:12:49Z</time>
      </trkpt>
      <trkpt lat="56.362996" lon="13.688722">
        <ele>111.6</ele>
        <time>2014-05-17T12:12:50Z</time>
      </trkpt>
      <trkpt lat="56.363009" lon="13.688802">
        <ele>111.5</ele>
        <time>2014-05-17T12:12:51Z</time>
      </trkpt>
      <trkpt lat="56.363029" lon="13.688874">
        <ele>111.4</ele>
        <time>2014-05-17T12:12:52Z</time>
      </trkpt>
      <trkpt lat="56.363046" lon="13.688938">
        <ele>111.2</ele>
        <time>2014-05-17T12:12:53Z</time>
      </trkpt>
      <trkpt lat="56.363062" lon="13.689001">
        <ele>111.1</ele>
        <time>2014-05-17T12:12:54Z</time>
      </trkpt>
      <trkpt lat="56.363078" lon="13.689059">
        <ele>111</ele>
        <time>2014-05-17T12:12:55Z</time>
      </trkpt>
      <trkpt lat="56.363097" lon="13.689119">
        <ele>110.9</ele>
        <time>2014-05-17T12:12:56Z</time>
      </trkpt>
      <trkpt lat="56.363112" lon="13.689176">
        <ele>110.8</ele>
        <time>2014-05-17T12:12:57Z</time>
      </trkpt>
      <trkpt lat="56.363126" lon="13.689233">
        <ele>110.7</ele>
        <time>2014-05-17T12:12:58Z</time>
      </trkpt>
      <trkpt lat="56.363137" lon="13.689292">
        <ele>110.6</ele>
        <time>2014-05-17T12:12:59Z</time>
      </trkpt>
      <trkpt lat="56.36315" lon="13.689351">
        <ele>110.6</ele>
        <time>2014-05-17T12:13:00Z</time>
      </trkpt>
      <trkpt lat="56.36316" lon="13.689411">
        <ele>110.5</ele>
        <time>2014-05-17T12:13:01Z</time>
      </trkpt>
      <trkpt lat="56.363171" lon="13.689475">
        <ele>110.4</ele>
        <time>2014-05-17T12:13:02Z</time>
      </trkpt>
      <trkpt lat="56.363185" lon="13.689542">
        <ele>110.4</ele>
        <time>2014-05-17T12:13:03Z</time>
      </trkpt>
      <trkpt lat="56.363205" lon="13.689628">
        <ele>110.3</ele>
        <time>2014-05-17T12:13:04Z</time>
      </trkpt>
      <trkpt lat="56.363245" lon="13.689733">
        <ele>110.1</ele>
        <time>2014-05-17T12:13:05Z</time>
      </trkpt>
      <trkpt lat="56.363266" lon="13.689824">
        <ele>109.9</ele>
        <time>2014-05-17T12:13:06Z</time>
      </trkpt>
      <trkpt lat="56.363283" lon="13.689934">
        <ele>109.8</ele>
        <time>2014-05-17T12:13:07Z</time>
      </trkpt>
      <trkpt lat="56.363302" lon="13.690028">
        <ele>109.7</ele>
        <time>2014-05-17T12:13:08Z</time>
      </trkpt>
      <trkpt lat="56.363324" lon="13.690117">
        <ele>109.7</ele>
        <time>2014-05-17T12:13:09Z</time>
      </trkpt>
      <trkpt lat="56.363349" lon="13.690201">
        <ele>109.6</ele>
        <time>2014-05-17T12:13:10Z</time>
      </trkpt>
      <trkpt lat="56.363376" lon="13.69028">
        <ele>109.6</ele>
        <time>2014-05-17T12:13:11Z</time>
      </trkpt>
      <trkpt lat="56.363385" lon="13.690363">
        <ele>109.6</ele>
        <time>2014-05-17T12:13:12Z</time>
      </trkpt>
      <trkpt lat="56.363407" lon="13.690443">
        <ele>109.5</ele>
        <time>2014-05-17T12:13:13Z</time>
      </trkpt>
      <trkpt lat="56.363424" lon="13.690522">
        <ele>109.4</ele>
        <time>2014-05-17T12:13:14Z</time>
      </trkpt>
      <trkpt lat="56.363446" lon="13.690603">
        <ele>109.3</ele>
        <time>2014-05-17T12:13:15Z</time>
      </trkpt>
      <trkpt lat="56.363472" lon="13.690685">
        <ele>109.2</ele>
        <time>2014-05-17T12:13:16Z</time>
      </trkpt>
      <trkpt lat="56.363497" lon="13.690758">
        <ele>109.2</ele>
        <time>2014-05-17T12:13:17Z</time>
      </trkpt>
      <trkpt lat="56.363516" lon="13.690846">
        <ele>109.1</ele>
        <time>2014-05-17T12:13:18Z</time>
      </trkpt>
      <trkpt lat="56.363531" lon="13.690929">
        <ele>109</ele>
        <time>2014-05-17T12:13:19Z</time>
      </trkpt>
      <trkpt lat="56.363545" lon="13.691004">
        <ele>108.9</ele>
        <time>2014-05-17T12:13:20Z</time>
      </trkpt>
      <trkpt lat="56.363559" lon="13.691086">
        <ele>108.8</ele>
        <time>2014-05-17T12:13:21Z</time>
      </trkpt>
      <trkpt lat="56.363564" lon="13.691168">
        <ele>108.7</ele>
        <time>2014-05-17T12:13:22Z</time>
      </trkpt>
      <trkpt lat="56.36358" lon="13.691256">
        <ele>108.6</ele>
        <time>2014-05-17T12:13:23Z</time>
      </trkpt>
      <trkpt lat="56.36359" lon="13.691336">
        <ele>108.5</ele>
        <time>2014-05-17T12:13:24Z</time>
      </trkpt>
      <trkpt lat="56.363603" lon="13.691431">
        <ele>108.4</ele>
        <time>2014-05-17T12:13:25Z</time>
      </trkpt>
      <trkpt lat="56.363611" lon="13.691516">
        <ele>108.2</ele>
        <time>2014-05-17T12:13:26Z</time>
      </trkpt>
      <trkpt lat="56.363617" lon="13.691596">
        <ele>108.1</ele>
        <time>2014-05-17T12:13:27Z</time>
      </trkpt>
      <trkpt lat="56.363626" lon="13.691682">
        <ele>108</ele>
        <time>2014-05-17T12:13:28Z</time>
      </trkpt>
      <trkpt lat="56.363633" lon="13.691764">
        <ele>107.9</ele>
        <time>2014-05-17T12:13:29Z</time>
      </trkpt>
      <trkpt lat="56.363633" lon="13.691845">
        <ele>107.8</ele>
        <time>2014-05-17T12:13:30Z</time>
      </trkpt>
      <trkpt lat="56.36364" lon="13.69193">
        <ele>107.7</ele>
        <time>2014-05-17T12:13:31Z</time>
      </trkpt>
      <trkpt lat="56.36365" lon="13.692009">
        <ele>107.6</ele>
        <time>2014-05-17T12:13:32Z</time>
      </trkpt>
      <trkpt lat="56.363661" lon="13.692078">
        <ele>107.6</ele>
        <time>2014-05-17T12:13:33Z</time>
      </trkpt>
      <trkpt lat="56.36367" lon="13.692153">
        <ele>107.6</ele>
        <time>2014-05-17T12:13:34Z</time>
      </trkpt>
      <trkpt lat="56.363676" lon="13.692223">
        <ele>107.6</ele>
        <time>2014-05-17T12:13:35Z</time>
      </trkpt>
      <trkpt lat="56.363679" lon="13.692298">
        <ele>107.7</ele>
        <time>2014-05-17T12:13:36Z</time>
      </trkpt>
      <trkpt lat="56.363685" lon="13.69237">
        <ele>107.7</ele>
        <time>2014-05-17T12:13:37Z</time>
      </trkpt>
      <trkpt lat="56.363688" lon="13.692454">
        <ele>107.7</ele>
        <time>2014-05-17T12:13:38Z</time>
      </trkpt>
      <trkpt lat="56.363696" lon="13.692539">
        <ele>107.7</ele>
        <time>2014-05-17T12:13:39Z</time>
      </trkpt>
      <trkpt lat="56.363697" lon="13.692624">
        <ele>107.7</ele>
        <time>2014-05-17T12:13:40Z</time>
      </trkpt>
      <trkpt lat="56.363692" lon="13.692725">
        <ele>107.7</ele>
        <time>2014-05-17T12:13:41Z</time>
      </trkpt>
      <trkpt lat="56.363704" lon="13.692815">
        <ele>107.8</ele>
        <time>2014-05-17T12:13:42Z</time>
      </trkpt>
      <trkpt lat="56.36371" lon="13.692903">
        <ele>107.8</ele>
        <time>2014-05-17T12:13:43Z</time>
      </trkpt>
      <trkpt lat="56.363722" lon="13.692998">
        <ele>107.9</ele>
        <time>2014-05-17T12:13:44Z</time>
      </trkpt>
      <trkpt lat="56.36373" lon="13.693091">
        <ele>107.9</ele>
        <time>2014-05-17T12:13:45Z</time>
      </trkpt>
      <trkpt lat="56.363736" lon="13.693189">
        <ele>107.9</ele>
        <time>2014-05-17T12:13:46Z</time>
      </trkpt>
      <trkpt lat="56.363747" lon="13.693283">
        <ele>108</ele>
        <time>2014-05-17T12:13:47Z</time>
      </trkpt>
      <trkpt lat="56.363756" lon="13.693359">
        <ele>108</ele>
        <time>2014-05-17T12:13:48Z</time>
      </trkpt>
      <trkpt lat="56.363768" lon="13.693437">
        <ele>108</ele>
        <time>2014-05-17T12:13:49Z</time>
      </trkpt>
      <trkpt lat="56.363785" lon="13.693516">
        <ele>108.1</ele>
        <time>2014-05-17T12:13:50Z</time>
      </trkpt>
      <trkpt lat="56.363794" lon="13.693585">
        <ele>108.1</ele>
        <time>2014-05-17T12:13:51Z</time>
      </trkpt>
      <trkpt lat="56.363801" lon="13.693659">
        <ele>108.1</ele>
        <time>2014-05-17T12:13:52Z</time>
      </trkpt>
      <trkpt lat="56.363806" lon="13.693716">
        <ele>108.1</ele>
        <time>2014-05-17T12:13:53Z</time>
      </trkpt>
      <trkpt lat="56.363811" lon="13.69379">
        <ele>108.1</ele>
        <time>2014-05-17T12:13:54Z</time>
      </trkpt>
      <trkpt lat="56.363819" lon="13.693856">
        <ele>108.2</ele>
        <time>2014-05-17T12:13:55Z</time>
      </trkpt>
      <trkpt lat="56.363829" lon="13.693917">
        <ele>108.2</ele>
        <time>2014-05-17T12:13:56Z</time>
      </trkpt>
      <trkpt lat="56.363841" lon="13.693974">
        <ele>108.2</ele>
        <time>2014-05-17T12:13:57Z</time>
      </trkpt>
      <trkpt lat="56.363845" lon="13.694041">
        <ele>108.2</ele>
        <time>2014-05-17T12:13:58Z</time>
      </trkpt>
      <trkpt lat="56.363851" lon="13.6941">
        <ele>108.2</ele>
        <time>2014-05-17T12:13:59Z</time>
      </trkpt>
      <trkpt lat="56.363863" lon="13.694162">
        <ele>108.3</ele>
        <time>2014-05-17T12:14:00Z</time>
      </trkpt>
      <trkpt lat="56.363875" lon="13.694222">
        <ele>108.3</ele>
        <time>2014-05-17T12:14:01Z</time>
      </trkpt>
      <trkpt lat="56.363885" lon="13.694285">
        <ele>108.3</ele>
        <time>2014-05-17T12:14:02Z</time>
      </trkpt>
      <trkpt lat="56.363897" lon="13.694345">
        <ele>108.4</ele>
        <time>2014-05-17T12:14:03Z</time>
      </trkpt>
      <trkpt lat="56.36391" lon="13.694404">
        <ele>108.4</ele>
        <time>2014-05-17T12:14:04Z</time>
      </trkpt>
      <trkpt lat="56.363925" lon="13.694462">
        <ele>108.4</ele>
        <time>2014-05-17T12:14:05Z</time>
      </trkpt>
      <trkpt lat="56.363939" lon="13.694519">
        <ele>108.5</ele>
        <time>2014-05-17T12:14:06Z</time>
      </trkpt>
      <trkpt lat="56.363953" lon="13.694575">
        <ele>108.5</ele>
        <time>2014-05-17T12:14:07Z</time>
      </trkpt>
      <trkpt lat="56.363966" lon="13.694629">
        <ele>108.5</ele>
        <time>2014-05-17T12:14:08Z</time>
      </trkpt>
      <trkpt lat="56.363981" lon="13.694686">
        <ele>108.6</ele>
        <time>2014-05-17T12:14:09Z</time>
      </trkpt>
      <trkpt lat="56.364002" lon="13.694765">
        <ele>108.7</ele>
        <time>2014-05-17T12:14:11Z</time>
      </trkpt>
      <trkpt lat="56.36401" lon="13.694833">
        <ele>108.7</ele>
        <time>2014-05-17T12:14:13Z</time>
      </trkpt>
      <trkpt lat="56.364014" lon="13.694903">
        <ele>108.8</ele>
        <time>2014-05-17T12:14:15Z</time>
      </trkpt>
      <trkpt lat="56.364019" lon="13.694974">
        <ele>108.8</ele>
        <time>2014-05-17T12:14:17Z</time>
      </trkpt>
      <trkpt lat="56.364023" lon="13.69506">
        <ele>108.8</ele>
        <time>2014-05-17T12:14:19Z</time>
      </trkpt>
      <trkpt lat="56.364024" lon="13.695119">
        <ele>108.9</ele>
        <time>2014-05-17T12:14:20Z</time>
      </trkpt>
      <trkpt lat="56.364022" lon="13.695178">
        <ele>108.9</ele>
        <time>2014-05-17T12:14:21Z</time>
      </trkpt>
      <trkpt lat="56.364018" lon="13.695239">
        <ele>108.9</ele>
        <time>2014-05-17T12:14:22Z</time>
      </trkpt>
      <trkpt lat="56.364013" lon="13.6953">
        <ele>108.9</ele>
        <time>2014-05-17T12:14:23Z</time>
      </trkpt>
      <trkpt lat="56.364005" lon="13.695364">
        <ele>108.9</ele>
        <time>2014-05-17T12:14:24Z</time>
      </trkpt>
      <trkpt lat="56.363999" lon="13.695424">
        <ele>108.9</ele>
        <time>2014-05-17T12:14:25Z</time>
      </trkpt>
      <trkpt lat="56.363974" lon="13.695499">
        <ele>108.9</ele>
        <time>2014-05-17T12:14:26Z</time>
      </trkpt>
      <trkpt lat="56.363953" lon="13.695567">
        <ele>108.9</ele>
        <time>2014-05-17T12:14:27Z</time>
      </trkpt>
      <trkpt lat="56.36393" lon="13.695632">
        <ele>108.9</ele>
        <time>2014-05-17T12:14:28Z</time>
      </trkpt>
      <trkpt lat="56.36391" lon="13.695694">
        <ele>108.8</ele>
        <time>2014-05-17T12:14:29Z</time>
      </trkpt>
      <trkpt lat="56.363878" lon="13.695751">
        <ele>108.8</ele>
        <time>2014-05-17T12:14:30Z</time>
      </trkpt>
      <trkpt lat="56.363853" lon="13.695809">
        <ele>108.8</ele>
        <time>2014-05-17T12:14:31Z</time>
      </trkpt>
      <trkpt lat="56.363824" lon="13.695861">
        <ele>108.8</ele>
        <time>2014-05-17T12:14:32Z</time>
      </trkpt>
      <trkpt lat="56.363798" lon="13.695915">
        <ele>108.7</ele>
        <time>2014-05-17T12:14:33Z</time>
      </trkpt>
      <trkpt lat="56.363763" lon="13.695962">
        <ele>108.7</ele>
        <time>2014-05-17T12:14:34Z</time>
      </trkpt>
      <trkpt lat="56.363733" lon="13.696012">
        <ele>108.7</ele>
        <time>2014-05-17T12:14:35Z</time>
      </trkpt>
      <trkpt lat="56.363703" lon="13.696065">
        <ele>108.7</ele>
        <time>2014-05-17T12:14:36Z</time>
      </trkpt>
      <trkpt lat="56.363674" lon="13.696119">
        <ele>108.8</ele>
        <time>2014-05-17T12:14:37Z</time>
      </trkpt>
      <trkpt lat="56.363644" lon="13.696172">
        <ele>108.8</ele>
        <time>2014-05-17T12:14:38Z</time>
      </trkpt>
      <trkpt lat="56.363615" lon="13.696225">
        <ele>108.8</ele>
        <time>2014-05-17T12:14:39Z</time>
      </trkpt>
      <trkpt lat="56.363586" lon="13.696276">
        <ele>108.8</ele>
        <time>2014-05-17T12:14:40Z</time>
      </trkpt>
      <trkpt lat="56.363556" lon="13.69633">
        <ele>108.8</ele>
        <time>2014-05-17T12:14:41Z</time>
      </trkpt>
      <trkpt lat="56.363524" lon="13.696381">
        <ele>108.8</ele>
        <time>2014-05-17T12:14:42Z</time>
      </trkpt>
      <trkpt lat="56.363492" lon="13.69643">
        <ele>108.8</ele>
        <time>2014-05-17T12:14:43Z</time>
      </trkpt>
      <trkpt lat="56.363461" lon="13.696484">
        <ele>108.8</ele>
        <time>2014-05-17T12:14:44Z</time>
      </trkpt>
      <trkpt lat="56.36343" lon="13.696535">
        <ele>108.8</ele>
        <time>2014-05-17T12:14:45Z</time>
      </trkpt>
      <trkpt lat="56.363386" lon="13.696601">
        <ele>108.8</ele>
        <time>2014-05-17T12:14:46Z</time>
      </trkpt>
      <trkpt lat="56.363348" lon="13.696653">
        <ele>108.8</ele>
        <time>2014-05-17T12:14:47Z</time>
      </trkpt>
      <trkpt lat="56.363304" lon="13.696717">
        <ele>108.7</ele>
        <time>2014-05-17T12:14:48Z</time>
      </trkpt>
      <trkpt lat="56.363266" lon="13.696775">
        <ele>108.7</ele>
        <time>2014-05-17T12:14:49Z</time>
      </trkpt>
      <trkpt lat="56.363225" lon="13.69684">
        <ele>108.6</ele>
        <time>2014-05-17T12:14:50Z</time>
      </trkpt>
      <trkpt lat="56.363187" lon="13.696906">
        <ele>108.6</ele>
        <time>2014-05-17T12:14:51Z</time>
      </trkpt>
      <trkpt lat="56.363146" lon="13.696969">
        <ele>108.5</ele>
        <time>2014-05-17T12:14:52Z</time>
      </trkpt>
      <trkpt lat="56.363112" lon="13.697044">
        <ele>108.5</ele>
        <time>2014-05-17T12:14:53Z</time>
      </trkpt>
      <trkpt lat="56.363078" lon="13.697108">
        <ele>108.4</ele>
        <time>2014-05-17T12:14:54Z</time>
      </trkpt>
      <trkpt lat="56.363048" lon="13.697171">
        <ele>108.5</ele>
        <time>2014-05-17T12:14:55Z</time>
      </trkpt>
      <trkpt lat="56.363013" lon="13.697237">
        <ele>108.6</ele>
        <time>2014-05-17T12:14:56Z</time>
      </trkpt>
      <trkpt lat="56.362975" lon="13.69728">
        <ele>108.6</ele>
        <time>2014-05-17T12:14:57Z</time>
      </trkpt>
      <trkpt lat="56.36295" lon="13.697333">
        <ele>108.7</ele>
        <time>2014-05-17T12:14:58Z</time>
      </trkpt>
      <trkpt lat="56.36292" lon="13.697387">
        <ele>108.7</ele>
        <time>2014-05-17T12:14:59Z</time>
      </trkpt>
      <trkpt lat="56.362898" lon="13.697425">
        <ele>108.8</ele>
        <time>2014-05-17T12:15:00Z</time>
      </trkpt>
      <trkpt lat="56.362872" lon="13.69747">
        <ele>108.8</ele>
        <time>2014-05-17T12:15:01Z</time>
      </trkpt>
      <trkpt lat="56.36286" lon="13.697541">
        <ele>109</ele>
        <time>2014-05-17T12:15:02Z</time>
      </trkpt>
      <trkpt lat="56.362828" lon="13.697581">
        <ele>109</ele>
        <time>2014-05-17T12:15:03Z</time>
      </trkpt>
      <trkpt lat="56.362799" lon="13.697637">
        <ele>109</ele>
        <time>2014-05-17T12:15:04Z</time>
      </trkpt>
      <trkpt lat="56.362769" lon="13.697699">
        <ele>109</ele>
        <time>2014-05-17T12:15:05Z</time>
      </trkpt>
      <trkpt lat="56.362729" lon="13.697771">
        <ele>109.1</ele>
        <time>2014-05-17T12:15:06Z</time>
      </trkpt>
      <trkpt lat="56.362698" lon="13.697853">
        <ele>109.1</ele>
        <time>2014-05-17T12:15:07Z</time>
      </trkpt>
      <trkpt lat="56.36266" lon="13.697939">
        <ele>109.1</ele>
        <time>2014-05-17T12:15:08Z</time>
      </trkpt>
      <trkpt lat="56.362623" lon="13.698002">
        <ele>109.1</ele>
        <time>2014-05-17T12:15:09Z</time>
      </trkpt>
      <trkpt lat="56.362586" lon="13.698065">
        <ele>109.1</ele>
        <time>2014-05-17T12:15:10Z</time>
      </trkpt>
      <trkpt lat="56.362539" lon="13.698143">
        <ele>109.1</ele>
        <time>2014-05-17T12:15:11Z</time>
      </trkpt>
      <trkpt lat="56.362496" lon="13.698212">
        <ele>109</ele>
        <time>2014-05-17T12:15:12Z</time>
      </trkpt>
      <trkpt lat="56.362444" lon="13.698296">
        <ele>109</ele>
        <time>2014-05-17T12:15:13Z</time>
      </trkpt>
      <trkpt lat="56.362388" lon="13.698343">
        <ele>108.8</ele>
        <time>2014-05-17T12:15:14Z</time>
      </trkpt>
      <trkpt lat="56.362332" lon="13.698383">
        <ele>108.6</ele>
        <time>2014-05-17T12:15:15Z</time>
      </trkpt>
      <trkpt lat="56.362274" lon="13.698429">
        <ele>108.4</ele>
        <time>2014-05-17T12:15:16Z</time>
      </trkpt>
      <trkpt lat="56.362217" lon="13.698467">
        <ele>108.2</ele>
        <time>2014-05-17T12:15:17Z</time>
      </trkpt>
      <trkpt lat="56.362167" lon="13.698542">
        <ele>108.1</ele>
        <time>2014-05-17T12:15:18Z</time>
      </trkpt>
      <trkpt lat="56.362112" lon="13.698577">
        <ele>107.9</ele>
        <time>2014-05-17T12:15:19Z</time>
      </trkpt>
      <trkpt lat="56.362063" lon="13.698627">
        <ele>107.9</ele>
        <time>2014-05-17T12:15:20Z</time>
      </trkpt>
      <trkpt lat="56.362007" lon="13.698678">
        <ele>107.9</ele>
        <time>2014-05-17T12:15:21Z</time>
      </trkpt>
      <trkpt lat="56.361963" lon="13.698731">
        <ele>108</ele>
        <time>2014-05-17T12:15:22Z</time>
      </trkpt>
      <trkpt lat="56.361911" lon="13.69878">
        <ele>108</ele>
        <time>2014-05-17T12:15:23Z</time>
      </trkpt>
      <trkpt lat="56.361869" lon="13.698843">
        <ele>108.1</ele>
        <time>2014-05-17T12:15:24Z</time>
      </trkpt>
      <trkpt lat="56.361823" lon="13.698902">
        <ele>108.2</ele>
        <time>2014-05-17T12:15:25Z</time>
      </trkpt>
      <trkpt lat="56.361772" lon="13.698955">
        <ele>108.3</ele>
        <time>2014-05-17T12:15:26Z</time>
      </trkpt>
      <trkpt lat="56.361723" lon="13.699016">
        <ele>108.5</ele>
        <time>2014-05-17T12:15:27Z</time>
      </trkpt>
      <trkpt lat="56.361666" lon="13.699053">
        <ele>108.5</ele>
        <time>2014-05-17T12:15:28Z</time>
      </trkpt>
      <trkpt lat="56.361614" lon="13.699105">
        <ele>108.7</ele>
        <time>2014-05-17T12:15:29Z</time>
      </trkpt>
      <trkpt lat="56.361558" lon="13.699128">
        <ele>108.7</ele>
        <time>2014-05-17T12:15:30Z</time>
      </trkpt>
      <trkpt lat="56.361504" lon="13.699151">
        <ele>108.8</ele>
        <time>2014-05-17T12:15:31Z</time>
      </trkpt>
      <trkpt lat="56.361454" lon="13.699171">
        <ele>108.9</ele>
        <time>2014-05-17T12:15:32Z</time>
      </trkpt>
      <trkpt lat="56.361403" lon="13.699185">
        <ele>108.9</ele>
        <time>2014-05-17T12:15:33Z</time>
      </trkpt>
      <trkpt lat="56.361352" lon="13.699195">
        <ele>109</ele>
        <time>2014-05-17T12:15:34Z</time>
      </trkpt>
      <trkpt lat="56.361304" lon="13.699206">
        <ele>109.1</ele>
        <time>2014-05-17T12:15:35Z</time>
      </trkpt>
      <trkpt lat="56.361259" lon="13.699215">
        <ele>109.1</ele>
        <time>2014-05-17T12:15:36Z</time>
      </trkpt>
      <trkpt lat="56.361216" lon="13.699216">
        <ele>109</ele>
        <time>2014-05-17T12:15:37Z</time>
      </trkpt>
      <trkpt lat="56.361181" lon="13.699215">
        <ele>109</ele>
        <time>2014-05-17T12:15:38Z</time>
      </trkpt>
      <trkpt lat="56.361146" lon="13.699222">
        <ele>108.9</ele>
        <time>2014-05-17T12:15:39Z</time>
      </trkpt>
      <trkpt lat="56.361113" lon="13.699229">
        <ele>108.8</ele>
        <time>2014-05-17T12:15:40Z</time>
      </trkpt>
      <trkpt lat="56.361083" lon="13.699231">
        <ele>108.8</ele>
        <time>2014-05-17T12:15:41Z</time>
      </trkpt>
      <trkpt lat="56.361053" lon="13.699234">
        <ele>108.7</ele>
        <time>2014-05-17T12:15:42Z</time>
      </trkpt>
      <trkpt lat="56.361024" lon="13.699251">
        <ele>108.7</ele>
        <time>2014-05-17T12:15:43Z</time>
      </trkpt>
      <trkpt lat="56.360965" lon="13.699282">
        <ele>108.6</ele>
        <time>2014-05-17T12:15:45Z</time>
      </trkpt>
      <trkpt lat="56.360915" lon="13.699311">
        <ele>108.5</ele>
        <time>2014-05-17T12:15:47Z</time>
      </trkpt>
      <trkpt lat="56.360888" lon="13.699329">
        <ele>108.5</ele>
        <time>2014-05-17T12:15:48Z</time>
      </trkpt>
      <trkpt lat="56.360829" lon="13.699349">
        <ele>108.4</ele>
        <time>2014-05-17T12:15:50Z</time>
      </trkpt>
      <trkpt lat="56.360802" lon="13.699358">
        <ele>108.4</ele>
        <time>2014-05-17T12:15:51Z</time>
      </trkpt>
      <trkpt lat="56.360751" lon="13.699375">
        <ele>108.3</ele>
        <time>2014-05-17T12:15:52Z</time>
      </trkpt>
      <trkpt lat="56.36067" lon="13.699402">
        <ele>108.2</ele>
        <time>2014-05-17T12:15:53Z</time>
      </trkpt>
      <trkpt lat="56.360622" lon="13.699415">
        <ele>108.1</ele>
        <time>2014-05-17T12:15:54Z</time>
      </trkpt>
      <trkpt lat="56.360566" lon="13.699424">
        <ele>108</ele>
        <time>2014-05-17T12:15:55Z</time>
      </trkpt>
      <trkpt lat="56.360514" lon="13.699435">
        <ele>107.9</ele>
        <time>2014-05-17T12:15:56Z</time>
      </trkpt>
      <trkpt lat="56.36045" lon="13.699455">
        <ele>107.8</ele>
        <time>2014-05-17T12:15:57Z</time>
      </trkpt>
      <trkpt lat="56.36039" lon="13.699469">
        <ele>107.7</ele>
        <time>2014-05-17T12:15:58Z</time>
      </trkpt>
      <trkpt lat="56.36033" lon="13.699487">
        <ele>107.8</ele>
        <time>2014-05-17T12:15:59Z</time>
      </trkpt>
      <trkpt lat="56.360273" lon="13.699498">
        <ele>107.8</ele>
        <time>2014-05-17T12:16:00Z</time>
      </trkpt>
      <trkpt lat="56.36022" lon="13.699497">
        <ele>107.8</ele>
        <time>2014-05-17T12:16:01Z</time>
      </trkpt>
      <trkpt lat="56.360164" lon="13.699496">
        <ele>107.8</ele>
        <time>2014-05-17T12:16:02Z</time>
      </trkpt>
      <trkpt lat="56.360106" lon="13.699492">
        <ele>107.8</ele>
        <time>2014-05-17T12:16:03Z</time>
      </trkpt>
      <trkpt lat="56.360053" lon="13.699487">
        <ele>107.8</ele>
        <time>2014-05-17T12:16:04Z</time>
      </trkpt>
      <trkpt lat="56.360003" lon="13.699474">
        <ele>107.7</ele>
        <time>2014-05-17T12:16:05Z</time>
      </trkpt>
      <trkpt lat="56.359952" lon="13.699468">
        <ele>107.7</ele>
        <time>2014-05-17T12:16:06Z</time>
      </trkpt>
      <trkpt lat="56.359906" lon="13.699462">
        <ele>107.7</ele>
        <time>2014-05-17T12:16:07Z</time>
      </trkpt>
      <trkpt lat="56.359858" lon="13.699462">
        <ele>107.7</ele>
        <time>2014-05-17T12:16:08Z</time>
      </trkpt>
      <trkpt lat="56.359811" lon="13.699453">
        <ele>107.7</ele>
        <time>2014-05-17T12:16:09Z</time>
      </trkpt>
      <trkpt lat="56.359768" lon="13.699471">
        <ele>107.7</ele>
        <time>2014-05-17T12:16:10Z</time>
      </trkpt>
      <trkpt lat="56.359724" lon="13.699459">
        <ele>107.7</ele>
        <time>2014-05-17T12:16:11Z</time>
      </trkpt>
      <trkpt lat="56.359674" lon="13.699466">
        <ele>107.7</ele>
        <time>2014-05-17T12:16:12Z</time>
      </trkpt>
      <trkpt lat="56.35963" lon="13.699455">
        <ele>107.7</ele>
        <time>2014-05-17T12:16:13Z</time>
      </trkpt>
      <trkpt lat="56.359585" lon="13.699451">
        <ele>107.7</ele>
        <time>2014-05-17T12:16:14Z</time>
      </trkpt>
      <trkpt lat="56.359538" lon="13.69946">
        <ele>107.6</ele>
        <time>2014-05-17T12:16:15Z</time>
      </trkpt>
      <trkpt lat="56.359489" lon="13.699458">
        <ele>107.6</ele>
        <time>2014-05-17T12:16:16Z</time>
      </trkpt>
      <trkpt lat="56.359434" lon="13.699452">
        <ele>107.5</ele>
        <time>2014-05-17T12:16:17Z</time>
      </trkpt>
      <trkpt lat="56.35938" lon="13.699451">
        <ele>107.4</ele>
        <time>2014-05-17T12:16:18Z</time>
      </trkpt>
      <trkpt lat="56.359323" lon="13.699456">
        <ele>107.3</ele>
        <time>2014-05-17T12:16:19Z</time>
      </trkpt>
      <trkpt lat="56.359265" lon="13.699446">
        <ele>107.2</ele>
        <time>2014-05-17T12:16:20Z</time>
      </trkpt>
      <trkpt lat="56.359206" lon="13.699435">
        <ele>107.1</ele>
        <time>2014-05-17T12:16:21Z</time>
      </trkpt>
      <trkpt lat="56.359153" lon="13.699406">
        <ele>106.9</ele>
        <time>2014-05-17T12:16:22Z</time>
      </trkpt>
      <trkpt lat="56.359097" lon="13.699385">
        <ele>106.8</ele>
        <time>2014-05-17T12:16:23Z</time>
      </trkpt>
      <trkpt lat="56.359045" lon="13.69936">
        <ele>106.6</ele>
        <time>2014-05-17T12:16:24Z</time>
      </trkpt>
      <trkpt lat="56.358991" lon="13.69934">
        <ele>106.5</ele>
        <time>2014-05-17T12:16:25Z</time>
      </trkpt>
      <trkpt lat="56.358939" lon="13.699321">
        <ele>106.4</ele>
        <time>2014-05-17T12:16:26Z</time>
      </trkpt>
      <trkpt lat="56.358891" lon="13.699301">
        <ele>106.2</ele>
        <time>2014-05-17T12:16:27Z</time>
      </trkpt>
      <trkpt lat="56.358837" lon="13.699291">
        <ele>106.1</ele>
        <time>2014-05-17T12:16:28Z</time>
      </trkpt>
      <trkpt lat="56.35879" lon="13.699278">
        <ele>106</ele>
        <time>2014-05-17T12:16:29Z</time>
      </trkpt>
      <trkpt lat="56.358743" lon="13.699269">
        <ele>105.9</ele>
        <time>2014-05-17T12:16:30Z</time>
      </trkpt>
      <trkpt lat="56.358698" lon="13.699266">
        <ele>105.9</ele>
        <time>2014-05-17T12:16:31Z</time>
      </trkpt>
      <trkpt lat="56.358652" lon="13.699269">
        <ele>106</ele>
        <time>2014-05-17T12:16:32Z</time>
      </trkpt>
      <trkpt lat="56.358612" lon="13.699278">
        <ele>106.1</ele>
        <time>2014-05-17T12:16:33Z</time>
      </trkpt>
      <trkpt lat="56.358573" lon="13.699293">
        <ele>106.2</ele>
        <time>2014-05-17T12:16:34Z</time>
      </trkpt>
      <trkpt lat="56.35854" lon="13.699311">
        <ele>106.4</ele>
        <time>2014-05-17T12:16:35Z</time>
      </trkpt>
      <trkpt lat="56.358499" lon="13.699328">
        <ele>106.5</ele>
        <time>2014-05-17T12:16:36Z</time>
      </trkpt>
      <trkpt lat="56.358464" lon="13.699361">
        <ele>106.6</ele>
        <time>2014-05-17T12:16:37Z</time>
      </trkpt>
      <trkpt lat="56.358424" lon="13.699389">
        <ele>106.8</ele>
        <time>2014-05-17T12:16:38Z</time>
      </trkpt>
      <trkpt lat="56.35839" lon="13.699424">
        <ele>106.9</ele>
        <time>2014-05-17T12:16:39Z</time>
      </trkpt>
      <trkpt lat="56.358356" lon="13.699448">
        <ele>107.1</ele>
        <time>2014-05-17T12:16:40Z</time>
      </trkpt>
      <trkpt lat="56.35832" lon="13.699478">
        <ele>107.2</ele>
        <time>2014-05-17T12:16:41Z</time>
      </trkpt>
      <trkpt lat="56.358287" lon="13.699513">
        <ele>107.3</ele>
        <time>2014-05-17T12:16:42Z</time>
      </trkpt>
      <trkpt lat="56.358252" lon="13.699543">
        <ele>107.5</ele>
        <time>2014-05-17T12:16:43Z</time>
      </trkpt>
      <trkpt lat="56.358219" lon="13.699575">
        <ele>107.6</ele>
        <time>2014-05-17T12:16:44Z</time>
      </trkpt>
      <trkpt lat="56.358186" lon="13.699604">
        <ele>107.8</ele>
        <time>2014-05-17T12:16:45Z</time>
      </trkpt>
      <trkpt lat="56.358152" lon="13.699635">
        <ele>107.9</ele>
        <time>2014-05-17T12:16:46Z</time>
      </trkpt>
      <trkpt lat="56.358122" lon="13.699661">
        <ele>108.1</ele>
        <time>2014-05-17T12:16:47Z</time>
      </trkpt>
      <trkpt lat="56.358088" lon="13.69969">
        <ele>108.2</ele>
        <time>2014-05-17T12:16:48Z</time>
      </trkpt>
      <trkpt lat="56.35806" lon="13.699708">
        <ele>108.3</ele>
        <time>2014-05-17T12:16:49Z</time>
      </trkpt>
      <trkpt lat="56.358029" lon="13.699733">
        <ele>108.4</ele>
        <time>2014-05-17T12:16:50Z</time>
      </trkpt>
      <trkpt lat="56.35798" lon="13.699769">
        <ele>108.6</ele>
        <time>2014-05-17T12:16:52Z</time>
      </trkpt>
      <trkpt lat="56.357954" lon="13.699789">
        <ele>108.7</ele>
        <time>2014-05-17T12:16:53Z</time>
      </trkpt>
      <trkpt lat="56.357928" lon="13.699807">
        <ele>108.8</ele>
        <time>2014-05-17T12:16:54Z</time>
      </trkpt>
      <trkpt lat="56.357879" lon="13.69984">
        <ele>109</ele>
        <time>2014-05-17T12:16:56Z</time>
      </trkpt>
      <trkpt lat="56.357829" lon="13.699879">
        <ele>109.1</ele>
        <time>2014-05-17T12:16:58Z</time>
      </trkpt>
      <trkpt lat="56.357803" lon="13.699891">
        <ele>109.2</ele>
        <time>2014-05-17T12:16:59Z</time>
      </trkpt>
      <trkpt lat="56.357777" lon="13.69991">
        <ele>109.3</ele>
        <time>2014-05-17T12:17:00Z</time>
      </trkpt>
      <trkpt lat="56.357746" lon="13.69992">
        <ele>109.3</ele>
        <time>2014-05-17T12:17:01Z</time>
      </trkpt>
      <trkpt lat="56.357718" lon="13.699937">
        <ele>109.4</ele>
        <time>2014-05-17T12:17:02Z</time>
      </trkpt>
      <trkpt lat="56.357673" lon="13.699973">
        <ele>109.6</ele>
        <time>2014-05-17T12:17:03Z</time>
      </trkpt>
      <trkpt lat="56.357637" lon="13.700002">
        <ele>109.7</ele>
        <time>2014-05-17T12:17:04Z</time>
      </trkpt>
      <trkpt lat="56.357599" lon="13.700038">
        <ele>109.8</ele>
        <time>2014-05-17T12:17:05Z</time>
      </trkpt>
      <trkpt lat="56.357563" lon="13.70007">
        <ele>109.9</ele>
        <time>2014-05-17T12:17:06Z</time>
      </trkpt>
      <trkpt lat="56.357526" lon="13.700103">
        <ele>110</ele>
        <time>2014-05-17T12:17:07Z</time>
      </trkpt>
      <trkpt lat="56.35749" lon="13.700136">
        <ele>110.2</ele>
        <time>2014-05-17T12:17:08Z</time>
      </trkpt>
      <trkpt lat="56.357455" lon="13.700169">
        <ele>110.3</ele>
        <time>2014-05-17T12:17:09Z</time>
      </trkpt>
      <trkpt lat="56.357418" lon="13.7002">
        <ele>110.4</ele>
        <time>2014-05-17T12:17:10Z</time>
      </trkpt>
      <trkpt lat="56.357383" lon="13.700232">
        <ele>110.5</ele>
        <time>2014-05-17T12:17:11Z</time>
      </trkpt>
      <trkpt lat="56.357351" lon="13.700276">
        <ele>110.6</ele>
        <time>2014-05-17T12:17:12Z</time>
      </trkpt>
      <trkpt lat="56.357318" lon="13.700322">
        <ele>110.7</ele>
        <time>2014-05-17T12:17:13Z</time>
      </trkpt>
      <trkpt lat="56.357285" lon="13.700373">
        <ele>110.9</ele>
        <time>2014-05-17T12:17:14Z</time>
      </trkpt>
      <trkpt lat="56.357241" lon="13.70047">
        <ele>111</ele>
        <time>2014-05-17T12:17:15Z</time>
      </trkpt>
      <trkpt lat="56.357204" lon="13.700538">
        <ele>111</ele>
        <time>2014-05-17T12:17:16Z</time>
      </trkpt>
      <trkpt lat="56.35717" lon="13.700606">
        <ele>111</ele>
        <time>2014-05-17T12:17:17Z</time>
      </trkpt>
      <trkpt lat="56.357136" lon="13.700673">
        <ele>111</ele>
        <time>2014-05-17T12:17:18Z</time>
      </trkpt>
      <trkpt lat="56.357108" lon="13.700741">
        <ele>111</ele>
        <time>2014-05-17T12:17:19Z</time>
      </trkpt>
      <trkpt lat="56.357074" lon="13.700807">
        <ele>111</ele>
        <time>2014-05-17T12:17:20Z</time>
      </trkpt>
      <trkpt lat="56.357054" lon="13.700861">
        <ele>110.9</ele>
        <time>2014-05-17T12:17:21Z</time>
      </trkpt>
      <trkpt lat="56.357027" lon="13.70092">
        <ele>110.9</ele>
        <time>2014-05-17T12:17:22Z</time>
      </trkpt>
      <trkpt lat="56.356996" lon="13.70099">
        <ele>110.8</ele>
        <time>2014-05-17T12:17:23Z</time>
      </trkpt>
      <trkpt lat="56.356976" lon="13.701044">
        <ele>110.8</ele>
        <time>2014-05-17T12:17:24Z</time>
      </trkpt>
      <trkpt lat="56.356953" lon="13.701107">
        <ele>110.7</ele>
        <time>2014-05-17T12:17:25Z</time>
      </trkpt>
      <trkpt lat="56.356925" lon="13.701163">
        <ele>110.6</ele>
        <time>2014-05-17T12:17:26Z</time>
      </trkpt>
      <trkpt lat="56.356902" lon="13.701214">
        <ele>110.6</ele>
        <time>2014-05-17T12:17:27Z</time>
      </trkpt>
      <trkpt lat="56.356879" lon="13.701265">
        <ele>110.5</ele>
        <time>2014-05-17T12:17:28Z</time>
      </trkpt>
      <trkpt lat="56.356863" lon="13.701318">
        <ele>110.4</ele>
        <time>2014-05-17T12:17:29Z</time>
      </trkpt>
      <trkpt lat="56.356842" lon="13.701356">
        <ele>110.3</ele>
        <time>2014-05-17T12:17:30Z</time>
      </trkpt>
      <trkpt lat="56.356806" lon="13.701389">
        <ele>110.2</ele>
        <time>2014-05-17T12:17:31Z</time>
      </trkpt>
      <trkpt lat="56.356784" lon="13.70143">
        <ele>110.1</ele>
        <time>2014-05-17T12:17:32Z</time>
      </trkpt>
      <trkpt lat="56.356745" lon="13.701504">
        <ele>109.9</ele>
        <time>2014-05-17T12:17:34Z</time>
      </trkpt>
      <trkpt lat="56.356726" lon="13.701549">
        <ele>109.8</ele>
        <time>2014-05-17T12:17:35Z</time>
      </trkpt>
      <trkpt lat="56.356706" lon="13.70159">
        <ele>109.7</ele>
        <time>2014-05-17T12:17:36Z</time>
      </trkpt>
      <trkpt lat="56.356685" lon="13.701628">
        <ele>109.6</ele>
        <time>2014-05-17T12:17:37Z</time>
      </trkpt>
      <trkpt lat="56.356664" lon="13.701666">
        <ele>109.5</ele>
        <time>2014-05-17T12:17:38Z</time>
      </trkpt>
      <trkpt lat="56.356638" lon="13.701691">
        <ele>109.4</ele>
        <time>2014-05-17T12:17:39Z</time>
      </trkpt>
      <trkpt lat="56.356614" lon="13.701719">
        <ele>109.3</ele>
        <time>2014-05-17T12:17:40Z</time>
      </trkpt>
      <trkpt lat="56.356589" lon="13.701745">
        <ele>109.2</ele>
        <time>2014-05-17T12:17:41Z</time>
      </trkpt>
      <trkpt lat="56.356563" lon="13.701769">
        <ele>109.1</ele>
        <time>2014-05-17T12:17:42Z</time>
      </trkpt>
      <trkpt lat="56.356534" lon="13.701791">
        <ele>109</ele>
        <time>2014-05-17T12:17:43Z</time>
      </trkpt>
      <trkpt lat="56.356505" lon="13.701814">
        <ele>108.9</ele>
        <time>2014-05-17T12:17:44Z</time>
      </trkpt>
      <trkpt lat="56.356471" lon="13.70184">
        <ele>108.8</ele>
        <time>2014-05-17T12:17:45Z</time>
      </trkpt>
      <trkpt lat="56.356437" lon="13.701865">
        <ele>108.7</ele>
        <time>2014-05-17T12:17:46Z</time>
      </trkpt>
      <trkpt lat="56.356402" lon="13.701884">
        <ele>108.6</ele>
        <time>2014-05-17T12:17:47Z</time>
      </trkpt>
      <trkpt lat="56.356363" lon="13.701896">
        <ele>108.5</ele>
        <time>2014-05-17T12:17:48Z</time>
      </trkpt>
      <trkpt lat="56.356323" lon="13.701901">
        <ele>108.4</ele>
        <time>2014-05-17T12:17:49Z</time>
      </trkpt>
      <trkpt lat="56.356282" lon="13.701902">
        <ele>108.3</ele>
        <time>2014-05-17T12:17:50Z</time>
      </trkpt>
      <trkpt lat="56.356237" lon="13.701901">
        <ele>108.2</ele>
        <time>2014-05-17T12:17:51Z</time>
      </trkpt>
      <trkpt lat="56.35619" lon="13.701898">
        <ele>108</ele>
        <time>2014-05-17T12:17:52Z</time>
      </trkpt>
      <trkpt lat="56.356144" lon="13.701884">
        <ele>107.9</ele>
        <time>2014-05-17T12:17:53Z</time>
      </trkpt>
      <trkpt lat="56.356101" lon="13.70186">
        <ele>107.8</ele>
        <time>2014-05-17T12:17:54Z</time>
      </trkpt>
      <trkpt lat="56.356061" lon="13.701831">
        <ele>107.7</ele>
        <time>2014-05-17T12:17:55Z</time>
      </trkpt>
      <trkpt lat="56.35602" lon="13.701804">
        <ele>107.6</ele>
        <time>2014-05-17T12:17:56Z</time>
      </trkpt>
      <trkpt lat="56.355978" lon="13.701784">
        <ele>107.5</ele>
        <time>2014-05-17T12:17:57Z</time>
      </trkpt>
      <trkpt lat="56.355934" lon="13.701763">
        <ele>107.4</ele>
        <time>2014-05-17T12:17:58Z</time>
      </trkpt>
      <trkpt lat="56.355896" lon="13.701726">
        <ele>107.3</ele>
        <time>2014-05-17T12:17:59Z</time>
      </trkpt>
      <trkpt lat="56.355859" lon="13.701696">
        <ele>107.3</ele>
        <time>2014-05-17T12:18:00Z</time>
      </trkpt>
      <trkpt lat="56.35583" lon="13.701668">
        <ele>107.2</ele>
        <time>2014-05-17T12:18:01Z</time>
      </trkpt>
      <trkpt lat="56.355792" lon="13.701644">
        <ele>107.2</ele>
        <time>2014-05-17T12:18:02Z</time>
      </trkpt>
      <trkpt lat="56.355765" lon="13.70163">
        <ele>107.1</ele>
        <time>2014-05-17T12:18:03Z</time>
      </trkpt>
      <trkpt lat="56.355722" lon="13.701615">
        <ele>107</ele>
        <time>2014-05-17T12:18:04Z</time>
      </trkpt>
      <trkpt lat="56.355685" lon="13.701589">
        <ele>107</ele>
        <time>2014-05-17T12:18:05Z</time>
      </trkpt>
      <trkpt lat="56.355647" lon="13.701565">
        <ele>106.9</ele>
        <time>2014-05-17T12:18:06Z</time>
      </trkpt>
      <trkpt lat="56.355609" lon="13.70152">
        <ele>106.9</ele>
        <time>2014-05-17T12:18:07Z</time>
      </trkpt>
      <trkpt lat="56.355569" lon="13.701491">
        <ele>106.8</ele>
        <time>2014-05-17T12:18:08Z</time>
      </trkpt>
      <trkpt lat="56.355534" lon="13.701453">
        <ele>106.8</ele>
        <time>2014-05-17T12:18:09Z</time>
      </trkpt>
      <trkpt lat="56.355501" lon="13.701416">
        <ele>106.8</ele>
        <time>2014-05-17T12:18:10Z</time>
      </trkpt>
      <trkpt lat="56.355457" lon="13.701383">
        <ele>106.8</ele>
        <time>2014-05-17T12:18:11Z</time>
      </trkpt>
      <trkpt lat="56.35537" lon="13.701352">
        <ele>106.8</ele>
        <time>2014-05-17T12:18:12Z</time>
      </trkpt>
      <trkpt lat="56.355319" lon="13.701318">
        <ele>106.9</ele>
        <time>2014-05-17T12:18:13Z</time>
      </trkpt>
      <trkpt lat="56.355257" lon="13.701269">
        <ele>107</ele>
        <time>2014-05-17T12:18:14Z</time>
      </trkpt>
      <trkpt lat="56.355192" lon="13.701214">
        <ele>107</ele>
        <time>2014-05-17T12:18:15Z</time>
      </trkpt>
      <trkpt lat="56.355127" lon="13.701159">
        <ele>107</ele>
        <time>2014-05-17T12:18:16Z</time>
      </trkpt>
      <trkpt lat="56.355065" lon="13.701107">
        <ele>107</ele>
        <time>2014-05-17T12:18:17Z</time>
      </trkpt>
      <trkpt lat="56.355019" lon="13.701044">
        <ele>107</ele>
        <time>2014-05-17T12:18:18Z</time>
      </trkpt>
      <trkpt lat="56.354963" lon="13.701022">
        <ele>107</ele>
        <time>2014-05-17T12:18:19Z</time>
      </trkpt>
      <trkpt lat="56.354894" lon="13.701029">
        <ele>106.9</ele>
        <time>2014-05-17T12:18:20Z</time>
      </trkpt>
      <trkpt lat="56.354831" lon="13.701049">
        <ele>106.9</ele>
        <time>2014-05-17T12:18:21Z</time>
      </trkpt>
      <trkpt lat="56.354784" lon="13.701091">
        <ele>106.9</ele>
        <time>2014-05-17T12:18:22Z</time>
      </trkpt>
      <trkpt lat="56.354738" lon="13.701137">
        <ele>106.9</ele>
        <time>2014-05-17T12:18:23Z</time>
      </trkpt>
      <trkpt lat="56.354701" lon="13.701183">
        <ele>106.9</ele>
        <time>2014-05-17T12:18:24Z</time>
      </trkpt>
      <trkpt lat="56.354671" lon="13.701226">
        <ele>107</ele>
        <time>2014-05-17T12:18:25Z</time>
      </trkpt>
      <trkpt lat="56.354646" lon="13.701273">
        <ele>107</ele>
        <time>2014-05-17T12:18:26Z</time>
      </trkpt>
      <trkpt lat="56.354619" lon="13.701336">
        <ele>107.2</ele>
        <time>2014-05-17T12:18:27Z</time>
      </trkpt>
      <trkpt lat="56.354594" lon="13.701362">
        <ele>107.3</ele>
        <time>2014-05-17T12:18:28Z</time>
      </trkpt>
      <trkpt lat="56.354572" lon="13.70141">
        <ele>107.4</ele>
        <time>2014-05-17T12:18:29Z</time>
      </trkpt>
      <trkpt lat="56.354542" lon="13.701451">
        <ele>107.5</ele>
        <time>2014-05-17T12:18:30Z</time>
      </trkpt>
      <trkpt lat="56.354519" lon="13.701483">
        <ele>107.6</ele>
        <time>2014-05-17T12:18:31Z</time>
      </trkpt>
      <trkpt lat="56.35449" lon="13.701562">
        <ele>107.8</ele>
        <time>2014-05-17T12:18:33Z</time>
      </trkpt>
      <trkpt lat="56.354459" lon="13.701594">
        <ele>107.9</ele>
        <time>2014-05-17T12:18:35Z</time>
      </trkpt>
      <trkpt lat="56.35443" lon="13.701583">
        <ele>107.9</ele>
        <time>2014-05-17T12:18:44Z</time>
      </trkpt>
      <trkpt lat="56.354402" lon="13.701556">
        <ele>107.8</ele>
        <time>2014-05-17T12:19:08Z</time>
      </trkpt>
      <trkpt lat="56.354401" lon="13.7015">
        <ele>107.7</ele>
        <time>2014-05-17T12:19:11Z</time>
      </trkpt>
      <trkpt lat="56.354406" lon="13.701452">
        <ele>107.5</ele>
        <time>2014-05-17T12:19:14Z</time>
      </trkpt>
      <trkpt lat="56.354415" lon="13.701404">
        <ele>107.4</ele>
        <time>2014-05-17T12:19:17Z</time>
      </trkpt>
      <trkpt lat="56.354432" lon="13.701345">
        <ele>107.2</ele>
        <time>2014-05-17T12:19:20Z</time>
      </trkpt>
      <trkpt lat="56.354442" lon="13.701297">
        <ele>107.1</ele>
        <time>2014-05-17T12:19:23Z</time>
      </trkpt>
      <trkpt lat="56.354427" lon="13.701247">
        <ele>107</ele>
        <time>2014-05-17T12:19:26Z</time>
      </trkpt>
      <trkpt lat="56.35441" lon="13.701203">
        <ele>106.9</ele>
        <time>2014-05-17T12:19:30Z</time>
      </trkpt>
      <trkpt lat="56.354398" lon="13.701157">
        <ele>106.9</ele>
        <time>2014-05-17T12:19:34Z</time>
      </trkpt>
      <trkpt lat="56.354387" lon="13.701108">
        <ele>106.8</ele>
        <time>2014-05-17T12:19:40Z</time>
      </trkpt>
      <trkpt lat="56.354377" lon="13.701058">
        <ele>106.7</ele>
        <time>2014-05-17T12:20:06Z</time>
      </trkpt>
      <trkpt lat="56.354341" lon="13.701047">
        <ele>106.7</ele>
        <time>2014-05-17T12:20:10Z</time>
      </trkpt>
      <trkpt lat="56.354313" lon="13.701026">
        <ele>106.6</ele>
        <time>2014-05-17T12:20:17Z</time>
      </trkpt>
      <trkpt lat="56.354296" lon="13.700985">
        <ele>106.6</ele>
        <time>2014-05-17T12:20:21Z</time>
      </trkpt>
      <trkpt lat="56.35427" lon="13.701006">
        <ele>106.6</ele>
        <time>2014-05-17T12:20:54Z</time>
      </trkpt>
      <trkpt lat="56.354263" lon="13.70106">
        <ele>106.7</ele>
        <time>2014-05-17T12:20:58Z</time>
      </trkpt>
      <trkpt lat="56.354261" lon="13.701135">
        <ele>106.8</ele>
        <time>2014-05-17T12:21:01Z</time>
      </trkpt>
      <trkpt lat="56.35427" lon="13.70119">
        <ele>106.9</ele>
        <time>2014-05-17T12:21:03Z</time>
      </trkpt>
      <trkpt lat="56.354281" lon="13.701241">
        <ele>107</ele>
        <time>2014-05-17T12:21:05Z</time>
      </trkpt>
      <trkpt lat="56.354287" lon="13.701298">
        <ele>107.1</ele>
        <time>2014-05-17T12:21:16Z</time>
      </trkpt>
      <trkpt lat="56.354298" lon="13.701345">
        <ele>107.3</ele>
        <time>2014-05-17T12:21:22Z</time>
      </trkpt>
      <trkpt lat="56.354302" lon="13.701405">
        <ele>107.4</ele>
        <time>2014-05-17T12:21:31Z</time>
      </trkpt>
      <trkpt lat="56.354309" lon="13.701465">
        <ele>107.6</ele>
        <time>2014-05-17T12:21:34Z</time>
      </trkpt>
      <trkpt lat="56.35431" lon="13.701516">
        <ele>107.7</ele>
        <time>2014-05-17T12:21:38Z</time>
      </trkpt>
      <trkpt lat="56.354308" lon="13.701576">
        <ele>107.9</ele>
        <time>2014-05-17T12:21:56Z</time>
      </trkpt>
      <trkpt lat="56.354291" lon="13.701643">
        <ele>108.1</ele>
        <time>2014-05-17T12:21:58Z</time>
      </trkpt>
      <trkpt lat="56.354267" lon="13.701714">
        <ele>108.3</ele>
        <time>2014-05-17T12:22:00Z</time>
      </trkpt>
      <trkpt lat="56.354253" lon="13.701755">
        <ele>108.5</ele>
        <time>2014-05-17T12:22:01Z</time>
      </trkpt>
      <trkpt lat="56.354225" lon="13.701835">
        <ele>108.7</ele>
        <time>2014-05-17T12:22:03Z</time>
      </trkpt>
      <trkpt lat="56.354198" lon="13.701917">
        <ele>109</ele>
        <time>2014-05-17T12:22:05Z</time>
      </trkpt>
      <trkpt lat="56.35418" lon="13.701956">
        <ele>109.1</ele>
        <time>2014-05-17T12:22:06Z</time>
      </trkpt>
      <trkpt lat="56.354162" lon="13.701995">
        <ele>109.2</ele>
        <time>2014-05-17T12:22:07Z</time>
      </trkpt>
      <trkpt lat="56.354139" lon="13.702042">
        <ele>109.4</ele>
        <time>2014-05-17T12:22:08Z</time>
      </trkpt>
      <trkpt lat="56.354115" lon="13.702087">
        <ele>109.6</ele>
        <time>2014-05-17T12:22:09Z</time>
      </trkpt>
      <trkpt lat="56.354087" lon="13.702126">
        <ele>109.6</ele>
        <time>2014-05-17T12:22:10Z</time>
      </trkpt>
      <trkpt lat="56.354061" lon="13.702162">
        <ele>109.7</ele>
        <time>2014-05-17T12:22:11Z</time>
      </trkpt>
      <trkpt lat="56.354034" lon="13.702196">
        <ele>109.7</ele>
        <time>2014-05-17T12:22:12Z</time>
      </trkpt>
      <trkpt lat="56.354005" lon="13.702225">
        <ele>109.8</ele>
        <time>2014-05-17T12:22:13Z</time>
      </trkpt>
      <trkpt lat="56.353974" lon="13.702249">
        <ele>109.9</ele>
        <time>2014-05-17T12:22:14Z</time>
      </trkpt>
      <trkpt lat="56.353941" lon="13.702268">
        <ele>109.9</ele>
        <time>2014-05-17T12:22:15Z</time>
      </trkpt>
      <trkpt lat="56.353907" lon="13.702284">
        <ele>110</ele>
        <time>2014-05-17T12:22:16Z</time>
      </trkpt>
      <trkpt lat="56.353873" lon="13.702301">
        <ele>110.1</ele>
        <time>2014-05-17T12:22:17Z</time>
      </trkpt>
      <trkpt lat="56.35384" lon="13.702318">
        <ele>110.1</ele>
        <time>2014-05-17T12:22:18Z</time>
      </trkpt>
      <trkpt lat="56.353806" lon="13.702335">
        <ele>110.2</ele>
        <time>2014-05-17T12:22:19Z</time>
      </trkpt>
      <trkpt lat="56.353777" lon="13.702348">
        <ele>110.3</ele>
        <time>2014-05-17T12:22:20Z</time>
      </trkpt>
      <trkpt lat="56.353748" lon="13.702361">
        <ele>110.3</ele>
        <time>2014-05-17T12:22:21Z</time>
      </trkpt>
      <trkpt lat="56.353719" lon="13.702372">
        <ele>110.2</ele>
        <time>2014-05-17T12:22:22Z</time>
      </trkpt>
      <trkpt lat="56.353691" lon="13.70238">
        <ele>110.1</ele>
        <time>2014-05-17T12:22:23Z</time>
      </trkpt>
      <trkpt lat="56.353639" lon="13.702392">
        <ele>110</ele>
        <time>2014-05-17T12:22:25Z</time>
      </trkpt>
      <trkpt lat="56.353596" lon="13.70241">
        <ele>109.9</ele>
        <time>2014-05-17T12:22:27Z</time>
      </trkpt>
      <trkpt lat="56.353563" lon="13.702437">
        <ele>109.8</ele>
        <time>2014-05-17T12:22:29Z</time>
      </trkpt>
      <trkpt lat="56.353529" lon="13.702453">
        <ele>109.7</ele>
        <time>2014-05-17T12:22:31Z</time>
      </trkpt>
      <trkpt lat="56.353496" lon="13.702465">
        <ele>109.7</ele>
        <time>2014-05-17T12:22:33Z</time>
      </trkpt>
      <trkpt lat="56.353464" lon="13.702477">
        <ele>109.6</ele>
        <time>2014-05-17T12:22:35Z</time>
      </trkpt>
      <trkpt lat="56.353435" lon="13.702494">
        <ele>109.5</ele>
        <time>2014-05-17T12:22:37Z</time>
      </trkpt>
      <trkpt lat="56.353405" lon="13.70251">
        <ele>109.5</ele>
        <time>2014-05-17T12:22:39Z</time>
      </trkpt>
      <trkpt lat="56.353371" lon="13.702524">
        <ele>109.4</ele>
        <time>2014-05-17T12:22:41Z</time>
      </trkpt>
      <trkpt lat="56.353334" lon="13.702541">
        <ele>109.4</ele>
        <time>2014-05-17T12:22:43Z</time>
      </trkpt>
      <trkpt lat="56.353298" lon="13.702554">
        <ele>109.3</ele>
        <time>2014-05-17T12:22:45Z</time>
      </trkpt>
      <trkpt lat="56.353262" lon="13.702557">
        <ele>109.2</ele>
        <time>2014-05-17T12:22:47Z</time>
      </trkpt>
      <trkpt lat="56.353228" lon="13.702564">
        <ele>109.2</ele>
        <time>2014-05-17T12:22:49Z</time>
      </trkpt>
      <trkpt lat="56.353195" lon="13.702566">
        <ele>109.1</ele>
        <time>2014-05-17T12:22:51Z</time>
      </trkpt>
      <trkpt lat="56.35316" lon="13.702566">
        <ele>109</ele>
        <time>2014-05-17T12:22:53Z</time>
      </trkpt>
      <trkpt lat="56.353126" lon="13.70257">
        <ele>108.9</ele>
        <time>2014-05-17T12:22:55Z</time>
      </trkpt>
      <trkpt lat="56.353092" lon="13.702576">
        <ele>108.8</ele>
        <time>2014-05-17T12:22:57Z</time>
      </trkpt>
      <trkpt lat="56.353053" lon="13.702577">
        <ele>108.7</ele>
        <time>2014-05-17T12:22:59Z</time>
      </trkpt>
      <trkpt lat="56.353012" lon="13.702563">
        <ele>108.6</ele>
        <time>2014-05-17T12:23:01Z</time>
      </trkpt>
      <trkpt lat="56.352947" lon="13.702531">
        <ele>108.2</ele>
        <time>2014-05-17T12:23:02Z</time>
      </trkpt>
      <trkpt lat="56.352896" lon="13.702502">
        <ele>108.1</ele>
        <time>2014-05-17T12:23:03Z</time>
      </trkpt>
      <trkpt lat="56.352829" lon="13.702456">
        <ele>108.3</ele>
        <time>2014-05-17T12:23:04Z</time>
      </trkpt>
      <trkpt lat="56.352772" lon="13.702416">
        <ele>108.5</ele>
        <time>2014-05-17T12:23:05Z</time>
      </trkpt>
      <trkpt lat="56.352702" lon="13.702384">
        <ele>108.8</ele>
        <time>2014-05-17T12:23:06Z</time>
      </trkpt>
      <trkpt lat="56.352636" lon="13.702378">
        <ele>109.2</ele>
        <time>2014-05-17T12:23:07Z</time>
      </trkpt>
      <trkpt lat="56.352559" lon="13.702411">
        <ele>109.8</ele>
        <time>2014-05-17T12:23:08Z</time>
      </trkpt>
      <trkpt lat="56.35248" lon="13.702434">
        <ele>110.4</ele>
        <time>2014-05-17T12:23:09Z</time>
      </trkpt>
      <trkpt lat="56.352396" lon="13.702467">
        <ele>111</ele>
        <time>2014-05-17T12:23:10Z</time>
      </trkpt>
      <trkpt lat="56.352313" lon="13.702494">
        <ele>111.6</ele>
        <time>2014-05-17T12:23:11Z</time>
      </trkpt>
      <trkpt lat="56.352233" lon="13.702507">
        <ele>112.1</ele>
        <time>2014-05-17T12:23:12Z</time>
      </trkpt>
      <trkpt lat="56.352155" lon="13.702511">
        <ele>112.6</ele>
        <time>2014-05-17T12:23:13Z</time>
      </trkpt>
      <trkpt lat="56.352078" lon="13.702524">
        <ele>113.1</ele>
        <time>2014-05-17T12:23:14Z</time>
      </trkpt>
      <trkpt lat="56.352006" lon="13.702551">
        <ele>113.9</ele>
        <time>2014-05-17T12:23:15Z</time>
      </trkpt>
      <trkpt lat="56.35195" lon="13.702575">
        <ele>114.5</ele>
        <time>2014-05-17T12:23:16Z</time>
      </trkpt>
      <trkpt lat="56.351894" lon="13.702604">
        <ele>115.1</ele>
        <time>2014-05-17T12:23:17Z</time>
      </trkpt>
      <trkpt lat="56.351841" lon="13.702632">
        <ele>115.7</ele>
        <time>2014-05-17T12:23:18Z</time>
      </trkpt>
      <trkpt lat="56.351798" lon="13.702662">
        <ele>116.1</ele>
        <time>2014-05-17T12:23:19Z</time>
      </trkpt>
      <trkpt lat="56.351764" lon="13.702685">
        <ele>116.4</ele>
        <time>2014-05-17T12:23:20Z</time>
      </trkpt>
      <trkpt lat="56.35173" lon="13.702716">
        <ele>116.8</ele>
        <time>2014-05-17T12:23:21Z</time>
      </trkpt>
      <trkpt lat="56.351704" lon="13.70273">
        <ele>117</ele>
        <time>2014-05-17T12:23:22Z</time>
      </trkpt>
      <trkpt lat="56.351672" lon="13.702753">
        <ele>117.4</ele>
        <time>2014-05-17T12:23:23Z</time>
      </trkpt>
      <trkpt lat="56.351623" lon="13.702771">
        <ele>117.8</ele>
        <time>2014-05-17T12:23:25Z</time>
      </trkpt>
      <trkpt lat="56.351586" lon="13.702787">
        <ele>118.1</ele>
        <time>2014-05-17T12:23:27Z</time>
      </trkpt>
      <trkpt lat="56.351554" lon="13.702783">
        <ele>118.4</ele>
        <time>2014-05-17T12:23:28Z</time>
      </trkpt>
      <trkpt lat="56.351522" lon="13.702771">
        <ele>118.7</ele>
        <time>2014-05-17T12:23:29Z</time>
      </trkpt>
      <trkpt lat="56.351495" lon="13.702759">
        <ele>119</ele>
        <time>2014-05-17T12:23:30Z</time>
      </trkpt>
      <trkpt lat="56.351468" lon="13.70275">
        <ele>119.2</ele>
        <time>2014-05-17T12:23:31Z</time>
      </trkpt>
      <trkpt lat="56.351415" lon="13.702735">
        <ele>119.7</ele>
        <time>2014-05-17T12:23:33Z</time>
      </trkpt>
      <trkpt lat="56.351369" lon="13.70273">
        <ele>120.1</ele>
        <time>2014-05-17T12:23:35Z</time>
      </trkpt>
      <trkpt lat="56.351338" lon="13.70273">
        <ele>120.4</ele>
        <time>2014-05-17T12:23:37Z</time>
      </trkpt>
      <trkpt lat="56.351312" lon="13.702746">
        <ele>120.6</ele>
        <time>2014-05-17T12:23:39Z</time>
      </trkpt>
      <trkpt lat="56.351284" lon="13.702757">
        <ele>120.9</ele>
        <time>2014-05-17T12:23:42Z</time>
      </trkpt>
      <trkpt lat="56.351257" lon="13.702775">
        <ele>121.1</ele>
        <time>2014-05-17T12:23:44Z</time>
      </trkpt>
      <trkpt lat="56.351209" lon="13.70278">
        <ele>121.2</ele>
        <time>2014-05-17T12:23:46Z</time>
      </trkpt>
      <trkpt lat="56.351178" lon="13.702765">
        <ele>121.2</ele>
        <time>2014-05-17T12:23:47Z</time>
      </trkpt>
      <trkpt lat="56.351148" lon="13.702745">
        <ele>121.3</ele>
        <time>2014-05-17T12:23:48Z</time>
      </trkpt>
      <trkpt lat="56.351113" lon="13.702725">
        <ele>121.3</ele>
        <time>2014-05-17T12:23:49Z</time>
      </trkpt>
      <trkpt lat="56.351078" lon="13.702701">
        <ele>121.4</ele>
        <time>2014-05-17T12:23:50Z</time>
      </trkpt>
      <trkpt lat="56.351048" lon="13.702667">
        <ele>121.4</ele>
        <time>2014-05-17T12:23:51Z</time>
      </trkpt>
      <trkpt lat="56.351019" lon="13.702627">
        <ele>121.5</ele>
        <time>2014-05-17T12:23:52Z</time>
      </trkpt>
      <trkpt lat="56.350995" lon="13.70258">
        <ele>121.7</ele>
        <time>2014-05-17T12:23:53Z</time>
      </trkpt>
      <trkpt lat="56.350972" lon="13.702536">
        <ele>121.8</ele>
        <time>2014-05-17T12:23:54Z</time>
      </trkpt>
      <trkpt lat="56.350945" lon="13.702494">
        <ele>121.9</ele>
        <time>2014-05-17T12:23:55Z</time>
      </trkpt>
      <trkpt lat="56.350916" lon="13.702461">
        <ele>122</ele>
        <time>2014-05-17T12:23:56Z</time>
      </trkpt>
      <trkpt lat="56.350888" lon="13.702435">
        <ele>122.1</ele>
        <time>2014-05-17T12:23:57Z</time>
      </trkpt>
      <trkpt lat="56.350861" lon="13.702411">
        <ele>122.2</ele>
        <time>2014-05-17T12:23:58Z</time>
      </trkpt>
      <trkpt lat="56.350839" lon="13.702384">
        <ele>122.3</ele>
        <time>2014-05-17T12:23:59Z</time>
      </trkpt>
      <trkpt lat="56.350808" lon="13.702338">
        <ele>122.4</ele>
        <time>2014-05-17T12:24:01Z</time>
      </trkpt>
      <trkpt lat="56.350772" lon="13.702307">
        <ele>122.6</ele>
        <time>2014-05-17T12:24:03Z</time>
      </trkpt>
      <trkpt lat="56.350745" lon="13.702289">
        <ele>122.7</ele>
        <time>2014-05-17T12:24:05Z</time>
      </trkpt>
      <trkpt lat="56.350722" lon="13.702257">
        <ele>122.8</ele>
        <time>2014-05-17T12:24:10Z</time>
      </trkpt>
      <trkpt lat="56.350695" lon="13.702232">
        <ele>122.9</ele>
        <time>2014-05-17T12:24:14Z</time>
      </trkpt>
      <trkpt lat="56.350667" lon="13.702214">
        <ele>123</ele>
        <time>2014-05-17T12:24:17Z</time>
      </trkpt>
      <trkpt lat="56.350644" lon="13.702184">
        <ele>123.2</ele>
        <time>2014-05-17T12:24:20Z</time>
      </trkpt>
      <trkpt lat="56.350611" lon="13.702169">
        <ele>123.3</ele>
        <time>2014-05-17T12:24:24Z</time>
      </trkpt>
      <trkpt lat="56.350578" lon="13.70217">
        <ele>123.3</ele>
        <time>2014-05-17T12:24:27Z</time>
      </trkpt>
      <trkpt lat="56.350544" lon="13.702146">
        <ele>123.5</ele>
        <time>2014-05-17T12:24:30Z</time>
      </trkpt>
      <trkpt lat="56.350511" lon="13.702112">
        <ele>123.7</ele>
        <time>2014-05-17T12:24:33Z</time>
      </trkpt>
      <trkpt lat="56.350478" lon="13.702076">
        <ele>123.9</ele>
        <time>2014-05-17T12:24:36Z</time>
      </trkpt>
      <trkpt lat="56.350451" lon="13.702029">
        <ele>124</ele>
        <time>2014-05-17T12:24:39Z</time>
      </trkpt>
      <trkpt lat="56.35042" lon="13.701986">
        <ele>124.1</ele>
        <time>2014-05-17T12:24:42Z</time>
      </trkpt>
      <trkpt lat="56.350396" lon="13.701959">
        <ele>124.1</ele>
        <time>2014-05-17T12:24:44Z</time>
      </trkpt>
      <trkpt lat="56.350365" lon="13.701913">
        <ele>124.1</ele>
        <time>2014-05-17T12:24:47Z</time>
      </trkpt>
      <trkpt lat="56.35034" lon="13.70189">
        <ele>124</ele>
        <time>2014-05-17T12:24:49Z</time>
      </trkpt>
      <trkpt lat="56.350313" lon="13.701851">
        <ele>124</ele>
        <time>2014-05-17T12:24:51Z</time>
      </trkpt>
      <trkpt lat="56.35029" lon="13.701819">
        <ele>124</ele>
        <time>2014-05-17T12:24:53Z</time>
      </trkpt>
      <trkpt lat="56.350257" lon="13.701794">
        <ele>124</ele>
        <time>2014-05-17T12:24:56Z</time>
      </trkpt>
      <trkpt lat="56.35022" lon="13.701772">
        <ele>123.9</ele>
        <time>2014-05-17T12:24:59Z</time>
      </trkpt>
      <trkpt lat="56.350192" lon="13.701727">
        <ele>124</ele>
        <time>2014-05-17T12:25:02Z</time>
      </trkpt>
      <trkpt lat="56.350172" lon="13.701695">
        <ele>124</ele>
        <time>2014-05-17T12:25:04Z</time>
      </trkpt>
      <trkpt lat="56.350146" lon="13.701669">
        <ele>124</ele>
        <time>2014-05-17T12:25:06Z</time>
      </trkpt>
      <trkpt lat="56.350123" lon="13.701639">
        <ele>124</ele>
        <time>2014-05-17T12:25:08Z</time>
      </trkpt>
      <trkpt lat="56.350106" lon="13.701599">
        <ele>124.1</ele>
        <time>2014-05-17T12:25:10Z</time>
      </trkpt>
      <trkpt lat="56.350082" lon="13.701569">
        <ele>124.2</ele>
        <time>2014-05-17T12:25:12Z</time>
      </trkpt>
      <trkpt lat="56.350058" lon="13.701516">
        <ele>124.3</ele>
        <time>2014-05-17T12:25:15Z</time>
      </trkpt>
      <trkpt lat="56.350038" lon="13.701458">
        <ele>124.4</ele>
        <time>2014-05-17T12:25:18Z</time>
      </trkpt>
      <trkpt lat="56.350004" lon="13.701423">
        <ele>124.5</ele>
        <time>2014-05-17T12:25:21Z</time>
      </trkpt>
      <trkpt lat="56.349985" lon="13.701387">
        <ele>124.6</ele>
        <time>2014-05-17T12:25:23Z</time>
      </trkpt>
      <trkpt lat="56.349966" lon="13.701338">
        <ele>124.7</ele>
        <time>2014-05-17T12:25:25Z</time>
      </trkpt>
      <trkpt lat="56.349948" lon="13.701286">
        <ele>124.9</ele>
        <time>2014-05-17T12:25:28Z</time>
      </trkpt>
      <trkpt lat="56.34993" lon="13.701247">
        <ele>125</ele>
        <time>2014-05-17T12:25:31Z</time>
      </trkpt>
      <trkpt lat="56.349896" lon="13.701216">
        <ele>125.1</ele>
        <time>2014-05-17T12:25:34Z</time>
      </trkpt>
      <trkpt lat="56.349867" lon="13.701188">
        <ele>125.2</ele>
        <time>2014-05-17T12:25:37Z</time>
      </trkpt>
      <trkpt lat="56.349849" lon="13.701137">
        <ele>125.3</ele>
        <time>2014-05-17T12:25:41Z</time>
      </trkpt>
      <trkpt lat="56.349838" lon="13.701077">
        <ele>125.5</ele>
        <time>2014-05-17T12:25:45Z</time>
      </trkpt>
      <trkpt lat="56.349835" lon="13.701025">
        <ele>125.6</ele>
        <time>2014-05-17T12:25:48Z</time>
      </trkpt>
      <trkpt lat="56.349829" lon="13.700975">
        <ele>125.8</ele>
        <time>2014-05-17T12:25:51Z</time>
      </trkpt>
      <trkpt lat="56.349834" lon="13.700917">
        <ele>126</ele>
        <time>2014-05-17T12:25:54Z</time>
      </trkpt>
      <trkpt lat="56.349836" lon="13.700866">
        <ele>126.1</ele>
        <time>2014-05-17T12:25:57Z</time>
      </trkpt>
      <trkpt lat="56.349829" lon="13.700817">
        <ele>126.3</ele>
        <time>2014-05-17T12:26:00Z</time>
      </trkpt>
      <trkpt lat="56.349827" lon="13.700761">
        <ele>126.4</ele>
        <time>2014-05-17T12:26:03Z</time>
      </trkpt>
      <trkpt lat="56.349824" lon="13.700699">
        <ele>126.6</ele>
        <time>2014-05-17T12:26:06Z</time>
      </trkpt>
      <trkpt lat="56.349815" lon="13.700634">
        <ele>126.8</ele>
        <time>2014-05-17T12:26:09Z</time>
      </trkpt>
      <trkpt lat="56.349805" lon="13.700569">
        <ele>127</ele>
        <time>2014-05-17T12:26:12Z</time>
      </trkpt>
      <trkpt lat="56.349782" lon="13.700521">
        <ele>127.2</ele>
        <time>2014-05-17T12:26:15Z</time>
      </trkpt>
      <trkpt lat="56.349756" lon="13.700483">
        <ele>127.4</ele>
        <time>2014-05-17T12:26:18Z</time>
      </trkpt>
      <trkpt lat="56.34973" lon="13.700469">
        <ele>127.5</ele>
        <time>2014-05-17T12:26:24Z</time>
      </trkpt>
      <trkpt lat="56.349698" lon="13.700466">
        <ele>127.6</ele>
        <time>2014-05-17T12:26:28Z</time>
      </trkpt>
      <trkpt lat="56.349665" lon="13.700463">
        <ele>127.6</ele>
        <time>2014-05-17T12:26:31Z</time>
      </trkpt>
      <trkpt lat="56.349627" lon="13.700442">
        <ele>127.8</ele>
        <time>2014-05-17T12:26:34Z</time>
      </trkpt>
      <trkpt lat="56.349593" lon="13.700411">
        <ele>128</ele>
        <time>2014-05-17T12:26:37Z</time>
      </trkpt>
      <trkpt lat="56.349566" lon="13.700403">
        <ele>127.8</ele>
        <time>2014-05-17T12:26:39Z</time>
      </trkpt>
      <trkpt lat="56.349531" lon="13.700402">
        <ele>127.6</ele>
        <time>2014-05-17T12:26:41Z</time>
      </trkpt>
      <trkpt lat="56.349499" lon="13.700394">
        <ele>127.3</ele>
        <time>2014-05-17T12:26:43Z</time>
      </trkpt>
      <trkpt lat="56.349472" lon="13.700371">
        <ele>127</ele>
        <time>2014-05-17T12:26:45Z</time>
      </trkpt>
      <trkpt lat="56.34944" lon="13.700334">
        <ele>126.7</ele>
        <time>2014-05-17T12:26:48Z</time>
      </trkpt>
      <trkpt lat="56.349413" lon="13.700299">
        <ele>126.4</ele>
        <time>2014-05-17T12:26:51Z</time>
      </trkpt>
      <trkpt lat="56.349385" lon="13.700263">
        <ele>126.1</ele>
        <time>2014-05-17T12:26:54Z</time>
      </trkpt>
      <trkpt lat="56.349358" lon="13.700241">
        <ele>125.8</ele>
        <time>2014-05-17T12:26:57Z</time>
      </trkpt>
      <trkpt lat="56.349328" lon="13.700224">
        <ele>125.5</ele>
        <time>2014-05-17T12:27:01Z</time>
      </trkpt>
      <trkpt lat="56.349303" lon="13.700242">
        <ele>125.4</ele>
        <time>2014-05-17T12:27:04Z</time>
      </trkpt>
      <trkpt lat="56.349277" lon="13.700269">
        <ele>125.3</ele>
        <time>2014-05-17T12:27:06Z</time>
      </trkpt>
      <trkpt lat="56.349249" lon="13.700311">
        <ele>125.3</ele>
        <time>2014-05-17T12:27:09Z</time>
      </trkpt>
      <trkpt lat="56.349221" lon="13.700336">
        <ele>125.1</ele>
        <time>2014-05-17T12:27:12Z</time>
      </trkpt>
      <trkpt lat="56.349193" lon="13.70035">
        <ele>125</ele>
        <time>2014-05-17T12:27:15Z</time>
      </trkpt>
      <trkpt lat="56.349161" lon="13.70035">
        <ele>124.8</ele>
        <time>2014-05-17T12:27:19Z</time>
      </trkpt>
      <trkpt lat="56.349135" lon="13.700334">
        <ele>124.5</ele>
        <time>2014-05-17T12:27:22Z</time>
      </trkpt>
      <trkpt lat="56.349106" lon="13.700312">
        <ele>124.3</ele>
        <time>2014-05-17T12:27:25Z</time>
      </trkpt>
      <trkpt lat="56.349066" lon="13.700303">
        <ele>124</ele>
        <time>2014-05-17T12:27:28Z</time>
      </trkpt>
      <trkpt lat="56.349028" lon="13.700288">
        <ele>123.6</ele>
        <time>2014-05-17T12:27:31Z</time>
      </trkpt>
      <trkpt lat="56.348992" lon="13.700268">
        <ele>123.3</ele>
        <time>2014-05-17T12:27:34Z</time>
      </trkpt>
      <trkpt lat="56.348956" lon="13.700254">
        <ele>123</ele>
        <time>2014-05-17T12:27:37Z</time>
      </trkpt>
      <trkpt lat="56.348932" lon="13.700207">
        <ele>122.8</ele>
        <time>2014-05-17T12:27:40Z</time>
      </trkpt>
      <trkpt lat="56.348902" lon="13.700185">
        <ele>122.5</ele>
        <time>2014-05-17T12:27:42Z</time>
      </trkpt>
      <trkpt lat="56.348872" lon="13.700137">
        <ele>122.2</ele>
        <time>2014-05-17T12:27:45Z</time>
      </trkpt>
      <trkpt lat="56.348843" lon="13.700108">
        <ele>121.9</ele>
        <time>2014-05-17T12:27:47Z</time>
      </trkpt>
      <trkpt lat="56.348821" lon="13.700075">
        <ele>121.7</ele>
        <time>2014-05-17T12:27:49Z</time>
      </trkpt>
      <trkpt lat="56.348798" lon="13.70004">
        <ele>121.4</ele>
        <time>2014-05-17T12:27:51Z</time>
      </trkpt>
      <trkpt lat="56.348775" lon="13.700013">
        <ele>121.2</ele>
        <time>2014-05-17T12:27:53Z</time>
      </trkpt>
      <trkpt lat="56.348754" lon="13.699954">
        <ele>120.9</ele>
        <time>2014-05-17T12:27:56Z</time>
      </trkpt>
      <trkpt lat="56.348737" lon="13.699893">
        <ele>120.7</ele>
        <time>2014-05-17T12:27:59Z</time>
      </trkpt>
      <trkpt lat="56.348724" lon="13.699827">
        <ele>120.4</ele>
        <time>2014-05-17T12:28:02Z</time>
      </trkpt>
      <trkpt lat="56.348709" lon="13.699769">
        <ele>120.2</ele>
        <time>2014-05-17T12:28:05Z</time>
      </trkpt>
      <trkpt lat="56.348692" lon="13.699714">
        <ele>120</ele>
        <time>2014-05-17T12:28:08Z</time>
      </trkpt>
      <trkpt lat="56.348668" lon="13.699668">
        <ele>119.8</ele>
        <time>2014-05-17T12:28:11Z</time>
      </trkpt>
      <trkpt lat="56.348652" lon="13.699609">
        <ele>119.6</ele>
        <time>2014-05-17T12:28:14Z</time>
      </trkpt>
      <trkpt lat="56.348638" lon="13.699543">
        <ele>119.4</ele>
        <time>2014-05-17T12:28:17Z</time>
      </trkpt>
      <trkpt lat="56.348629" lon="13.699497">
        <ele>119.3</ele>
        <time>2014-05-17T12:28:19Z</time>
      </trkpt>
      <trkpt lat="56.348622" lon="13.699448">
        <ele>119.2</ele>
        <time>2014-05-17T12:28:21Z</time>
      </trkpt>
      <trkpt lat="56.348604" lon="13.699383">
        <ele>119.1</ele>
        <time>2014-05-17T12:28:24Z</time>
      </trkpt>
      <trkpt lat="56.348595" lon="13.699336">
        <ele>119</ele>
        <time>2014-05-17T12:28:26Z</time>
      </trkpt>
      <trkpt lat="56.348587" lon="13.699285">
        <ele>118.9</ele>
        <time>2014-05-17T12:28:28Z</time>
      </trkpt>
      <trkpt lat="56.34858" lon="13.699235">
        <ele>118.9</ele>
        <time>2014-05-17T12:28:30Z</time>
      </trkpt>
      <trkpt lat="56.348568" lon="13.699168">
        <ele>118.7</ele>
        <time>2014-05-17T12:28:33Z</time>
      </trkpt>
      <trkpt lat="56.348558" lon="13.699116">
        <ele>118.6</ele>
        <time>2014-05-17T12:28:35Z</time>
      </trkpt>
      <trkpt lat="56.348546" lon="13.699069">
        <ele>118.6</ele>
        <time>2014-05-17T12:28:37Z</time>
      </trkpt>
      <trkpt lat="56.348532" lon="13.699024">
        <ele>118.5</ele>
        <time>2014-05-17T12:28:39Z</time>
      </trkpt>
      <trkpt lat="56.348513" lon="13.698964">
        <ele>118.3</ele>
        <time>2014-05-17T12:28:42Z</time>
      </trkpt>
      <trkpt lat="56.348507" lon="13.698904">
        <ele>118.3</ele>
        <time>2014-05-17T12:28:45Z</time>
      </trkpt>
      <trkpt lat="56.348497" lon="13.698845">
        <ele>118.2</ele>
        <time>2014-05-17T12:28:48Z</time>
      </trkpt>
      <trkpt lat="56.348484" lon="13.69878">
        <ele>118.1</ele>
        <time>2014-05-17T12:28:51Z</time>
      </trkpt>
      <trkpt lat="56.348457" lon="13.698741">
        <ele>117.9</ele>
        <time>2014-05-17T12:28:54Z</time>
      </trkpt>
      <trkpt lat="56.348442" lon="13.6987">
        <ele>117.9</ele>
        <time>2014-05-17T12:28:58Z</time>
      </trkpt>
      <trkpt lat="56.348432" lon="13.69865">
        <ele>117.9</ele>
        <time>2014-05-17T12:29:01Z</time>
      </trkpt>
      <trkpt lat="56.348424" lon="13.698584">
        <ele>117.9</ele>
        <time>2014-05-17T12:29:04Z</time>
      </trkpt>
      <trkpt lat="56.348421" lon="13.698532">
        <ele>117.9</ele>
        <time>2014-05-17T12:29:06Z</time>
      </trkpt>
      <trkpt lat="56.348416" lon="13.698481">
        <ele>117.9</ele>
        <time>2014-05-17T12:29:08Z</time>
      </trkpt>
      <trkpt lat="56.348401" lon="13.698436">
        <ele>117.8</ele>
        <time>2014-05-17T12:29:10Z</time>
      </trkpt>
      <trkpt lat="56.348379" lon="13.698402">
        <ele>117.8</ele>
        <time>2014-05-17T12:29:12Z</time>
      </trkpt>
      <trkpt lat="56.348363" lon="13.698362">
        <ele>117.8</ele>
        <time>2014-05-17T12:29:14Z</time>
      </trkpt>
      <trkpt lat="56.348346" lon="13.698295">
        <ele>117.8</ele>
        <time>2014-05-17T12:29:17Z</time>
      </trkpt>
      <trkpt lat="56.348335" lon="13.69825">
        <ele>117.8</ele>
        <time>2014-05-17T12:29:19Z</time>
      </trkpt>
      <trkpt lat="56.348323" lon="13.698206">
        <ele>117.8</ele>
        <time>2014-05-17T12:29:21Z</time>
      </trkpt>
      <trkpt lat="56.348305" lon="13.698164">
        <ele>117.8</ele>
        <time>2014-05-17T12:29:23Z</time>
      </trkpt>
      <trkpt lat="56.348287" lon="13.698124">
        <ele>117.8</ele>
        <time>2014-05-17T12:29:25Z</time>
      </trkpt>
      <trkpt lat="56.348266" lon="13.698082">
        <ele>117.9</ele>
        <time>2014-05-17T12:29:27Z</time>
      </trkpt>
      <trkpt lat="56.348246" lon="13.69804">
        <ele>117.9</ele>
        <time>2014-05-17T12:29:29Z</time>
      </trkpt>
      <trkpt lat="56.348239" lon="13.697983">
        <ele>117.9</ele>
        <time>2014-05-17T12:29:31Z</time>
      </trkpt>
      <trkpt lat="56.348234" lon="13.697923">
        <ele>118</ele>
        <time>2014-05-17T12:29:33Z</time>
      </trkpt>
      <trkpt lat="56.34823" lon="13.697858">
        <ele>118</ele>
        <time>2014-05-17T12:29:35Z</time>
      </trkpt>
      <trkpt lat="56.348225" lon="13.697798">
        <ele>118.1</ele>
        <time>2014-05-17T12:29:37Z</time>
      </trkpt>
      <trkpt lat="56.348214" lon="13.69775">
        <ele>118.1</ele>
        <time>2014-05-17T12:29:39Z</time>
      </trkpt>
      <trkpt lat="56.348201" lon="13.6977">
        <ele>118.2</ele>
        <time>2014-05-17T12:29:41Z</time>
      </trkpt>
      <trkpt lat="56.348193" lon="13.697651">
        <ele>118.2</ele>
        <time>2014-05-17T12:29:43Z</time>
      </trkpt>
      <trkpt lat="56.348184" lon="13.697602">
        <ele>118.3</ele>
        <time>2014-05-17T12:29:45Z</time>
      </trkpt>
      <trkpt lat="56.348181" lon="13.697553">
        <ele>118.3</ele>
        <time>2014-05-17T12:29:47Z</time>
      </trkpt>
      <trkpt lat="56.348175" lon="13.6975">
        <ele>118.3</ele>
        <time>2014-05-17T12:29:49Z</time>
      </trkpt>
      <trkpt lat="56.348169" lon="13.697447">
        <ele>118.4</ele>
        <time>2014-05-17T12:29:51Z</time>
      </trkpt>
      <trkpt lat="56.348161" lon="13.697396">
        <ele>118.4</ele>
        <time>2014-05-17T12:29:53Z</time>
      </trkpt>
      <trkpt lat="56.348158" lon="13.697347">
        <ele>118.5</ele>
        <time>2014-05-17T12:29:55Z</time>
      </trkpt>
      <trkpt lat="56.348151" lon="13.697277">
        <ele>118.6</ele>
        <time>2014-05-17T12:29:58Z</time>
      </trkpt>
      <trkpt lat="56.348134" lon="13.697217">
        <ele>118.6</ele>
        <time>2014-05-17T12:30:01Z</time>
      </trkpt>
      <trkpt lat="56.348122" lon="13.697169">
        <ele>118.7</ele>
        <time>2014-05-17T12:30:03Z</time>
      </trkpt>
      <trkpt lat="56.348113" lon="13.69712">
        <ele>118.7</ele>
        <time>2014-05-17T12:30:05Z</time>
      </trkpt>
      <trkpt lat="56.348107" lon="13.69707">
        <ele>118.8</ele>
        <time>2014-05-17T12:30:07Z</time>
      </trkpt>
      <trkpt lat="56.348105" lon="13.697022">
        <ele>118.9</ele>
        <time>2014-05-17T12:30:09Z</time>
      </trkpt>
      <trkpt lat="56.348093" lon="13.696952">
        <ele>119.1</ele>
        <time>2014-05-17T12:30:12Z</time>
      </trkpt>
      <trkpt lat="56.348084" lon="13.696886">
        <ele>119.3</ele>
        <time>2014-05-17T12:30:15Z</time>
      </trkpt>
      <trkpt lat="56.348085" lon="13.696822">
        <ele>119.4</ele>
        <time>2014-05-17T12:30:18Z</time>
      </trkpt>
      <trkpt lat="56.34808" lon="13.69676">
        <ele>119.6</ele>
        <time>2014-05-17T12:30:21Z</time>
      </trkpt>
      <trkpt lat="56.34805" lon="13.69672">
        <ele>119.7</ele>
        <time>2014-05-17T12:30:24Z</time>
      </trkpt>
      <trkpt lat="56.348023" lon="13.696711">
        <ele>119.8</ele>
        <time>2014-05-17T12:30:26Z</time>
      </trkpt>
      <trkpt lat="56.347987" lon="13.696701">
        <ele>119.8</ele>
        <time>2014-05-17T12:30:29Z</time>
      </trkpt>
      <trkpt lat="56.347958" lon="13.696684">
        <ele>119.9</ele>
        <time>2014-05-17T12:30:32Z</time>
      </trkpt>
      <trkpt lat="56.347929" lon="13.696696">
        <ele>119.9</ele>
        <time>2014-05-17T12:30:35Z</time>
      </trkpt>
      <trkpt lat="56.347899" lon="13.696696">
        <ele>119.9</ele>
        <time>2014-05-17T12:30:39Z</time>
      </trkpt>
      <trkpt lat="56.347872" lon="13.696669">
        <ele>120</ele>
        <time>2014-05-17T12:30:44Z</time>
      </trkpt>
      <trkpt lat="56.347844" lon="13.696659">
        <ele>120.1</ele>
        <time>2014-05-17T12:30:47Z</time>
      </trkpt>
      <trkpt lat="56.347812" lon="13.696637">
        <ele>120.1</ele>
        <time>2014-05-17T12:30:50Z</time>
      </trkpt>
      <trkpt lat="56.347793" lon="13.696591">
        <ele>120.2</ele>
        <time>2014-05-17T12:30:53Z</time>
      </trkpt>
      <trkpt lat="56.347767" lon="13.696548">
        <ele>120.3</ele>
        <time>2014-05-17T12:30:56Z</time>
      </trkpt>
      <trkpt lat="56.34774" lon="13.696508">
        <ele>120.4</ele>
        <time>2014-05-17T12:30:59Z</time>
      </trkpt>
      <trkpt lat="56.347723" lon="13.696464">
        <ele>120.5</ele>
        <time>2014-05-17T12:31:01Z</time>
      </trkpt>
      <trkpt lat="56.347708" lon="13.696419">
        <ele>120.6</ele>
        <time>2014-05-17T12:31:03Z</time>
      </trkpt>
      <trkpt lat="56.347691" lon="13.696353">
        <ele>120.8</ele>
        <time>2014-05-17T12:31:06Z</time>
      </trkpt>
      <trkpt lat="56.34768" lon="13.696309">
        <ele>120.9</ele>
        <time>2014-05-17T12:31:08Z</time>
      </trkpt>
      <trkpt lat="56.347648" lon="13.696262">
        <ele>121</ele>
        <time>2014-05-17T12:31:11Z</time>
      </trkpt>
      <trkpt lat="56.347617" lon="13.696218">
        <ele>121</ele>
        <time>2014-05-17T12:31:14Z</time>
      </trkpt>
      <trkpt lat="56.347598" lon="13.696159">
        <ele>121.1</ele>
        <time>2014-05-17T12:31:17Z</time>
      </trkpt>
      <trkpt lat="56.347578" lon="13.696112">
        <ele>121.2</ele>
        <time>2014-05-17T12:31:20Z</time>
      </trkpt>
      <trkpt lat="56.347554" lon="13.696084">
        <ele>121.2</ele>
        <time>2014-05-17T12:31:23Z</time>
      </trkpt>
      <trkpt lat="56.347523" lon="13.696051">
        <ele>121.3</ele>
        <time>2014-05-17T12:31:27Z</time>
      </trkpt>
      <trkpt lat="56.347492" lon="13.696029">
        <ele>121.3</ele>
        <time>2014-05-17T12:31:30Z</time>
      </trkpt>
      <trkpt lat="56.347467" lon="13.695988">
        <ele>121.3</ele>
        <time>2014-05-17T12:31:33Z</time>
      </trkpt>
      <trkpt lat="56.347453" lon="13.695932">
        <ele>121.3</ele>
        <time>2014-05-17T12:31:36Z</time>
      </trkpt>
      <trkpt lat="56.347436" lon="13.695871">
        <ele>121.4</ele>
        <time>2014-05-17T12:31:39Z</time>
      </trkpt>
      <trkpt lat="56.347428" lon="13.695825">
        <ele>121.4</ele>
        <time>2014-05-17T12:31:41Z</time>
      </trkpt>
      <trkpt lat="56.347414" lon="13.695782">
        <ele>121.4</ele>
        <time>2014-05-17T12:31:43Z</time>
      </trkpt>
      <trkpt lat="56.347396" lon="13.695724">
        <ele>121.5</ele>
        <time>2014-05-17T12:31:46Z</time>
      </trkpt>
      <trkpt lat="56.347393" lon="13.695664">
        <ele>121.5</ele>
        <time>2014-05-17T12:31:49Z</time>
      </trkpt>
      <trkpt lat="56.347389" lon="13.695607">
        <ele>121.6</ele>
        <time>2014-05-17T12:31:52Z</time>
      </trkpt>
      <trkpt lat="56.34736" lon="13.695573">
        <ele>121.5</ele>
        <time>2014-05-17T12:31:55Z</time>
      </trkpt>
      <trkpt lat="56.347346" lon="13.695524">
        <ele>121.5</ele>
        <time>2014-05-17T12:31:59Z</time>
      </trkpt>
      <trkpt lat="56.347329" lon="13.695479">
        <ele>121.5</ele>
        <time>2014-05-17T12:32:02Z</time>
      </trkpt>
      <trkpt lat="56.347322" lon="13.695427">
        <ele>121.6</ele>
        <time>2014-05-17T12:32:05Z</time>
      </trkpt>
      <trkpt lat="56.347304" lon="13.695379">
        <ele>121.4</ele>
        <time>2014-05-17T12:32:08Z</time>
      </trkpt>
      <trkpt lat="56.347319" lon="13.695315">
        <ele>121.3</ele>
        <time>2014-05-17T12:32:12Z</time>
      </trkpt>
      <trkpt lat="56.347326" lon="13.695247">
        <ele>121.2</ele>
        <time>2014-05-17T12:32:15Z</time>
      </trkpt>
      <trkpt lat="56.347321" lon="13.695177">
        <ele>121</ele>
        <time>2014-05-17T12:32:18Z</time>
      </trkpt>
      <trkpt lat="56.347333" lon="13.69511">
        <ele>120.9</ele>
        <time>2014-05-17T12:32:21Z</time>
      </trkpt>
      <trkpt lat="56.347331" lon="13.695045">
        <ele>120.7</ele>
        <time>2014-05-17T12:32:24Z</time>
      </trkpt>
      <trkpt lat="56.347325" lon="13.694979">
        <ele>120.5</ele>
        <time>2014-05-17T12:32:27Z</time>
      </trkpt>
      <trkpt lat="56.347321" lon="13.694907">
        <ele>120.3</ele>
        <time>2014-05-17T12:32:30Z</time>
      </trkpt>
      <trkpt lat="56.34732" lon="13.694858">
        <ele>120.2</ele>
        <time>2014-05-17T12:32:32Z</time>
      </trkpt>
      <trkpt lat="56.347304" lon="13.694804">
        <ele>120.1</ele>
        <time>2014-05-17T12:32:36Z</time>
      </trkpt>
      <trkpt lat="56.347292" lon="13.694747">
        <ele>119.9</ele>
        <time>2014-05-17T12:32:40Z</time>
      </trkpt>
      <trkpt lat="56.347281" lon="13.694686">
        <ele>119.7</ele>
        <time>2014-05-17T12:32:43Z</time>
      </trkpt>
      <trkpt lat="56.347264" lon="13.694629">
        <ele>119.5</ele>
        <time>2014-05-17T12:32:46Z</time>
      </trkpt>
      <trkpt lat="56.347247" lon="13.694581">
        <ele>119.4</ele>
        <time>2014-05-17T12:32:49Z</time>
      </trkpt>
      <trkpt lat="56.347233" lon="13.694538">
        <ele>119.3</ele>
        <time>2014-05-17T12:32:52Z</time>
      </trkpt>
      <trkpt lat="56.347221" lon="13.694492">
        <ele>119.2</ele>
        <time>2014-05-17T12:32:55Z</time>
      </trkpt>
      <trkpt lat="56.347223" lon="13.694443">
        <ele>119.1</ele>
        <time>2014-05-17T12:32:57Z</time>
      </trkpt>
      <trkpt lat="56.347228" lon="13.694382">
        <ele>119.1</ele>
        <time>2014-05-17T12:32:59Z</time>
      </trkpt>
      <trkpt lat="56.347233" lon="13.694332">
        <ele>119</ele>
        <time>2014-05-17T12:33:01Z</time>
      </trkpt>
      <trkpt lat="56.347241" lon="13.694271">
        <ele>118.9</ele>
        <time>2014-05-17T12:33:04Z</time>
      </trkpt>
      <trkpt lat="56.347246" lon="13.694223">
        <ele>118.9</ele>
        <time>2014-05-17T12:33:06Z</time>
      </trkpt>
      <trkpt lat="56.347227" lon="13.694166">
        <ele>118.8</ele>
        <time>2014-05-17T12:33:09Z</time>
      </trkpt>
      <trkpt lat="56.347236" lon="13.694114">
        <ele>118.7</ele>
        <time>2014-05-17T12:33:12Z</time>
      </trkpt>
      <trkpt lat="56.347241" lon="13.694057">
        <ele>118.6</ele>
        <time>2014-05-17T12:33:15Z</time>
      </trkpt>
      <trkpt lat="56.347225" lon="13.694005">
        <ele>118.5</ele>
        <time>2014-05-17T12:33:18Z</time>
      </trkpt>
      <trkpt lat="56.347222" lon="13.69395">
        <ele>118.4</ele>
        <time>2014-05-17T12:33:21Z</time>
      </trkpt>
      <trkpt lat="56.347214" lon="13.693887">
        <ele>118.3</ele>
        <time>2014-05-17T12:33:24Z</time>
      </trkpt>
      <trkpt lat="56.347206" lon="13.69384">
        <ele>118.3</ele>
        <time>2014-05-17T12:33:28Z</time>
      </trkpt>
      <trkpt lat="56.347188" lon="13.693797">
        <ele>118.2</ele>
        <time>2014-05-17T12:33:31Z</time>
      </trkpt>
      <trkpt lat="56.347174" lon="13.693727">
        <ele>118.1</ele>
        <time>2014-05-17T12:33:34Z</time>
      </trkpt>
      <trkpt lat="56.347167" lon="13.693673">
        <ele>118</ele>
        <time>2014-05-17T12:33:36Z</time>
      </trkpt>
      <trkpt lat="56.347149" lon="13.693626">
        <ele>118</ele>
        <time>2014-05-17T12:33:38Z</time>
      </trkpt>
      <trkpt lat="56.347138" lon="13.693567">
        <ele>117.9</ele>
        <time>2014-05-17T12:33:40Z</time>
      </trkpt>
      <trkpt lat="56.347131" lon="13.693509">
        <ele>117.8</ele>
        <time>2014-05-17T12:33:42Z</time>
      </trkpt>
      <trkpt lat="56.347129" lon="13.693451">
        <ele>117.8</ele>
        <time>2014-05-17T12:33:44Z</time>
      </trkpt>
      <trkpt lat="56.34713" lon="13.693398">
        <ele>117.7</ele>
        <time>2014-05-17T12:33:46Z</time>
      </trkpt>
      <trkpt lat="56.34713" lon="13.693343">
        <ele>117.6</ele>
        <time>2014-05-17T12:33:48Z</time>
      </trkpt>
      <trkpt lat="56.34713" lon="13.693294">
        <ele>117.6</ele>
        <time>2014-05-17T12:33:50Z</time>
      </trkpt>
      <trkpt lat="56.347128" lon="13.693243">
        <ele>117.5</ele>
        <time>2014-05-17T12:33:52Z</time>
      </trkpt>
      <trkpt lat="56.347124" lon="13.693195">
        <ele>117.5</ele>
        <time>2014-05-17T12:33:54Z</time>
      </trkpt>
      <trkpt lat="56.347123" lon="13.693127">
        <ele>117.4</ele>
        <time>2014-05-17T12:33:57Z</time>
      </trkpt>
      <trkpt lat="56.347111" lon="13.693063">
        <ele>117.3</ele>
        <time>2014-05-17T12:34:00Z</time>
      </trkpt>
      <trkpt lat="56.347102" lon="13.693001">
        <ele>117.2</ele>
        <time>2014-05-17T12:34:03Z</time>
      </trkpt>
      <trkpt lat="56.347093" lon="13.69294">
        <ele>117.1</ele>
        <time>2014-05-17T12:34:06Z</time>
      </trkpt>
      <trkpt lat="56.347089" lon="13.69287">
        <ele>117</ele>
        <time>2014-05-17T12:34:09Z</time>
      </trkpt>
      <trkpt lat="56.347085" lon="13.692806">
        <ele>116.9</ele>
        <time>2014-05-17T12:34:12Z</time>
      </trkpt>
      <trkpt lat="56.347078" lon="13.692738">
        <ele>116.8</ele>
        <time>2014-05-17T12:34:15Z</time>
      </trkpt>
      <trkpt lat="56.347071" lon="13.692666">
        <ele>116.7</ele>
        <time>2014-05-17T12:34:18Z</time>
      </trkpt>
      <trkpt lat="56.347065" lon="13.692601">
        <ele>116.7</ele>
        <time>2014-05-17T12:34:21Z</time>
      </trkpt>
      <trkpt lat="56.347058" lon="13.692548">
        <ele>116.6</ele>
        <time>2014-05-17T12:34:24Z</time>
      </trkpt>
      <trkpt lat="56.347052" lon="13.692499">
        <ele>116.6</ele>
        <time>2014-05-17T12:34:28Z</time>
      </trkpt>
      <trkpt lat="56.347034" lon="13.692458">
        <ele>116.6</ele>
        <time>2014-05-17T12:34:31Z</time>
      </trkpt>
      <trkpt lat="56.347025" lon="13.692401">
        <ele>116.5</ele>
        <time>2014-05-17T12:34:34Z</time>
      </trkpt>
      <trkpt lat="56.347022" lon="13.692343">
        <ele>116.5</ele>
        <time>2014-05-17T12:34:37Z</time>
      </trkpt>
      <trkpt lat="56.347028" lon="13.692293">
        <ele>116.4</ele>
        <time>2014-05-17T12:34:41Z</time>
      </trkpt>
      <trkpt lat="56.347024" lon="13.692242">
        <ele>116.4</ele>
        <time>2014-05-17T12:35:00Z</time>
      </trkpt>
      <trkpt lat="56.347042" lon="13.692191">
        <ele>116.3</ele>
        <time>2014-05-17T12:35:03Z</time>
      </trkpt>
      <trkpt lat="56.347054" lon="13.692145">
        <ele>116.2</ele>
        <time>2014-05-17T12:35:05Z</time>
      </trkpt>
      <trkpt lat="56.347065" lon="13.692091">
        <ele>116.1</ele>
        <time>2014-05-17T12:35:07Z</time>
      </trkpt>
      <trkpt lat="56.347078" lon="13.692035">
        <ele>116</ele>
        <time>2014-05-17T12:35:09Z</time>
      </trkpt>
      <trkpt lat="56.347089" lon="13.691983">
        <ele>115.9</ele>
        <time>2014-05-17T12:35:11Z</time>
      </trkpt>
      <trkpt lat="56.347102" lon="13.691936">
        <ele>116</ele>
        <time>2014-05-17T12:35:13Z</time>
      </trkpt>
      <trkpt lat="56.347114" lon="13.691888">
        <ele>116</ele>
        <time>2014-05-17T12:35:15Z</time>
      </trkpt>
      <trkpt lat="56.347119" lon="13.691828">
        <ele>116</ele>
        <time>2014-05-17T12:35:17Z</time>
      </trkpt>
      <trkpt lat="56.347125" lon="13.691762">
        <ele>116</ele>
        <time>2014-05-17T12:35:19Z</time>
      </trkpt>
      <trkpt lat="56.347122" lon="13.691697">
        <ele>115.9</ele>
        <time>2014-05-17T12:35:21Z</time>
      </trkpt>
      <trkpt lat="56.347116" lon="13.691637">
        <ele>115.7</ele>
        <time>2014-05-17T12:35:23Z</time>
      </trkpt>
      <trkpt lat="56.34712" lon="13.69158">
        <ele>115.7</ele>
        <time>2014-05-17T12:35:25Z</time>
      </trkpt>
      <trkpt lat="56.347127" lon="13.691527">
        <ele>115.7</ele>
        <time>2014-05-17T12:35:27Z</time>
      </trkpt>
      <trkpt lat="56.347136" lon="13.691458">
        <ele>115.7</ele>
        <time>2014-05-17T12:35:30Z</time>
      </trkpt>
      <trkpt lat="56.347157" lon="13.691405">
        <ele>115.8</ele>
        <time>2014-05-17T12:35:33Z</time>
      </trkpt>
      <trkpt lat="56.347178" lon="13.691359">
        <ele>115.9</ele>
        <time>2014-05-17T12:35:36Z</time>
      </trkpt>
      <trkpt lat="56.347184" lon="13.69129">
        <ele>115.9</ele>
        <time>2014-05-17T12:35:39Z</time>
      </trkpt>
      <trkpt lat="56.347191" lon="13.691238">
        <ele>115.9</ele>
        <time>2014-05-17T12:35:41Z</time>
      </trkpt>
      <trkpt lat="56.34721" lon="13.691183">
        <ele>116</ele>
        <time>2014-05-17T12:35:44Z</time>
      </trkpt>
      <trkpt lat="56.347231" lon="13.691141">
        <ele>116.1</ele>
        <time>2014-05-17T12:35:47Z</time>
      </trkpt>
      <trkpt lat="56.347245" lon="13.691072">
        <ele>116.1</ele>
        <time>2014-05-17T12:35:50Z</time>
      </trkpt>
      <trkpt lat="56.347256" lon="13.691003">
        <ele>116.2</ele>
        <time>2014-05-17T12:35:53Z</time>
      </trkpt>
      <trkpt lat="56.347269" lon="13.690937">
        <ele>116.2</ele>
        <time>2014-05-17T12:35:56Z</time>
      </trkpt>
      <trkpt lat="56.347275" lon="13.69087">
        <ele>116.2</ele>
        <time>2014-05-17T12:35:59Z</time>
      </trkpt>
      <trkpt lat="56.347274" lon="13.690814">
        <ele>116.1</ele>
        <time>2014-05-17T12:36:02Z</time>
      </trkpt>
      <trkpt lat="56.347264" lon="13.690764">
        <ele>115.9</ele>
        <time>2014-05-17T12:36:04Z</time>
      </trkpt>
      <trkpt lat="56.347257" lon="13.690699">
        <ele>115.8</ele>
        <time>2014-05-17T12:36:06Z</time>
      </trkpt>
      <trkpt lat="56.347259" lon="13.690638">
        <ele>115.7</ele>
        <time>2014-05-17T12:36:08Z</time>
      </trkpt>
      <trkpt lat="56.347261" lon="13.690568">
        <ele>115.7</ele>
        <time>2014-05-17T12:36:11Z</time>
      </trkpt>
      <trkpt lat="56.34726" lon="13.690501">
        <ele>115.6</ele>
        <time>2014-05-17T12:36:14Z</time>
      </trkpt>
      <trkpt lat="56.347259" lon="13.690436">
        <ele>115.5</ele>
        <time>2014-05-17T12:36:17Z</time>
      </trkpt>
      <trkpt lat="56.347251" lon="13.690375">
        <ele>115.5</ele>
        <time>2014-05-17T12:36:20Z</time>
      </trkpt>
      <trkpt lat="56.347248" lon="13.690302">
        <ele>115.6</ele>
        <time>2014-05-17T12:36:23Z</time>
      </trkpt>
      <trkpt lat="56.347241" lon="13.690235">
        <ele>115.7</ele>
        <time>2014-05-17T12:36:26Z</time>
      </trkpt>
      <trkpt lat="56.34724" lon="13.690186">
        <ele>115.8</ele>
        <time>2014-05-17T12:36:28Z</time>
      </trkpt>
      <trkpt lat="56.347234" lon="13.690135">
        <ele>115.8</ele>
        <time>2014-05-17T12:36:30Z</time>
      </trkpt>
      <trkpt lat="56.347219" lon="13.690071">
        <ele>115.8</ele>
        <time>2014-05-17T12:36:32Z</time>
      </trkpt>
      <trkpt lat="56.347212" lon="13.690003">
        <ele>115.9</ele>
        <time>2014-05-17T12:36:34Z</time>
      </trkpt>
      <trkpt lat="56.347206" lon="13.689939">
        <ele>116</ele>
        <time>2014-05-17T12:36:36Z</time>
      </trkpt>
      <trkpt lat="56.347202" lon="13.689882">
        <ele>116.1</ele>
        <time>2014-05-17T12:36:38Z</time>
      </trkpt>
      <trkpt lat="56.347204" lon="13.68983">
        <ele>116.2</ele>
        <time>2014-05-17T12:36:40Z</time>
      </trkpt>
      <trkpt lat="56.3472" lon="13.689763">
        <ele>116.3</ele>
        <time>2014-05-17T12:36:43Z</time>
      </trkpt>
      <trkpt lat="56.3472" lon="13.689698">
        <ele>116.5</ele>
        <time>2014-05-17T12:36:46Z</time>
      </trkpt>
      <trkpt lat="56.347189" lon="13.689637">
        <ele>116.5</ele>
        <time>2014-05-17T12:36:49Z</time>
      </trkpt>
      <trkpt lat="56.347179" lon="13.689582">
        <ele>116.6</ele>
        <time>2014-05-17T12:36:52Z</time>
      </trkpt>
      <trkpt lat="56.347168" lon="13.68953">
        <ele>116.6</ele>
        <time>2014-05-17T12:36:55Z</time>
      </trkpt>
      <trkpt lat="56.347154" lon="13.689473">
        <ele>116.7</ele>
        <time>2014-05-17T12:36:58Z</time>
      </trkpt>
      <trkpt lat="56.347154" lon="13.689411">
        <ele>116.8</ele>
        <time>2014-05-17T12:37:01Z</time>
      </trkpt>
      <trkpt lat="56.347148" lon="13.689345">
        <ele>116.9</ele>
        <time>2014-05-17T12:37:04Z</time>
      </trkpt>
      <trkpt lat="56.34715" lon="13.689283">
        <ele>117.1</ele>
        <time>2014-05-17T12:37:07Z</time>
      </trkpt>
      <trkpt lat="56.347169" lon="13.689229">
        <ele>117.3</ele>
        <time>2014-05-17T12:37:10Z</time>
      </trkpt>
      <trkpt lat="56.347181" lon="13.689171">
        <ele>117.5</ele>
        <time>2014-05-17T12:37:13Z</time>
      </trkpt>
      <trkpt lat="56.347198" lon="13.689115">
        <ele>117.7</ele>
        <time>2014-05-17T12:37:16Z</time>
      </trkpt>
      <trkpt lat="56.347205" lon="13.689054">
        <ele>117.8</ele>
        <time>2014-05-17T12:37:19Z</time>
      </trkpt>
      <trkpt lat="56.347208" lon="13.688988">
        <ele>118</ele>
        <time>2014-05-17T12:37:22Z</time>
      </trkpt>
      <trkpt lat="56.347206" lon="13.688921">
        <ele>118.1</ele>
        <time>2014-05-17T12:37:25Z</time>
      </trkpt>
      <trkpt lat="56.347199" lon="13.688871">
        <ele>118.2</ele>
        <time>2014-05-17T12:37:27Z</time>
      </trkpt>
      <trkpt lat="56.347188" lon="13.688826">
        <ele>118.2</ele>
        <time>2014-05-17T12:37:29Z</time>
      </trkpt>
      <trkpt lat="56.347165" lon="13.688777">
        <ele>118.2</ele>
        <time>2014-05-17T12:37:32Z</time>
      </trkpt>
      <trkpt lat="56.34715" lon="13.688719">
        <ele>118.2</ele>
        <time>2014-05-17T12:37:35Z</time>
      </trkpt>
      <trkpt lat="56.347142" lon="13.688655">
        <ele>118.1</ele>
        <time>2014-05-17T12:37:38Z</time>
      </trkpt>
      <trkpt lat="56.347128" lon="13.688598">
        <ele>118</ele>
        <time>2014-05-17T12:37:41Z</time>
      </trkpt>
      <trkpt lat="56.347119" lon="13.688532">
        <ele>117.9</ele>
        <time>2014-05-17T12:37:44Z</time>
      </trkpt>
      <trkpt lat="56.347103" lon="13.688469">
        <ele>117.7</ele>
        <time>2014-05-17T12:37:47Z</time>
      </trkpt>
      <trkpt lat="56.3471" lon="13.688401">
        <ele>117.6</ele>
        <time>2014-05-17T12:37:50Z</time>
      </trkpt>
      <trkpt lat="56.347108" lon="13.688347">
        <ele>117.6</ele>
        <time>2014-05-17T12:37:53Z</time>
      </trkpt>
      <trkpt lat="56.347103" lon="13.688298">
        <ele>117.5</ele>
        <time>2014-05-17T12:38:06Z</time>
      </trkpt>
      <trkpt lat="56.347117" lon="13.688233">
        <ele>117.5</ele>
        <time>2014-05-17T12:38:14Z</time>
      </trkpt>
      <trkpt lat="56.347128" lon="13.688175">
        <ele>117.5</ele>
        <time>2014-05-17T12:38:16Z</time>
      </trkpt>
      <trkpt lat="56.347126" lon="13.688111">
        <ele>117.4</ele>
        <time>2014-05-17T12:38:18Z</time>
      </trkpt>
      <trkpt lat="56.347122" lon="13.688044">
        <ele>117.3</ele>
        <time>2014-05-17T12:38:20Z</time>
      </trkpt>
      <trkpt lat="56.347113" lon="13.687985">
        <ele>117.2</ele>
        <time>2014-05-17T12:38:22Z</time>
      </trkpt>
      <trkpt lat="56.347101" lon="13.68793">
        <ele>117.1</ele>
        <time>2014-05-17T12:38:24Z</time>
      </trkpt>
      <trkpt lat="56.347095" lon="13.687868">
        <ele>117</ele>
        <time>2014-05-17T12:38:26Z</time>
      </trkpt>
      <trkpt lat="56.347087" lon="13.687804">
        <ele>117</ele>
        <time>2014-05-17T12:38:28Z</time>
      </trkpt>
      <trkpt lat="56.347084" lon="13.687743">
        <ele>117</ele>
        <time>2014-05-17T12:38:30Z</time>
      </trkpt>
      <trkpt lat="56.347084" lon="13.687686">
        <ele>117</ele>
        <time>2014-05-17T12:38:32Z</time>
      </trkpt>
      <trkpt lat="56.347073" lon="13.687633">
        <ele>117</ele>
        <time>2014-05-17T12:38:34Z</time>
      </trkpt>
      <trkpt lat="56.347063" lon="13.687586">
        <ele>117</ele>
        <time>2014-05-17T12:38:36Z</time>
      </trkpt>
      <trkpt lat="56.347048" lon="13.687521">
        <ele>117</ele>
        <time>2014-05-17T12:38:39Z</time>
      </trkpt>
      <trkpt lat="56.347041" lon="13.68747">
        <ele>117</ele>
        <time>2014-05-17T12:38:41Z</time>
      </trkpt>
      <trkpt lat="56.347039" lon="13.687415">
        <ele>117</ele>
        <time>2014-05-17T12:38:43Z</time>
      </trkpt>
      <trkpt lat="56.347031" lon="13.68736">
        <ele>117</ele>
        <time>2014-05-17T12:38:45Z</time>
      </trkpt>
      <trkpt lat="56.347014" lon="13.687318">
        <ele>117</ele>
        <time>2014-05-17T12:38:47Z</time>
      </trkpt>
      <trkpt lat="56.346995" lon="13.687276">
        <ele>117</ele>
        <time>2014-05-17T12:38:49Z</time>
      </trkpt>
      <trkpt lat="56.34698" lon="13.687228">
        <ele>117</ele>
        <time>2014-05-17T12:38:51Z</time>
      </trkpt>
      <trkpt lat="56.34697" lon="13.687179">
        <ele>117</ele>
        <time>2014-05-17T12:38:53Z</time>
      </trkpt>
      <trkpt lat="56.346961" lon="13.687133">
        <ele>117</ele>
        <time>2014-05-17T12:38:55Z</time>
      </trkpt>
      <trkpt lat="56.346952" lon="13.687083">
        <ele>117</ele>
        <time>2014-05-17T12:38:57Z</time>
      </trkpt>
      <trkpt lat="56.346944" lon="13.687032">
        <ele>116.8</ele>
        <time>2014-05-17T12:38:59Z</time>
      </trkpt>
      <trkpt lat="56.346939" lon="13.68698">
        <ele>116.7</ele>
        <time>2014-05-17T12:39:01Z</time>
      </trkpt>
      <trkpt lat="56.346935" lon="13.686929">
        <ele>116.5</ele>
        <time>2014-05-17T12:39:03Z</time>
      </trkpt>
      <trkpt lat="56.346918" lon="13.686869">
        <ele>116.3</ele>
        <time>2014-05-17T12:39:06Z</time>
      </trkpt>
      <trkpt lat="56.346901" lon="13.686818">
        <ele>116.2</ele>
        <time>2014-05-17T12:39:09Z</time>
      </trkpt>
      <trkpt lat="56.346886" lon="13.686766">
        <ele>116</ele>
        <time>2014-05-17T12:39:12Z</time>
      </trkpt>
      <trkpt lat="56.346857" lon="13.686733">
        <ele>116</ele>
        <time>2014-05-17T12:39:15Z</time>
      </trkpt>
      <trkpt lat="56.346832" lon="13.686696">
        <ele>115.9</ele>
        <time>2014-05-17T12:39:18Z</time>
      </trkpt>
      <trkpt lat="56.346807" lon="13.68666">
        <ele>115.8</ele>
        <time>2014-05-17T12:39:21Z</time>
      </trkpt>
      <trkpt lat="56.346784" lon="13.686609">
        <ele>115.7</ele>
        <time>2014-05-17T12:39:24Z</time>
      </trkpt>
      <trkpt lat="56.346762" lon="13.686577">
        <ele>115.6</ele>
        <time>2014-05-17T12:39:26Z</time>
      </trkpt>
      <trkpt lat="56.34673" lon="13.686549">
        <ele>115.6</ele>
        <time>2014-05-17T12:39:29Z</time>
      </trkpt>
      <trkpt lat="56.346711" lon="13.686512">
        <ele>115.6</ele>
        <time>2014-05-17T12:39:32Z</time>
      </trkpt>
      <trkpt lat="56.346696" lon="13.686463">
        <ele>115.5</ele>
        <time>2014-05-17T12:39:35Z</time>
      </trkpt>
      <trkpt lat="56.346665" lon="13.686437">
        <ele>115.5</ele>
        <time>2014-05-17T12:39:37Z</time>
      </trkpt>
      <trkpt lat="56.346641" lon="13.686398">
        <ele>115.4</ele>
        <time>2014-05-17T12:39:39Z</time>
      </trkpt>
      <trkpt lat="56.346625" lon="13.686343">
        <ele>115.3</ele>
        <time>2014-05-17T12:39:41Z</time>
      </trkpt>
      <trkpt lat="56.346609" lon="13.686294">
        <ele>115.2</ele>
        <time>2014-05-17T12:39:44Z</time>
      </trkpt>
      <trkpt lat="56.346596" lon="13.686249">
        <ele>115.2</ele>
        <time>2014-05-17T12:39:47Z</time>
      </trkpt>
      <trkpt lat="56.346579" lon="13.686194">
        <ele>115.1</ele>
        <time>2014-05-17T12:39:50Z</time>
      </trkpt>
      <trkpt lat="56.346563" lon="13.686133">
        <ele>115.1</ele>
        <time>2014-05-17T12:39:53Z</time>
      </trkpt>
      <trkpt lat="56.346549" lon="13.686076">
        <ele>115.1</ele>
        <time>2014-05-17T12:39:56Z</time>
      </trkpt>
      <trkpt lat="56.346536" lon="13.686024">
        <ele>115</ele>
        <time>2014-05-17T12:39:59Z</time>
      </trkpt>
      <trkpt lat="56.346506" lon="13.685989">
        <ele>115.1</ele>
        <time>2014-05-17T12:40:02Z</time>
      </trkpt>
      <trkpt lat="56.34648" lon="13.685952">
        <ele>115.2</ele>
        <time>2014-05-17T12:40:05Z</time>
      </trkpt>
      <trkpt lat="56.346452" lon="13.68592">
        <ele>115.2</ele>
        <time>2014-05-17T12:40:08Z</time>
      </trkpt>
      <trkpt lat="56.346432" lon="13.68588">
        <ele>115.3</ele>
        <time>2014-05-17T12:40:11Z</time>
      </trkpt>
      <trkpt lat="56.346436" lon="13.685817">
        <ele>115.2</ele>
        <time>2014-05-17T12:40:14Z</time>
      </trkpt>
      <trkpt lat="56.346446" lon="13.685763">
        <ele>115.1</ele>
        <time>2014-05-17T12:40:18Z</time>
      </trkpt>
      <trkpt lat="56.346418" lon="13.685754">
        <ele>115.2</ele>
        <time>2014-05-17T12:40:28Z</time>
      </trkpt>
      <trkpt lat="56.346388" lon="13.685744">
        <ele>115.4</ele>
        <time>2014-05-17T12:40:56Z</time>
      </trkpt>
      <trkpt lat="56.346349" lon="13.685734">
        <ele>115.5</ele>
        <time>2014-05-17T12:40:58Z</time>
      </trkpt>
      <trkpt lat="56.34631" lon="13.685719">
        <ele>115.7</ele>
        <time>2014-05-17T12:41:00Z</time>
      </trkpt>
      <trkpt lat="56.346272" lon="13.685695">
        <ele>115.9</ele>
        <time>2014-05-17T12:41:02Z</time>
      </trkpt>
      <trkpt lat="56.346235" lon="13.685656">
        <ele>116.1</ele>
        <time>2014-05-17T12:41:04Z</time>
      </trkpt>
      <trkpt lat="56.346194" lon="13.685627">
        <ele>116.5</ele>
        <time>2014-05-17T12:41:06Z</time>
      </trkpt>
      <trkpt lat="56.346145" lon="13.685611">
        <ele>116.9</ele>
        <time>2014-05-17T12:41:08Z</time>
      </trkpt>
      <trkpt lat="56.346116" lon="13.685601">
        <ele>117.2</ele>
        <time>2014-05-17T12:41:09Z</time>
      </trkpt>
      <trkpt lat="56.346081" lon="13.685586">
        <ele>117.5</ele>
        <time>2014-05-17T12:41:10Z</time>
      </trkpt>
      <trkpt lat="56.346047" lon="13.685568">
        <ele>117.8</ele>
        <time>2014-05-17T12:41:11Z</time>
      </trkpt>
      <trkpt lat="56.346014" lon="13.685549">
        <ele>118.1</ele>
        <time>2014-05-17T12:41:12Z</time>
      </trkpt>
      <trkpt lat="56.345983" lon="13.685527">
        <ele>118.4</ele>
        <time>2014-05-17T12:41:13Z</time>
      </trkpt>
      <trkpt lat="56.345953" lon="13.685503">
        <ele>118.7</ele>
        <time>2014-05-17T12:41:14Z</time>
      </trkpt>
      <trkpt lat="56.345925" lon="13.685477">
        <ele>119</ele>
        <time>2014-05-17T12:41:15Z</time>
      </trkpt>
      <trkpt lat="56.345898" lon="13.68545">
        <ele>119.3</ele>
        <time>2014-05-17T12:41:16Z</time>
      </trkpt>
      <trkpt lat="56.345872" lon="13.685421">
        <ele>119.6</ele>
        <time>2014-05-17T12:41:17Z</time>
      </trkpt>
      <trkpt lat="56.345848" lon="13.685391">
        <ele>119.8</ele>
        <time>2014-05-17T12:41:18Z</time>
      </trkpt>
      <trkpt lat="56.345825" lon="13.685353">
        <ele>119.8</ele>
        <time>2014-05-17T12:41:19Z</time>
      </trkpt>
      <trkpt lat="56.345803" lon="13.685313">
        <ele>119.9</ele>
        <time>2014-05-17T12:41:20Z</time>
      </trkpt>
      <trkpt lat="56.345776" lon="13.685266">
        <ele>119.9</ele>
        <time>2014-05-17T12:41:21Z</time>
      </trkpt>
      <trkpt lat="56.345752" lon="13.685223">
        <ele>120</ele>
        <time>2014-05-17T12:41:22Z</time>
      </trkpt>
      <trkpt lat="56.345731" lon="13.685171">
        <ele>120</ele>
        <time>2014-05-17T12:41:23Z</time>
      </trkpt>
      <trkpt lat="56.345711" lon="13.685118">
        <ele>120</ele>
        <time>2014-05-17T12:41:24Z</time>
      </trkpt>
      <trkpt lat="56.345695" lon="13.685066">
        <ele>119.9</ele>
        <time>2014-05-17T12:41:25Z</time>
      </trkpt>
      <trkpt lat="56.34568" lon="13.685015">
        <ele>119.9</ele>
        <time>2014-05-17T12:41:26Z</time>
      </trkpt>
      <trkpt lat="56.345664" lon="13.684971">
        <ele>119.9</ele>
        <time>2014-05-17T12:41:27Z</time>
      </trkpt>
      <trkpt lat="56.345637" lon="13.684918">
        <ele>119.9</ele>
        <time>2014-05-17T12:41:29Z</time>
      </trkpt>
      <trkpt lat="56.345597" lon="13.684853">
        <ele>120.1</ele>
        <time>2014-05-17T12:41:31Z</time>
      </trkpt>
      <trkpt lat="56.345575" lon="13.684806">
        <ele>120.1</ele>
        <time>2014-05-17T12:41:32Z</time>
      </trkpt>
      <trkpt lat="56.345561" lon="13.684761">
        <ele>120.1</ele>
        <time>2014-05-17T12:41:33Z</time>
      </trkpt>
      <trkpt lat="56.34555" lon="13.684716">
        <ele>120.1</ele>
        <time>2014-05-17T12:41:34Z</time>
      </trkpt>
      <trkpt lat="56.345544" lon="13.684629">
        <ele>119.8</ele>
        <time>2014-05-17T12:41:36Z</time>
      </trkpt>
      <trkpt lat="56.345529" lon="13.68453">
        <ele>119.6</ele>
        <time>2014-05-17T12:41:38Z</time>
      </trkpt>
      <trkpt lat="56.345516" lon="13.684476">
        <ele>119.5</ele>
        <time>2014-05-17T12:41:39Z</time>
      </trkpt>
      <trkpt lat="56.345497" lon="13.684404">
        <ele>119.5</ele>
        <time>2014-05-17T12:41:40Z</time>
      </trkpt>
      <trkpt lat="56.345478" lon="13.684331">
        <ele>119.4</ele>
        <time>2014-05-17T12:41:41Z</time>
      </trkpt>
      <trkpt lat="56.345459" lon="13.684257">
        <ele>119.4</ele>
        <time>2014-05-17T12:41:42Z</time>
      </trkpt>
      <trkpt lat="56.34544" lon="13.684191">
        <ele>119.3</ele>
        <time>2014-05-17T12:41:43Z</time>
      </trkpt>
      <trkpt lat="56.345413" lon="13.684127">
        <ele>119.4</ele>
        <time>2014-05-17T12:41:44Z</time>
      </trkpt>
      <trkpt lat="56.345382" lon="13.684067">
        <ele>119.1</ele>
        <time>2014-05-17T12:41:45Z</time>
      </trkpt>
      <trkpt lat="56.34535" lon="13.684012">
        <ele>118.8</ele>
        <time>2014-05-17T12:41:46Z</time>
      </trkpt>
      <trkpt lat="56.345321" lon="13.683956">
        <ele>118.6</ele>
        <time>2014-05-17T12:41:47Z</time>
      </trkpt>
      <trkpt lat="56.345291" lon="13.683898">
        <ele>118.4</ele>
        <time>2014-05-17T12:41:48Z</time>
      </trkpt>
      <trkpt lat="56.345259" lon="13.683843">
        <ele>118.1</ele>
        <time>2014-05-17T12:41:49Z</time>
      </trkpt>
      <trkpt lat="56.345227" lon="13.683791">
        <ele>117.9</ele>
        <time>2014-05-17T12:41:50Z</time>
      </trkpt>
      <trkpt lat="56.345196" lon="13.683739">
        <ele>117.7</ele>
        <time>2014-05-17T12:41:51Z</time>
      </trkpt>
      <trkpt lat="56.345162" lon="13.68369">
        <ele>117.6</ele>
        <time>2014-05-17T12:41:52Z</time>
      </trkpt>
      <trkpt lat="56.34513" lon="13.683638">
        <ele>117.5</ele>
        <time>2014-05-17T12:41:53Z</time>
      </trkpt>
      <trkpt lat="56.345097" lon="13.683588">
        <ele>117.4</ele>
        <time>2014-05-17T12:41:54Z</time>
      </trkpt>
      <trkpt lat="56.345063" lon="13.683537">
        <ele>117.3</ele>
        <time>2014-05-17T12:41:55Z</time>
      </trkpt>
      <trkpt lat="56.345032" lon="13.683486">
        <ele>117.2</ele>
        <time>2014-05-17T12:41:56Z</time>
      </trkpt>
      <trkpt lat="56.345002" lon="13.683435">
        <ele>117.1</ele>
        <time>2014-05-17T12:41:57Z</time>
      </trkpt>
      <trkpt lat="56.344972" lon="13.683385">
        <ele>117.1</ele>
        <time>2014-05-17T12:41:58Z</time>
      </trkpt>
      <trkpt lat="56.344941" lon="13.683338">
        <ele>117</ele>
        <time>2014-05-17T12:41:59Z</time>
      </trkpt>
      <trkpt lat="56.344908" lon="13.683299">
        <ele>117</ele>
        <time>2014-05-17T12:42:00Z</time>
      </trkpt>
      <trkpt lat="56.344882" lon="13.683275">
        <ele>116.9</ele>
        <time>2014-05-17T12:42:01Z</time>
      </trkpt>
      <trkpt lat="56.344853" lon="13.683258">
        <ele>116.9</ele>
        <time>2014-05-17T12:42:02Z</time>
      </trkpt>
      <trkpt lat="56.344827" lon="13.683242">
        <ele>116.9</ele>
        <time>2014-05-17T12:42:03Z</time>
      </trkpt>
      <trkpt lat="56.344785" lon="13.683216">
        <ele>116.9</ele>
        <time>2014-05-17T12:42:05Z</time>
      </trkpt>
      <trkpt lat="56.34476" lon="13.683166">
        <ele>116.9</ele>
        <time>2014-05-17T12:42:07Z</time>
      </trkpt>
      <trkpt lat="56.344735" lon="13.683108">
        <ele>116.9</ele>
        <time>2014-05-17T12:42:09Z</time>
      </trkpt>
      <trkpt lat="56.344704" lon="13.683054">
        <ele>116.9</ele>
        <time>2014-05-17T12:42:11Z</time>
      </trkpt>
      <trkpt lat="56.344666" lon="13.683004">
        <ele>116.9</ele>
        <time>2014-05-17T12:42:13Z</time>
      </trkpt>
      <trkpt lat="56.344636" lon="13.68298">
        <ele>116.9</ele>
        <time>2014-05-17T12:42:14Z</time>
      </trkpt>
      <trkpt lat="56.344601" lon="13.682963">
        <ele>117</ele>
        <time>2014-05-17T12:42:15Z</time>
      </trkpt>
      <trkpt lat="56.344565" lon="13.68295">
        <ele>116.9</ele>
        <time>2014-05-17T12:42:16Z</time>
      </trkpt>
      <trkpt lat="56.344527" lon="13.682942">
        <ele>116.8</ele>
        <time>2014-05-17T12:42:17Z</time>
      </trkpt>
      <trkpt lat="56.344489" lon="13.682934">
        <ele>116.7</ele>
        <time>2014-05-17T12:42:18Z</time>
      </trkpt>
      <trkpt lat="56.344449" lon="13.682932">
        <ele>116.5</ele>
        <time>2014-05-17T12:42:19Z</time>
      </trkpt>
      <trkpt lat="56.344405" lon="13.68293">
        <ele>116.4</ele>
        <time>2014-05-17T12:42:20Z</time>
      </trkpt>
      <trkpt lat="56.344363" lon="13.682929">
        <ele>116.2</ele>
        <time>2014-05-17T12:42:21Z</time>
      </trkpt>
      <trkpt lat="56.344322" lon="13.682927">
        <ele>116.1</ele>
        <time>2014-05-17T12:42:22Z</time>
      </trkpt>
      <trkpt lat="56.34428" lon="13.682928">
        <ele>115.9</ele>
        <time>2014-05-17T12:42:23Z</time>
      </trkpt>
      <trkpt lat="56.34424" lon="13.682931">
        <ele>115.8</ele>
        <time>2014-05-17T12:42:24Z</time>
      </trkpt>
      <trkpt lat="56.344202" lon="13.682935">
        <ele>115.6</ele>
        <time>2014-05-17T12:42:25Z</time>
      </trkpt>
      <trkpt lat="56.344166" lon="13.682936">
        <ele>115.5</ele>
        <time>2014-05-17T12:42:26Z</time>
      </trkpt>
      <trkpt lat="56.344131" lon="13.682938">
        <ele>115.4</ele>
        <time>2014-05-17T12:42:27Z</time>
      </trkpt>
      <trkpt lat="56.344097" lon="13.682939">
        <ele>115.2</ele>
        <time>2014-05-17T12:42:28Z</time>
      </trkpt>
      <trkpt lat="56.344065" lon="13.682943">
        <ele>115.1</ele>
        <time>2014-05-17T12:42:29Z</time>
      </trkpt>
      <trkpt lat="56.344034" lon="13.682947">
        <ele>115</ele>
        <time>2014-05-17T12:42:30Z</time>
      </trkpt>
      <trkpt lat="56.344003" lon="13.68295">
        <ele>114.9</ele>
        <time>2014-05-17T12:42:31Z</time>
      </trkpt>
      <trkpt lat="56.343972" lon="13.682954">
        <ele>114.8</ele>
        <time>2014-05-17T12:42:32Z</time>
      </trkpt>
      <trkpt lat="56.34394" lon="13.682955">
        <ele>114.7</ele>
        <time>2014-05-17T12:42:33Z</time>
      </trkpt>
      <trkpt lat="56.343908" lon="13.682956">
        <ele>114.6</ele>
        <time>2014-05-17T12:42:34Z</time>
      </trkpt>
      <trkpt lat="56.343877" lon="13.682958">
        <ele>114.5</ele>
        <time>2014-05-17T12:42:35Z</time>
      </trkpt>
      <trkpt lat="56.343847" lon="13.682958">
        <ele>114.3</ele>
        <time>2014-05-17T12:42:36Z</time>
      </trkpt>
      <trkpt lat="56.343819" lon="13.682954">
        <ele>114.2</ele>
        <time>2014-05-17T12:42:37Z</time>
      </trkpt>
      <trkpt lat="56.34379" lon="13.682949">
        <ele>114.1</ele>
        <time>2014-05-17T12:42:38Z</time>
      </trkpt>
      <trkpt lat="56.34376" lon="13.68294">
        <ele>114</ele>
        <time>2014-05-17T12:42:39Z</time>
      </trkpt>
      <trkpt lat="56.343732" lon="13.68293">
        <ele>114</ele>
        <time>2014-05-17T12:42:40Z</time>
      </trkpt>
      <trkpt lat="56.343703" lon="13.682918">
        <ele>113.9</ele>
        <time>2014-05-17T12:42:41Z</time>
      </trkpt>
      <trkpt lat="56.343675" lon="13.682906">
        <ele>113.8</ele>
        <time>2014-05-17T12:42:42Z</time>
      </trkpt>
      <trkpt lat="56.343645" lon="13.68289">
        <ele>113.7</ele>
        <time>2014-05-17T12:42:43Z</time>
      </trkpt>
      <trkpt lat="56.343616" lon="13.682871">
        <ele>113.7</ele>
        <time>2014-05-17T12:42:44Z</time>
      </trkpt>
      <trkpt lat="56.343583" lon="13.68285">
        <ele>113.6</ele>
        <time>2014-05-17T12:42:45Z</time>
      </trkpt>
      <trkpt lat="56.343549" lon="13.682829">
        <ele>113.5</ele>
        <time>2014-05-17T12:42:46Z</time>
      </trkpt>
      <trkpt lat="56.343515" lon="13.682805">
        <ele>113.4</ele>
        <time>2014-05-17T12:42:47Z</time>
      </trkpt>
      <trkpt lat="56.343482" lon="13.682777">
        <ele>113.2</ele>
        <time>2014-05-17T12:42:48Z</time>
      </trkpt>
      <trkpt lat="56.343447" lon="13.682738">
        <ele>113.1</ele>
        <time>2014-05-17T12:42:49Z</time>
      </trkpt>
      <trkpt lat="56.343414" lon="13.682686">
        <ele>113</ele>
        <time>2014-05-17T12:42:50Z</time>
      </trkpt>
      <trkpt lat="56.343378" lon="13.682552">
        <ele>112.7</ele>
        <time>2014-05-17T12:42:51Z</time>
      </trkpt>
      <trkpt lat="56.343349" lon="13.682486">
        <ele>112.5</ele>
        <time>2014-05-17T12:42:52Z</time>
      </trkpt>
      <trkpt lat="56.343321" lon="13.682407">
        <ele>112.3</ele>
        <time>2014-05-17T12:42:53Z</time>
      </trkpt>
      <trkpt lat="56.343299" lon="13.682302">
        <ele>112.1</ele>
        <time>2014-05-17T12:42:54Z</time>
      </trkpt>
      <trkpt lat="56.34328" lon="13.682182">
        <ele>111.9</ele>
        <time>2014-05-17T12:42:55Z</time>
      </trkpt>
      <trkpt lat="56.343256" lon="13.682072">
        <ele>111.6</ele>
        <time>2014-05-17T12:42:56Z</time>
      </trkpt>
      <trkpt lat="56.343226" lon="13.681945">
        <ele>111.4</ele>
        <time>2014-05-17T12:42:57Z</time>
      </trkpt>
      <trkpt lat="56.343179" lon="13.681855">
        <ele>111.1</ele>
        <time>2014-05-17T12:42:58Z</time>
      </trkpt>
      <trkpt lat="56.343149" lon="13.681722">
        <ele>110.9</ele>
        <time>2014-05-17T12:42:59Z</time>
      </trkpt>
      <trkpt lat="56.343112" lon="13.681614">
        <ele>110.7</ele>
        <time>2014-05-17T12:43:00Z</time>
      </trkpt>
      <trkpt lat="56.343087" lon="13.681498">
        <ele>110.5</ele>
        <time>2014-05-17T12:43:01Z</time>
      </trkpt>
      <trkpt lat="56.343057" lon="13.681379">
        <ele>110.4</ele>
        <time>2014-05-17T12:43:02Z</time>
      </trkpt>
      <trkpt lat="56.343044" lon="13.681281">
        <ele>110.3</ele>
        <time>2014-05-17T12:43:03Z</time>
      </trkpt>
      <trkpt lat="56.342984" lon="13.681164">
        <ele>110.2</ele>
        <time>2014-05-17T12:43:04Z</time>
      </trkpt>
      <trkpt lat="56.342947" lon="13.681046">
        <ele>110.1</ele>
        <time>2014-05-17T12:43:05Z</time>
      </trkpt>
      <trkpt lat="56.342899" lon="13.680927">
        <ele>110.1</ele>
        <time>2014-05-17T12:43:06Z</time>
      </trkpt>
      <trkpt lat="56.342858" lon="13.680814">
        <ele>110.3</ele>
        <time>2014-05-17T12:43:07Z</time>
      </trkpt>
      <trkpt lat="56.3428" lon="13.680719">
        <ele>110.6</ele>
        <time>2014-05-17T12:43:08Z</time>
      </trkpt>
      <trkpt lat="56.34276" lon="13.680609">
        <ele>110.8</ele>
        <time>2014-05-17T12:43:09Z</time>
      </trkpt>
      <trkpt lat="56.342727" lon="13.68046">
        <ele>110.9</ele>
        <time>2014-05-17T12:43:10Z</time>
      </trkpt>
      <trkpt lat="56.342676" lon="13.680406">
        <ele>111.1</ele>
        <time>2014-05-17T12:43:11Z</time>
      </trkpt>
      <trkpt lat="56.34264" lon="13.680308">
        <ele>111.2</ele>
        <time>2014-05-17T12:43:12Z</time>
      </trkpt>
      <trkpt lat="56.34261" lon="13.680212">
        <ele>111.1</ele>
        <time>2014-05-17T12:43:13Z</time>
      </trkpt>
      <trkpt lat="56.342588" lon="13.680095">
        <ele>111</ele>
        <time>2014-05-17T12:43:14Z</time>
      </trkpt>
      <trkpt lat="56.342553" lon="13.680001">
        <ele>111</ele>
        <time>2014-05-17T12:43:15Z</time>
      </trkpt>
      <trkpt lat="56.342516" lon="13.679917">
        <ele>111</ele>
        <time>2014-05-17T12:43:16Z</time>
      </trkpt>
      <trkpt lat="56.34247" lon="13.679838">
        <ele>111.1</ele>
        <time>2014-05-17T12:43:17Z</time>
      </trkpt>
      <trkpt lat="56.342433" lon="13.679752">
        <ele>111.1</ele>
        <time>2014-05-17T12:43:18Z</time>
      </trkpt>
      <trkpt lat="56.342398" lon="13.679674">
        <ele>111</ele>
        <time>2014-05-17T12:43:19Z</time>
      </trkpt>
      <trkpt lat="56.342363" lon="13.679589">
        <ele>111</ele>
        <time>2014-05-17T12:43:20Z</time>
      </trkpt>
      <trkpt lat="56.342333" lon="13.679504">
        <ele>111</ele>
        <time>2014-05-17T12:43:21Z</time>
      </trkpt>
      <trkpt lat="56.342296" lon="13.679428">
        <ele>111.1</ele>
        <time>2014-05-17T12:43:22Z</time>
      </trkpt>
      <trkpt lat="56.342263" lon="13.679355">
        <ele>111.1</ele>
        <time>2014-05-17T12:43:23Z</time>
      </trkpt>
      <trkpt lat="56.342231" lon="13.679288">
        <ele>111.2</ele>
        <time>2014-05-17T12:43:24Z</time>
      </trkpt>
      <trkpt lat="56.342198" lon="13.679229">
        <ele>111.2</ele>
        <time>2014-05-17T12:43:25Z</time>
      </trkpt>
      <trkpt lat="56.342166" lon="13.679158">
        <ele>111.2</ele>
        <time>2014-05-17T12:43:26Z</time>
      </trkpt>
      <trkpt lat="56.342135" lon="13.679083">
        <ele>111.3</ele>
        <time>2014-05-17T12:43:27Z</time>
      </trkpt>
      <trkpt lat="56.342105" lon="13.67901">
        <ele>111.3</ele>
        <time>2014-05-17T12:43:28Z</time>
      </trkpt>
      <trkpt lat="56.342084" lon="13.678925">
        <ele>111.2</ele>
        <time>2014-05-17T12:43:29Z</time>
      </trkpt>
      <trkpt lat="56.342045" lon="13.678877">
        <ele>111.2</ele>
        <time>2014-05-17T12:43:30Z</time>
      </trkpt>
      <trkpt lat="56.342024" lon="13.678796">
        <ele>111.2</ele>
        <time>2014-05-17T12:43:31Z</time>
      </trkpt>
      <trkpt lat="56.342002" lon="13.67874">
        <ele>111.2</ele>
        <time>2014-05-17T12:43:32Z</time>
      </trkpt>
      <trkpt lat="56.341974" lon="13.678691">
        <ele>111</ele>
        <time>2014-05-17T12:43:33Z</time>
      </trkpt>
      <trkpt lat="56.341953" lon="13.678627">
        <ele>110.9</ele>
        <time>2014-05-17T12:43:34Z</time>
      </trkpt>
      <trkpt lat="56.341919" lon="13.678574">
        <ele>110.8</ele>
        <time>2014-05-17T12:43:35Z</time>
      </trkpt>
      <trkpt lat="56.341899" lon="13.678504">
        <ele>110.6</ele>
        <time>2014-05-17T12:43:36Z</time>
      </trkpt>
      <trkpt lat="56.341875" lon="13.67846">
        <ele>110.5</ele>
        <time>2014-05-17T12:43:37Z</time>
      </trkpt>
      <trkpt lat="56.341847" lon="13.678423">
        <ele>110.4</ele>
        <time>2014-05-17T12:43:38Z</time>
      </trkpt>
      <trkpt lat="56.341811" lon="13.678377">
        <ele>110.3</ele>
        <time>2014-05-17T12:43:39Z</time>
      </trkpt>
      <trkpt lat="56.341776" lon="13.678333">
        <ele>110.2</ele>
        <time>2014-05-17T12:43:40Z</time>
      </trkpt>
      <trkpt lat="56.341737" lon="13.6783">
        <ele>110.2</ele>
        <time>2014-05-17T12:43:41Z</time>
      </trkpt>
      <trkpt lat="56.341695" lon="13.678259">
        <ele>110.2</ele>
        <time>2014-05-17T12:43:42Z</time>
      </trkpt>
      <trkpt lat="56.341659" lon="13.678205">
        <ele>110.1</ele>
        <time>2014-05-17T12:43:43Z</time>
      </trkpt>
      <trkpt lat="56.341618" lon="13.678177">
        <ele>110.1</ele>
        <time>2014-05-17T12:43:44Z</time>
      </trkpt>
      <trkpt lat="56.341582" lon="13.678144">
        <ele>110</ele>
        <time>2014-05-17T12:43:45Z</time>
      </trkpt>
      <trkpt lat="56.34155" lon="13.67809">
        <ele>109.9</ele>
        <time>2014-05-17T12:43:46Z</time>
      </trkpt>
      <trkpt lat="56.341509" lon="13.678061">
        <ele>109.9</ele>
        <time>2014-05-17T12:43:47Z</time>
      </trkpt>
      <trkpt lat="56.341465" lon="13.678044">
        <ele>109.9</ele>
        <time>2014-05-17T12:43:48Z</time>
      </trkpt>
      <trkpt lat="56.341419" lon="13.678026">
        <ele>110</ele>
        <time>2014-05-17T12:43:49Z</time>
      </trkpt>
      <trkpt lat="56.341362" lon="13.678006">
        <ele>110.1</ele>
        <time>2014-05-17T12:43:50Z</time>
      </trkpt>
      <trkpt lat="56.341325" lon="13.677992">
        <ele>110.1</ele>
        <time>2014-05-17T12:43:51Z</time>
      </trkpt>
      <trkpt lat="56.341278" lon="13.677983">
        <ele>110.2</ele>
        <time>2014-05-17T12:43:52Z</time>
      </trkpt>
      <trkpt lat="56.341227" lon="13.677967">
        <ele>110.2</ele>
        <time>2014-05-17T12:43:53Z</time>
      </trkpt>
      <trkpt lat="56.341185" lon="13.677936">
        <ele>110.2</ele>
        <time>2014-05-17T12:43:54Z</time>
      </trkpt>
      <trkpt lat="56.341138" lon="13.677896">
        <ele>110.2</ele>
        <time>2014-05-17T12:43:55Z</time>
      </trkpt>
      <trkpt lat="56.341111" lon="13.677824">
        <ele>110.1</ele>
        <time>2014-05-17T12:43:56Z</time>
      </trkpt>
      <trkpt lat="56.341061" lon="13.677809">
        <ele>110.2</ele>
        <time>2014-05-17T12:43:57Z</time>
      </trkpt>
      <trkpt lat="56.341021" lon="13.677769">
        <ele>110.1</ele>
        <time>2014-05-17T12:43:58Z</time>
      </trkpt>
      <trkpt lat="56.340975" lon="13.677752">
        <ele>110.2</ele>
        <time>2014-05-17T12:43:59Z</time>
      </trkpt>
      <trkpt lat="56.340931" lon="13.677726">
        <ele>110.2</ele>
        <time>2014-05-17T12:44:00Z</time>
      </trkpt>
      <trkpt lat="56.340883" lon="13.677685">
        <ele>110.2</ele>
        <time>2014-05-17T12:44:01Z</time>
      </trkpt>
      <trkpt lat="56.340839" lon="13.677643">
        <ele>110.2</ele>
        <time>2014-05-17T12:44:02Z</time>
      </trkpt>
      <trkpt lat="56.340802" lon="13.677593">
        <ele>110.1</ele>
        <time>2014-05-17T12:44:03Z</time>
      </trkpt>
      <trkpt lat="56.340764" lon="13.677549">
        <ele>110</ele>
        <time>2014-05-17T12:44:04Z</time>
      </trkpt>
      <trkpt lat="56.340727" lon="13.677502">
        <ele>109.9</ele>
        <time>2014-05-17T12:44:05Z</time>
      </trkpt>
      <trkpt lat="56.340704" lon="13.677436">
        <ele>109.8</ele>
        <time>2014-05-17T12:44:06Z</time>
      </trkpt>
      <trkpt lat="56.340672" lon="13.677381">
        <ele>109.7</ele>
        <time>2014-05-17T12:44:07Z</time>
      </trkpt>
      <trkpt lat="56.340637" lon="13.677326">
        <ele>109.5</ele>
        <time>2014-05-17T12:44:08Z</time>
      </trkpt>
      <trkpt lat="56.340598" lon="13.677272">
        <ele>109.4</ele>
        <time>2014-05-17T12:44:09Z</time>
      </trkpt>
      <trkpt lat="56.340565" lon="13.677211">
        <ele>109.3</ele>
        <time>2014-05-17T12:44:10Z</time>
      </trkpt>
      <trkpt lat="56.340523" lon="13.677176">
        <ele>109.2</ele>
        <time>2014-05-17T12:44:11Z</time>
      </trkpt>
      <trkpt lat="56.340484" lon="13.677125">
        <ele>109.1</ele>
        <time>2014-05-17T12:44:12Z</time>
      </trkpt>
      <trkpt lat="56.340444" lon="13.67708">
        <ele>109</ele>
        <time>2014-05-17T12:44:13Z</time>
      </trkpt>
      <trkpt lat="56.340408" lon="13.677029">
        <ele>108.8</ele>
        <time>2014-05-17T12:44:14Z</time>
      </trkpt>
      <trkpt lat="56.340369" lon="13.676984">
        <ele>108.8</ele>
        <time>2014-05-17T12:44:15Z</time>
      </trkpt>
      <trkpt lat="56.340342" lon="13.67693">
        <ele>108.7</ele>
        <time>2014-05-17T12:44:16Z</time>
      </trkpt>
      <trkpt lat="56.340301" lon="13.676887">
        <ele>108.7</ele>
        <time>2014-05-17T12:44:17Z</time>
      </trkpt>
      <trkpt lat="56.340259" lon="13.67684">
        <ele>108.6</ele>
        <time>2014-05-17T12:44:18Z</time>
      </trkpt>
      <trkpt lat="56.340217" lon="13.676801">
        <ele>108.6</ele>
        <time>2014-05-17T12:44:19Z</time>
      </trkpt>
      <trkpt lat="56.340165" lon="13.676769">
        <ele>108.7</ele>
        <time>2014-05-17T12:44:20Z</time>
      </trkpt>
      <trkpt lat="56.340126" lon="13.67672">
        <ele>108.6</ele>
        <time>2014-05-17T12:44:21Z</time>
      </trkpt>
      <trkpt lat="56.34008" lon="13.676666">
        <ele>108.5</ele>
        <time>2014-05-17T12:44:22Z</time>
      </trkpt>
      <trkpt lat="56.340037" lon="13.676617">
        <ele>108.4</ele>
        <time>2014-05-17T12:44:23Z</time>
      </trkpt>
      <trkpt lat="56.339996" lon="13.676587">
        <ele>108.4</ele>
        <time>2014-05-17T12:44:24Z</time>
      </trkpt>
      <trkpt lat="56.339949" lon="13.676541">
        <ele>108.4</ele>
        <time>2014-05-17T12:44:25Z</time>
      </trkpt>
      <trkpt lat="56.339899" lon="13.676514">
        <ele>108.4</ele>
        <time>2014-05-17T12:44:26Z</time>
      </trkpt>
      <trkpt lat="56.339854" lon="13.676482">
        <ele>108.4</ele>
        <time>2014-05-17T12:44:27Z</time>
      </trkpt>
      <trkpt lat="56.339804" lon="13.676453">
        <ele>108.4</ele>
        <time>2014-05-17T12:44:28Z</time>
      </trkpt>
      <trkpt lat="56.339751" lon="13.676426">
        <ele>108.4</ele>
        <time>2014-05-17T12:44:29Z</time>
      </trkpt>
      <trkpt lat="56.3397" lon="13.676386">
        <ele>108.3</ele>
        <time>2014-05-17T12:44:30Z</time>
      </trkpt>
      <trkpt lat="56.339658" lon="13.676345">
        <ele>108.3</ele>
        <time>2014-05-17T12:44:31Z</time>
      </trkpt>
      <trkpt lat="56.339607" lon="13.676312">
        <ele>108.2</ele>
        <time>2014-05-17T12:44:32Z</time>
      </trkpt>
      <trkpt lat="56.339557" lon="13.676283">
        <ele>108.3</ele>
        <time>2014-05-17T12:44:33Z</time>
      </trkpt>
      <trkpt lat="56.339507" lon="13.676251">
        <ele>108.3</ele>
        <time>2014-05-17T12:44:34Z</time>
      </trkpt>
      <trkpt lat="56.339461" lon="13.676216">
        <ele>108.3</ele>
        <time>2014-05-17T12:44:35Z</time>
      </trkpt>
      <trkpt lat="56.339423" lon="13.676175">
        <ele>108.3</ele>
        <time>2014-05-17T12:44:36Z</time>
      </trkpt>
      <trkpt lat="56.339367" lon="13.676142">
        <ele>108.3</ele>
        <time>2014-05-17T12:44:37Z</time>
      </trkpt>
      <trkpt lat="56.339324" lon="13.676107">
        <ele>108.4</ele>
        <time>2014-05-17T12:44:38Z</time>
      </trkpt>
      <trkpt lat="56.339291" lon="13.676069">
        <ele>108.3</ele>
        <time>2014-05-17T12:44:39Z</time>
      </trkpt>
      <trkpt lat="56.339251" lon="13.676032">
        <ele>108.4</ele>
        <time>2014-05-17T12:44:40Z</time>
      </trkpt>
      <trkpt lat="56.33921" lon="13.675999">
        <ele>108.4</ele>
        <time>2014-05-17T12:44:41Z</time>
      </trkpt>
      <trkpt lat="56.33917" lon="13.675964">
        <ele>108.5</ele>
        <time>2014-05-17T12:44:42Z</time>
      </trkpt>
      <trkpt lat="56.339132" lon="13.675925">
        <ele>108.5</ele>
        <time>2014-05-17T12:44:43Z</time>
      </trkpt>
      <trkpt lat="56.339096" lon="13.675891">
        <ele>108.5</ele>
        <time>2014-05-17T12:44:44Z</time>
      </trkpt>
      <trkpt lat="56.339064" lon="13.675864">
        <ele>108.6</ele>
        <time>2014-05-17T12:44:45Z</time>
      </trkpt>
      <trkpt lat="56.339027" lon="13.675834">
        <ele>108.7</ele>
        <time>2014-05-17T12:44:46Z</time>
      </trkpt>
      <trkpt lat="56.338991" lon="13.675799">
        <ele>108.7</ele>
        <time>2014-05-17T12:44:47Z</time>
      </trkpt>
      <trkpt lat="56.338957" lon="13.675765">
        <ele>108.8</ele>
        <time>2014-05-17T12:44:48Z</time>
      </trkpt>
      <trkpt lat="56.338908" lon="13.675742">
        <ele>109</ele>
        <time>2014-05-17T12:44:49Z</time>
      </trkpt>
      <trkpt lat="56.338861" lon="13.675701">
        <ele>109.1</ele>
        <time>2014-05-17T12:44:50Z</time>
      </trkpt>
      <trkpt lat="56.338819" lon="13.675661">
        <ele>109.2</ele>
        <time>2014-05-17T12:44:51Z</time>
      </trkpt>
      <trkpt lat="56.338777" lon="13.675621">
        <ele>109.3</ele>
        <time>2014-05-17T12:44:52Z</time>
      </trkpt>
      <trkpt lat="56.338731" lon="13.675589">
        <ele>109.5</ele>
        <time>2014-05-17T12:44:53Z</time>
      </trkpt>
      <trkpt lat="56.338685" lon="13.675548">
        <ele>109.8</ele>
        <time>2014-05-17T12:44:54Z</time>
      </trkpt>
      <trkpt lat="56.338647" lon="13.675524">
        <ele>110</ele>
        <time>2014-05-17T12:44:55Z</time>
      </trkpt>
      <trkpt lat="56.338611" lon="13.675483">
        <ele>110.1</ele>
        <time>2014-05-17T12:44:56Z</time>
      </trkpt>
      <trkpt lat="56.338568" lon="13.67546">
        <ele>110.4</ele>
        <time>2014-05-17T12:44:57Z</time>
      </trkpt>
      <trkpt lat="56.338534" lon="13.675444">
        <ele>110.6</ele>
        <time>2014-05-17T12:44:58Z</time>
      </trkpt>
      <trkpt lat="56.338488" lon="13.675444">
        <ele>110.9</ele>
        <time>2014-05-17T12:44:59Z</time>
      </trkpt>
      <trkpt lat="56.338449" lon="13.675423">
        <ele>111.2</ele>
        <time>2014-05-17T12:45:00Z</time>
      </trkpt>
      <trkpt lat="56.338418" lon="13.675371">
        <ele>111.3</ele>
        <time>2014-05-17T12:45:01Z</time>
      </trkpt>
      <trkpt lat="56.338384" lon="13.67533">
        <ele>111.5</ele>
        <time>2014-05-17T12:45:02Z</time>
      </trkpt>
      <trkpt lat="56.338348" lon="13.67529">
        <ele>111.7</ele>
        <time>2014-05-17T12:45:03Z</time>
      </trkpt>
      <trkpt lat="56.338306" lon="13.675246">
        <ele>111.9</ele>
        <time>2014-05-17T12:45:04Z</time>
      </trkpt>
      <trkpt lat="56.338268" lon="13.675204">
        <ele>112.1</ele>
        <time>2014-05-17T12:45:05Z</time>
      </trkpt>
      <trkpt lat="56.338228" lon="13.675163">
        <ele>112.3</ele>
        <time>2014-05-17T12:45:06Z</time>
      </trkpt>
      <trkpt lat="56.33819" lon="13.675123">
        <ele>112.4</ele>
        <time>2014-05-17T12:45:07Z</time>
      </trkpt>
      <trkpt lat="56.338148" lon="13.675084">
        <ele>112.6</ele>
        <time>2014-05-17T12:45:08Z</time>
      </trkpt>
      <trkpt lat="56.338111" lon="13.675039">
        <ele>112.8</ele>
        <time>2014-05-17T12:45:09Z</time>
      </trkpt>
      <trkpt lat="56.338079" lon="13.674982">
        <ele>112.9</ele>
        <time>2014-05-17T12:45:10Z</time>
      </trkpt>
      <trkpt lat="56.338047" lon="13.674927">
        <ele>113</ele>
        <time>2014-05-17T12:45:11Z</time>
      </trkpt>
      <trkpt lat="56.338019" lon="13.674871">
        <ele>113</ele>
        <time>2014-05-17T12:45:12Z</time>
      </trkpt>
      <trkpt lat="56.337994" lon="13.674813">
        <ele>113.1</ele>
        <time>2014-05-17T12:45:13Z</time>
      </trkpt>
      <trkpt lat="56.337972" lon="13.674752">
        <ele>113.1</ele>
        <time>2014-05-17T12:45:14Z</time>
      </trkpt>
      <trkpt lat="56.33795" lon="13.674693">
        <ele>113.1</ele>
        <time>2014-05-17T12:45:15Z</time>
      </trkpt>
      <trkpt lat="56.337927" lon="13.674636">
        <ele>113.1</ele>
        <time>2014-05-17T12:45:16Z</time>
      </trkpt>
      <trkpt lat="56.337906" lon="13.674578">
        <ele>113</ele>
        <time>2014-05-17T12:45:17Z</time>
      </trkpt>
      <trkpt lat="56.337886" lon="13.674518">
        <ele>113</ele>
        <time>2014-05-17T12:45:18Z</time>
      </trkpt>
      <trkpt lat="56.337871" lon="13.67446">
        <ele>113</ele>
        <time>2014-05-17T12:45:19Z</time>
      </trkpt>
      <trkpt lat="56.33786" lon="13.674403">
        <ele>112.9</ele>
        <time>2014-05-17T12:45:20Z</time>
      </trkpt>
      <trkpt lat="56.337852" lon="13.674345">
        <ele>112.9</ele>
        <time>2014-05-17T12:45:21Z</time>
      </trkpt>
      <trkpt lat="56.337846" lon="13.674289">
        <ele>112.8</ele>
        <time>2014-05-17T12:45:22Z</time>
      </trkpt>
      <trkpt lat="56.337839" lon="13.674232">
        <ele>112.8</ele>
        <time>2014-05-17T12:45:23Z</time>
      </trkpt>
      <trkpt lat="56.337833" lon="13.674175">
        <ele>112.8</ele>
        <time>2014-05-17T12:45:24Z</time>
      </trkpt>
      <trkpt lat="56.337825" lon="13.674118">
        <ele>112.7</ele>
        <time>2014-05-17T12:45:25Z</time>
      </trkpt>
      <trkpt lat="56.337821" lon="13.674057">
        <ele>112.7</ele>
        <time>2014-05-17T12:45:26Z</time>
      </trkpt>
      <trkpt lat="56.337818" lon="13.673992">
        <ele>112.6</ele>
        <time>2014-05-17T12:45:27Z</time>
      </trkpt>
      <trkpt lat="56.337816" lon="13.673924">
        <ele>112.5</ele>
        <time>2014-05-17T12:45:28Z</time>
      </trkpt>
      <trkpt lat="56.337815" lon="13.673839">
        <ele>112.5</ele>
        <time>2014-05-17T12:45:29Z</time>
      </trkpt>
      <trkpt lat="56.337813" lon="13.673761">
        <ele>112.4</ele>
        <time>2014-05-17T12:45:30Z</time>
      </trkpt>
      <trkpt lat="56.337819" lon="13.673668">
        <ele>112.2</ele>
        <time>2014-05-17T12:45:31Z</time>
      </trkpt>
      <trkpt lat="56.337817" lon="13.673592">
        <ele>112.1</ele>
        <time>2014-05-17T12:45:32Z</time>
      </trkpt>
      <trkpt lat="56.337814" lon="13.673519">
        <ele>112.1</ele>
        <time>2014-05-17T12:45:33Z</time>
      </trkpt>
      <trkpt lat="56.337817" lon="13.673466">
        <ele>112</ele>
        <time>2014-05-17T12:45:34Z</time>
      </trkpt>
      <trkpt lat="56.337827" lon="13.673402">
        <ele>111.9</ele>
        <time>2014-05-17T12:45:35Z</time>
      </trkpt>
      <trkpt lat="56.337843" lon="13.673336">
        <ele>111.7</ele>
        <time>2014-05-17T12:45:36Z</time>
      </trkpt>
      <trkpt lat="56.337857" lon="13.673267">
        <ele>111.6</ele>
        <time>2014-05-17T12:45:37Z</time>
      </trkpt>
      <trkpt lat="56.337872" lon="13.67319">
        <ele>111.5</ele>
        <time>2014-05-17T12:45:38Z</time>
      </trkpt>
      <trkpt lat="56.337884" lon="13.673112">
        <ele>111.3</ele>
        <time>2014-05-17T12:45:39Z</time>
      </trkpt>
      <trkpt lat="56.337898" lon="13.673029">
        <ele>111.2</ele>
        <time>2014-05-17T12:45:40Z</time>
      </trkpt>
      <trkpt lat="56.337914" lon="13.672917">
        <ele>111</ele>
        <time>2014-05-17T12:45:41Z</time>
      </trkpt>
      <trkpt lat="56.337929" lon="13.672839">
        <ele>110.9</ele>
        <time>2014-05-17T12:45:42Z</time>
      </trkpt>
      <trkpt lat="56.337945" lon="13.672759">
        <ele>110.7</ele>
        <time>2014-05-17T12:45:43Z</time>
      </trkpt>
      <trkpt lat="56.337973" lon="13.672689">
        <ele>110.6</ele>
        <time>2014-05-17T12:45:44Z</time>
      </trkpt>
      <trkpt lat="56.337978" lon="13.672602">
        <ele>110.5</ele>
        <time>2014-05-17T12:45:45Z</time>
      </trkpt>
      <trkpt lat="56.337985" lon="13.672507">
        <ele>110.3</ele>
        <time>2014-05-17T12:45:46Z</time>
      </trkpt>
      <trkpt lat="56.338002" lon="13.672415">
        <ele>110.2</ele>
        <time>2014-05-17T12:45:47Z</time>
      </trkpt>
      <trkpt lat="56.338024" lon="13.672358">
        <ele>110.1</ele>
        <time>2014-05-17T12:45:48Z</time>
      </trkpt>
      <trkpt lat="56.338044" lon="13.672288">
        <ele>110</ele>
        <time>2014-05-17T12:45:49Z</time>
      </trkpt>
      <trkpt lat="56.338053" lon="13.672165">
        <ele>109.9</ele>
        <time>2014-05-17T12:45:50Z</time>
      </trkpt>
      <trkpt lat="56.338077" lon="13.672095">
        <ele>109.8</ele>
        <time>2014-05-17T12:45:51Z</time>
      </trkpt>
      <trkpt lat="56.338093" lon="13.672002">
        <ele>109.9</ele>
        <time>2014-05-17T12:45:52Z</time>
      </trkpt>
      <trkpt lat="56.338112" lon="13.671914">
        <ele>109.9</ele>
        <time>2014-05-17T12:45:53Z</time>
      </trkpt>
      <trkpt lat="56.338117" lon="13.671824">
        <ele>110</ele>
        <time>2014-05-17T12:45:54Z</time>
      </trkpt>
      <trkpt lat="56.338123" lon="13.671734">
        <ele>110.1</ele>
        <time>2014-05-17T12:45:55Z</time>
      </trkpt>
      <trkpt lat="56.338136" lon="13.67165">
        <ele>110.1</ele>
        <time>2014-05-17T12:45:56Z</time>
      </trkpt>
      <trkpt lat="56.338145" lon="13.671556">
        <ele>110.2</ele>
        <time>2014-05-17T12:45:57Z</time>
      </trkpt>
      <trkpt lat="56.338162" lon="13.671485">
        <ele>110.2</ele>
        <time>2014-05-17T12:45:58Z</time>
      </trkpt>
      <trkpt lat="56.338175" lon="13.671401">
        <ele>110.3</ele>
        <time>2014-05-17T12:45:59Z</time>
      </trkpt>
      <trkpt lat="56.338188" lon="13.671329">
        <ele>110.3</ele>
        <time>2014-05-17T12:46:00Z</time>
      </trkpt>
      <trkpt lat="56.338201" lon="13.671263">
        <ele>110.3</ele>
        <time>2014-05-17T12:46:01Z</time>
      </trkpt>
      <trkpt lat="56.338216" lon="13.67121">
        <ele>110.3</ele>
        <time>2014-05-17T12:46:02Z</time>
      </trkpt>
      <trkpt lat="56.338217" lon="13.671148">
        <ele>110.3</ele>
        <time>2014-05-17T12:46:03Z</time>
      </trkpt>
      <trkpt lat="56.338223" lon="13.671082">
        <ele>110.3</ele>
        <time>2014-05-17T12:46:04Z</time>
      </trkpt>
      <trkpt lat="56.338228" lon="13.671023">
        <ele>110.3</ele>
        <time>2014-05-17T12:46:05Z</time>
      </trkpt>
      <trkpt lat="56.338234" lon="13.670965">
        <ele>110.2</ele>
        <time>2014-05-17T12:46:06Z</time>
      </trkpt>
      <trkpt lat="56.33824" lon="13.670908">
        <ele>110.2</ele>
        <time>2014-05-17T12:46:07Z</time>
      </trkpt>
      <trkpt lat="56.338245" lon="13.67085">
        <ele>110.2</ele>
        <time>2014-05-17T12:46:08Z</time>
      </trkpt>
      <trkpt lat="56.338249" lon="13.670791">
        <ele>110.2</ele>
        <time>2014-05-17T12:46:09Z</time>
      </trkpt>
      <trkpt lat="56.338249" lon="13.670732">
        <ele>110.2</ele>
        <time>2014-05-17T12:46:10Z</time>
      </trkpt>
      <trkpt lat="56.338247" lon="13.670672">
        <ele>110.2</ele>
        <time>2014-05-17T12:46:11Z</time>
      </trkpt>
      <trkpt lat="56.338242" lon="13.670612">
        <ele>110.2</ele>
        <time>2014-05-17T12:46:12Z</time>
      </trkpt>
      <trkpt lat="56.338236" lon="13.670551">
        <ele>110.2</ele>
        <time>2014-05-17T12:46:13Z</time>
      </trkpt>
      <trkpt lat="56.338227" lon="13.670489">
        <ele>110.3</ele>
        <time>2014-05-17T12:46:14Z</time>
      </trkpt>
      <trkpt lat="56.338216" lon="13.670417">
        <ele>110.3</ele>
        <time>2014-05-17T12:46:15Z</time>
      </trkpt>
      <trkpt lat="56.338204" lon="13.670345">
        <ele>110.2</ele>
        <time>2014-05-17T12:46:16Z</time>
      </trkpt>
      <trkpt lat="56.338193" lon="13.670274">
        <ele>110.1</ele>
        <time>2014-05-17T12:46:17Z</time>
      </trkpt>
      <trkpt lat="56.338181" lon="13.670205">
        <ele>110</ele>
        <time>2014-05-17T12:46:18Z</time>
      </trkpt>
      <trkpt lat="56.338169" lon="13.670141">
        <ele>110</ele>
        <time>2014-05-17T12:46:19Z</time>
      </trkpt>
      <trkpt lat="56.338155" lon="13.670069">
        <ele>109.9</ele>
        <time>2014-05-17T12:46:20Z</time>
      </trkpt>
      <trkpt lat="56.338142" lon="13.669999">
        <ele>109.8</ele>
        <time>2014-05-17T12:46:21Z</time>
      </trkpt>
      <trkpt lat="56.338127" lon="13.669931">
        <ele>109.8</ele>
        <time>2014-05-17T12:46:22Z</time>
      </trkpt>
      <trkpt lat="56.338111" lon="13.669864">
        <ele>109.7</ele>
        <time>2014-05-17T12:46:23Z</time>
      </trkpt>
      <trkpt lat="56.338094" lon="13.669797">
        <ele>109.7</ele>
        <time>2014-05-17T12:46:24Z</time>
      </trkpt>
      <trkpt lat="56.33808" lon="13.669728">
        <ele>109.6</ele>
        <time>2014-05-17T12:46:25Z</time>
      </trkpt>
      <trkpt lat="56.338067" lon="13.669659">
        <ele>109.6</ele>
        <time>2014-05-17T12:46:26Z</time>
      </trkpt>
      <trkpt lat="56.338057" lon="13.669592">
        <ele>109.5</ele>
        <time>2014-05-17T12:46:27Z</time>
      </trkpt>
      <trkpt lat="56.338051" lon="13.669526">
        <ele>109.5</ele>
        <time>2014-05-17T12:46:28Z</time>
      </trkpt>
      <trkpt lat="56.338048" lon="13.669462">
        <ele>109.5</ele>
        <time>2014-05-17T12:46:29Z</time>
      </trkpt>
      <trkpt lat="56.338045" lon="13.669396">
        <ele>109.5</ele>
        <time>2014-05-17T12:46:30Z</time>
      </trkpt>
      <trkpt lat="56.338034" lon="13.669337">
        <ele>109.5</ele>
        <time>2014-05-17T12:46:31Z</time>
      </trkpt>
      <trkpt lat="56.338022" lon="13.669276">
        <ele>109.6</ele>
        <time>2014-05-17T12:46:32Z</time>
      </trkpt>
      <trkpt lat="56.338007" lon="13.669216">
        <ele>109.6</ele>
        <time>2014-05-17T12:46:33Z</time>
      </trkpt>
      <trkpt lat="56.33799" lon="13.669157">
        <ele>109.7</ele>
        <time>2014-05-17T12:46:34Z</time>
      </trkpt>
      <trkpt lat="56.337972" lon="13.669097">
        <ele>109.8</ele>
        <time>2014-05-17T12:46:35Z</time>
      </trkpt>
      <trkpt lat="56.337952" lon="13.669037">
        <ele>109.8</ele>
        <time>2014-05-17T12:46:36Z</time>
      </trkpt>
      <trkpt lat="56.337935" lon="13.668974">
        <ele>109.9</ele>
        <time>2014-05-17T12:46:37Z</time>
      </trkpt>
      <trkpt lat="56.337919" lon="13.66891">
        <ele>110</ele>
        <time>2014-05-17T12:46:38Z</time>
      </trkpt>
      <trkpt lat="56.337904" lon="13.668846">
        <ele>110</ele>
        <time>2014-05-17T12:46:39Z</time>
      </trkpt>
      <trkpt lat="56.337888" lon="13.668784">
        <ele>110</ele>
        <time>2014-05-17T12:46:40Z</time>
      </trkpt>
      <trkpt lat="56.337873" lon="13.668725">
        <ele>109.9</ele>
        <time>2014-05-17T12:46:41Z</time>
      </trkpt>
      <trkpt lat="56.337854" lon="13.668667">
        <ele>109.8</ele>
        <time>2014-05-17T12:46:42Z</time>
      </trkpt>
      <trkpt lat="56.337834" lon="13.668613">
        <ele>109.7</ele>
        <time>2014-05-17T12:46:43Z</time>
      </trkpt>
      <trkpt lat="56.337813" lon="13.668559">
        <ele>109.5</ele>
        <time>2014-05-17T12:46:44Z</time>
      </trkpt>
      <trkpt lat="56.337793" lon="13.668505">
        <ele>109.4</ele>
        <time>2014-05-17T12:46:45Z</time>
      </trkpt>
      <trkpt lat="56.337774" lon="13.668448">
        <ele>109.3</ele>
        <time>2014-05-17T12:46:46Z</time>
      </trkpt>
      <trkpt lat="56.337757" lon="13.668394">
        <ele>109.1</ele>
        <time>2014-05-17T12:46:47Z</time>
      </trkpt>
      <trkpt lat="56.337739" lon="13.668341">
        <ele>109</ele>
        <time>2014-05-17T12:46:48Z</time>
      </trkpt>
      <trkpt lat="56.337722" lon="13.66829">
        <ele>108.9</ele>
        <time>2014-05-17T12:46:49Z</time>
      </trkpt>
      <trkpt lat="56.337705" lon="13.668247">
        <ele>108.8</ele>
        <time>2014-05-17T12:46:50Z</time>
      </trkpt>
      <trkpt lat="56.337687" lon="13.668201">
        <ele>108.7</ele>
        <time>2014-05-17T12:46:51Z</time>
      </trkpt>
      <trkpt lat="56.33767" lon="13.668151">
        <ele>108.6</ele>
        <time>2014-05-17T12:46:52Z</time>
      </trkpt>
      <trkpt lat="56.337653" lon="13.6681">
        <ele>108.4</ele>
        <time>2014-05-17T12:46:53Z</time>
      </trkpt>
      <trkpt lat="56.337635" lon="13.668048">
        <ele>108.3</ele>
        <time>2014-05-17T12:46:54Z</time>
      </trkpt>
      <trkpt lat="56.337614" lon="13.667994">
        <ele>108.2</ele>
        <time>2014-05-17T12:46:55Z</time>
      </trkpt>
      <trkpt lat="56.337584" lon="13.667927">
        <ele>108</ele>
        <time>2014-05-17T12:46:56Z</time>
      </trkpt>
      <trkpt lat="56.337554" lon="13.667865">
        <ele>107.9</ele>
        <time>2014-05-17T12:46:57Z</time>
      </trkpt>
      <trkpt lat="56.337524" lon="13.667798">
        <ele>107.8</ele>
        <time>2014-05-17T12:46:58Z</time>
      </trkpt>
      <trkpt lat="56.337482" lon="13.667707">
        <ele>107.6</ele>
        <time>2014-05-17T12:46:59Z</time>
      </trkpt>
      <trkpt lat="56.337451" lon="13.667635">
        <ele>107.5</ele>
        <time>2014-05-17T12:47:00Z</time>
      </trkpt>
      <trkpt lat="56.337421" lon="13.66754">
        <ele>107.4</ele>
        <time>2014-05-17T12:47:01Z</time>
      </trkpt>
      <trkpt lat="56.337394" lon="13.667448">
        <ele>107.2</ele>
        <time>2014-05-17T12:47:02Z</time>
      </trkpt>
      <trkpt lat="56.337363" lon="13.667359">
        <ele>107.1</ele>
        <time>2014-05-17T12:47:03Z</time>
      </trkpt>
      <trkpt lat="56.337339" lon="13.667277">
        <ele>107</ele>
        <time>2014-05-17T12:47:04Z</time>
      </trkpt>
      <trkpt lat="56.337309" lon="13.667185">
        <ele>106.9</ele>
        <time>2014-05-17T12:47:05Z</time>
      </trkpt>
      <trkpt lat="56.337283" lon="13.667106">
        <ele>106.8</ele>
        <time>2014-05-17T12:47:06Z</time>
      </trkpt>
      <trkpt lat="56.337252" lon="13.667035">
        <ele>106.7</ele>
        <time>2014-05-17T12:47:07Z</time>
      </trkpt>
      <trkpt lat="56.337233" lon="13.666965">
        <ele>106.7</ele>
        <time>2014-05-17T12:47:08Z</time>
      </trkpt>
      <trkpt lat="56.337212" lon="13.666899">
        <ele>106.6</ele>
        <time>2014-05-17T12:47:09Z</time>
      </trkpt>
      <trkpt lat="56.337198" lon="13.666838">
        <ele>106.6</ele>
        <time>2014-05-17T12:47:10Z</time>
      </trkpt>
      <trkpt lat="56.337195" lon="13.66676">
        <ele>106.5</ele>
        <time>2014-05-17T12:47:11Z</time>
      </trkpt>
      <trkpt lat="56.337199" lon="13.666695">
        <ele>106.4</ele>
        <time>2014-05-17T12:47:12Z</time>
      </trkpt>
      <trkpt lat="56.337207" lon="13.666627">
        <ele>106.3</ele>
        <time>2014-05-17T12:47:13Z</time>
      </trkpt>
      <trkpt lat="56.337219" lon="13.666567">
        <ele>106.2</ele>
        <time>2014-05-17T12:47:14Z</time>
      </trkpt>
      <trkpt lat="56.337231" lon="13.666493">
        <ele>106.1</ele>
        <time>2014-05-17T12:47:15Z</time>
      </trkpt>
      <trkpt lat="56.337242" lon="13.666413">
        <ele>106</ele>
        <time>2014-05-17T12:47:16Z</time>
      </trkpt>
      <trkpt lat="56.337248" lon="13.666331">
        <ele>105.9</ele>
        <time>2014-05-17T12:47:17Z</time>
      </trkpt>
      <trkpt lat="56.337266" lon="13.666251">
        <ele>105.8</ele>
        <time>2014-05-17T12:47:18Z</time>
      </trkpt>
      <trkpt lat="56.337284" lon="13.666169">
        <ele>105.8</ele>
        <time>2014-05-17T12:47:19Z</time>
      </trkpt>
      <trkpt lat="56.337303" lon="13.666086">
        <ele>105.7</ele>
        <time>2014-05-17T12:47:20Z</time>
      </trkpt>
      <trkpt lat="56.337317" lon="13.665995">
        <ele>105.7</ele>
        <time>2014-05-17T12:47:21Z</time>
      </trkpt>
      <trkpt lat="56.337336" lon="13.6659">
        <ele>105.7</ele>
        <time>2014-05-17T12:47:22Z</time>
      </trkpt>
      <trkpt lat="56.337352" lon="13.665799">
        <ele>105.7</ele>
        <time>2014-05-17T12:47:23Z</time>
      </trkpt>
      <trkpt lat="56.337363" lon="13.665697">
        <ele>105.7</ele>
        <time>2014-05-17T12:47:24Z</time>
      </trkpt>
      <trkpt lat="56.337388" lon="13.665603">
        <ele>105.6</ele>
        <time>2014-05-17T12:47:25Z</time>
      </trkpt>
      <trkpt lat="56.337424" lon="13.665525">
        <ele>105.6</ele>
        <time>2014-05-17T12:47:26Z</time>
      </trkpt>
      <trkpt lat="56.337475" lon="13.66545">
        <ele>105.5</ele>
        <time>2014-05-17T12:47:27Z</time>
      </trkpt>
      <trkpt lat="56.33751" lon="13.665382">
        <ele>105.5</ele>
        <time>2014-05-17T12:47:28Z</time>
      </trkpt>
      <trkpt lat="56.337551" lon="13.6653">
        <ele>105.5</ele>
        <time>2014-05-17T12:47:29Z</time>
      </trkpt>
      <trkpt lat="56.337595" lon="13.66522">
        <ele>105.4</ele>
        <time>2014-05-17T12:47:30Z</time>
      </trkpt>
      <trkpt lat="56.337639" lon="13.665144">
        <ele>105.4</ele>
        <time>2014-05-17T12:47:31Z</time>
      </trkpt>
      <trkpt lat="56.33768" lon="13.665067">
        <ele>105.5</ele>
        <time>2014-05-17T12:47:32Z</time>
      </trkpt>
      <trkpt lat="56.337725" lon="13.664992">
        <ele>105.5</ele>
        <time>2014-05-17T12:47:33Z</time>
      </trkpt>
      <trkpt lat="56.33777" lon="13.664926">
        <ele>105.6</ele>
        <time>2014-05-17T12:47:34Z</time>
      </trkpt>
      <trkpt lat="56.337817" lon="13.66486">
        <ele>105.6</ele>
        <time>2014-05-17T12:47:35Z</time>
      </trkpt>
      <trkpt lat="56.33786" lon="13.664798">
        <ele>105.7</ele>
        <time>2014-05-17T12:47:36Z</time>
      </trkpt>
      <trkpt lat="56.337905" lon="13.664757">
        <ele>105.8</ele>
        <time>2014-05-17T12:47:37Z</time>
      </trkpt>
      <trkpt lat="56.337948" lon="13.664703">
        <ele>105.9</ele>
        <time>2014-05-17T12:47:38Z</time>
      </trkpt>
      <trkpt lat="56.33799" lon="13.664654">
        <ele>106.1</ele>
        <time>2014-05-17T12:47:39Z</time>
      </trkpt>
      <trkpt lat="56.338025" lon="13.664597">
        <ele>106.2</ele>
        <time>2014-05-17T12:47:40Z</time>
      </trkpt>
      <trkpt lat="56.338063" lon="13.664545">
        <ele>106.4</ele>
        <time>2014-05-17T12:47:41Z</time>
      </trkpt>
      <trkpt lat="56.338089" lon="13.664506">
        <ele>106.4</ele>
        <time>2014-05-17T12:47:42Z</time>
      </trkpt>
      <trkpt lat="56.338119" lon="13.664456">
        <ele>106.5</ele>
        <time>2014-05-17T12:47:43Z</time>
      </trkpt>
      <trkpt lat="56.338148" lon="13.664407">
        <ele>106.6</ele>
        <time>2014-05-17T12:47:44Z</time>
      </trkpt>
      <trkpt lat="56.338198" lon="13.664372">
        <ele>106.8</ele>
        <time>2014-05-17T12:47:46Z</time>
      </trkpt>
      <trkpt lat="56.338228" lon="13.664361">
        <ele>106.8</ele>
        <time>2014-05-17T12:47:47Z</time>
      </trkpt>
      <trkpt lat="56.338256" lon="13.664341">
        <ele>106.9</ele>
        <time>2014-05-17T12:47:48Z</time>
      </trkpt>
      <trkpt lat="56.338287" lon="13.664328">
        <ele>107</ele>
        <time>2014-05-17T12:47:49Z</time>
      </trkpt>
      <trkpt lat="56.33832" lon="13.664306">
        <ele>107.1</ele>
        <time>2014-05-17T12:47:50Z</time>
      </trkpt>
      <trkpt lat="56.338352" lon="13.664296">
        <ele>107.2</ele>
        <time>2014-05-17T12:47:51Z</time>
      </trkpt>
      <trkpt lat="56.338385" lon="13.664285">
        <ele>107.3</ele>
        <time>2014-05-17T12:47:52Z</time>
      </trkpt>
      <trkpt lat="56.338417" lon="13.664274">
        <ele>107.4</ele>
        <time>2014-05-17T12:47:53Z</time>
      </trkpt>
      <trkpt lat="56.338448" lon="13.66426">
        <ele>107.5</ele>
        <time>2014-05-17T12:47:54Z</time>
      </trkpt>
      <trkpt lat="56.338479" lon="13.664245">
        <ele>107.6</ele>
        <time>2014-05-17T12:47:55Z</time>
      </trkpt>
      <trkpt lat="56.338509" lon="13.664228">
        <ele>107.7</ele>
        <time>2014-05-17T12:47:56Z</time>
      </trkpt>
      <trkpt lat="56.338539" lon="13.664213">
        <ele>107.8</ele>
        <time>2014-05-17T12:47:57Z</time>
      </trkpt>
      <trkpt lat="56.338571" lon="13.664198">
        <ele>107.9</ele>
        <time>2014-05-17T12:47:58Z</time>
      </trkpt>
      <trkpt lat="56.338604" lon="13.664185">
        <ele>108</ele>
        <time>2014-05-17T12:47:59Z</time>
      </trkpt>
      <trkpt lat="56.338637" lon="13.66417">
        <ele>108.2</ele>
        <time>2014-05-17T12:48:00Z</time>
      </trkpt>
      <trkpt lat="56.33867" lon="13.664153">
        <ele>108.3</ele>
        <time>2014-05-17T12:48:01Z</time>
      </trkpt>
      <trkpt lat="56.338709" lon="13.664133">
        <ele>108.4</ele>
        <time>2014-05-17T12:48:02Z</time>
      </trkpt>
      <trkpt lat="56.338749" lon="13.664116">
        <ele>108.6</ele>
        <time>2014-05-17T12:48:03Z</time>
      </trkpt>
      <trkpt lat="56.338787" lon="13.664101">
        <ele>108.5</ele>
        <time>2014-05-17T12:48:04Z</time>
      </trkpt>
      <trkpt lat="56.338833" lon="13.66408">
        <ele>108.4</ele>
        <time>2014-05-17T12:48:05Z</time>
      </trkpt>
      <trkpt lat="56.338876" lon="13.664066">
        <ele>108.4</ele>
        <time>2014-05-17T12:48:06Z</time>
      </trkpt>
      <trkpt lat="56.338919" lon="13.664054">
        <ele>108.3</ele>
        <time>2014-05-17T12:48:07Z</time>
      </trkpt>
      <trkpt lat="56.33896" lon="13.664041">
        <ele>108.2</ele>
        <time>2014-05-17T12:48:08Z</time>
      </trkpt>
      <trkpt lat="56.339006" lon="13.664025">
        <ele>108.2</ele>
        <time>2014-05-17T12:48:09Z</time>
      </trkpt>
      <trkpt lat="56.339047" lon="13.664012">
        <ele>108.1</ele>
        <time>2014-05-17T12:48:10Z</time>
      </trkpt>
      <trkpt lat="56.339091" lon="13.664032">
        <ele>108</ele>
        <time>2014-05-17T12:48:11Z</time>
      </trkpt>
      <trkpt lat="56.339124" lon="13.664081">
        <ele>107.9</ele>
        <time>2014-05-17T12:48:12Z</time>
      </trkpt>
      <trkpt lat="56.339141" lon="13.664158">
        <ele>107.8</ele>
        <time>2014-05-17T12:48:13Z</time>
      </trkpt>
      <trkpt lat="56.339148" lon="13.664242">
        <ele>107.7</ele>
        <time>2014-05-17T12:48:14Z</time>
      </trkpt>
      <trkpt lat="56.33915" lon="13.664328">
        <ele>107.7</ele>
        <time>2014-05-17T12:48:15Z</time>
      </trkpt>
      <trkpt lat="56.339134" lon="13.664456">
        <ele>107.6</ele>
        <time>2014-05-17T12:48:16Z</time>
      </trkpt>
      <trkpt lat="56.339141" lon="13.664544">
        <ele>107.6</ele>
        <time>2014-05-17T12:48:17Z</time>
      </trkpt>
      <trkpt lat="56.339146" lon="13.664625">
        <ele>107.5</ele>
        <time>2014-05-17T12:48:18Z</time>
      </trkpt>
      <trkpt lat="56.33917" lon="13.664654">
        <ele>107.5</ele>
        <time>2014-05-17T12:48:19Z</time>
      </trkpt>
      <trkpt lat="56.339189" lon="13.664703">
        <ele>107.4</ele>
        <time>2014-05-17T12:48:20Z</time>
      </trkpt>
      <trkpt lat="56.339207" lon="13.664751">
        <ele>107.4</ele>
        <time>2014-05-17T12:48:21Z</time>
      </trkpt>
      <trkpt lat="56.339194" lon="13.664891">
        <ele>107.3</ele>
        <time>2014-05-17T12:48:23Z</time>
      </trkpt>
      <trkpt lat="56.339183" lon="13.664975">
        <ele>107.3</ele>
        <time>2014-05-17T12:48:24Z</time>
      </trkpt>
      <trkpt lat="56.339175" lon="13.665051">
        <ele>107.2</ele>
        <time>2014-05-17T12:48:25Z</time>
      </trkpt>
      <trkpt lat="56.339197" lon="13.665127">
        <ele>107.2</ele>
        <time>2014-05-17T12:48:26Z</time>
      </trkpt>
      <trkpt lat="56.339204" lon="13.665184">
        <ele>107.2</ele>
        <time>2014-05-17T12:48:27Z</time>
      </trkpt>
      <trkpt lat="56.339254" lon="13.665197">
        <ele>107.3</ele>
        <time>2014-05-17T12:48:28Z</time>
      </trkpt>
      <trkpt lat="56.339294" lon="13.665195">
        <ele>107.3</ele>
        <time>2014-05-17T12:48:29Z</time>
      </trkpt>
      <trkpt lat="56.339334" lon="13.665192">
        <ele>107.4</ele>
        <time>2014-05-17T12:48:30Z</time>
      </trkpt>
      <trkpt lat="56.339372" lon="13.66519">
        <ele>107.4</ele>
        <time>2014-05-17T12:48:31Z</time>
      </trkpt>
      <trkpt lat="56.339417" lon="13.665187">
        <ele>107.5</ele>
        <time>2014-05-17T12:48:32Z</time>
      </trkpt>
      <trkpt lat="56.339459" lon="13.665185">
        <ele>107.5</ele>
        <time>2014-05-17T12:48:33Z</time>
      </trkpt>
      <trkpt lat="56.339504" lon="13.665183">
        <ele>107.6</ele>
        <time>2014-05-17T12:48:34Z</time>
      </trkpt>
      <trkpt lat="56.339551" lon="13.665181">
        <ele>107.7</ele>
        <time>2014-05-17T12:48:35Z</time>
      </trkpt>
      <trkpt lat="56.339609" lon="13.665165">
        <ele>107.7</ele>
        <time>2014-05-17T12:48:36Z</time>
      </trkpt>
      <trkpt lat="56.339655" lon="13.665155">
        <ele>107.6</ele>
        <time>2014-05-17T12:48:37Z</time>
      </trkpt>
      <trkpt lat="56.339702" lon="13.665149">
        <ele>107.6</ele>
        <time>2014-05-17T12:48:38Z</time>
      </trkpt>
      <trkpt lat="56.339746" lon="13.665149">
        <ele>107.5</ele>
        <time>2014-05-17T12:48:39Z</time>
      </trkpt>
      <trkpt lat="56.339793" lon="13.665144">
        <ele>107.5</ele>
        <time>2014-05-17T12:48:40Z</time>
      </trkpt>
      <trkpt lat="56.339834" lon="13.665128">
        <ele>107.5</ele>
        <time>2014-05-17T12:48:41Z</time>
      </trkpt>
      <trkpt lat="56.339871" lon="13.665123">
        <ele>107.4</ele>
        <time>2014-05-17T12:48:42Z</time>
      </trkpt>
      <trkpt lat="56.339911" lon="13.665141">
        <ele>107.4</ele>
        <time>2014-05-17T12:48:43Z</time>
      </trkpt>
      <trkpt lat="56.339941" lon="13.665208">
        <ele>107.4</ele>
        <time>2014-05-17T12:48:44Z</time>
      </trkpt>
      <trkpt lat="56.339945" lon="13.665273">
        <ele>107.5</ele>
        <time>2014-05-17T12:48:45Z</time>
      </trkpt>
      <trkpt lat="56.339949" lon="13.665337">
        <ele>107.5</ele>
        <time>2014-05-17T12:48:46Z</time>
      </trkpt>
      <trkpt lat="56.339953" lon="13.665395">
        <ele>107.5</ele>
        <time>2014-05-17T12:48:47Z</time>
      </trkpt>
      <trkpt lat="56.339955" lon="13.66546">
        <ele>107.6</ele>
        <time>2014-05-17T12:48:48Z</time>
      </trkpt>
      <trkpt lat="56.339953" lon="13.665525">
        <ele>107.6</ele>
        <time>2014-05-17T12:48:49Z</time>
      </trkpt>
      <trkpt lat="56.339955" lon="13.665586">
        <ele>107.6</ele>
        <time>2014-05-17T12:48:50Z</time>
      </trkpt>
      <trkpt lat="56.339959" lon="13.665644">
        <ele>107.6</ele>
        <time>2014-05-17T12:48:51Z</time>
      </trkpt>
      <trkpt lat="56.339964" lon="13.665699">
        <ele>107.7</ele>
        <time>2014-05-17T12:48:52Z</time>
      </trkpt>
      <trkpt lat="56.339966" lon="13.665751">
        <ele>107.7</ele>
        <time>2014-05-17T12:48:53Z</time>
      </trkpt>
      <trkpt lat="56.339964" lon="13.665804">
        <ele>107.7</ele>
        <time>2014-05-17T12:48:54Z</time>
      </trkpt>
      <trkpt lat="56.33996" lon="13.665855">
        <ele>107.7</ele>
        <time>2014-05-17T12:48:55Z</time>
      </trkpt>
      <trkpt lat="56.339956" lon="13.665905">
        <ele>107.8</ele>
        <time>2014-05-17T12:48:56Z</time>
      </trkpt>
      <trkpt lat="56.339955" lon="13.665955">
        <ele>107.8</ele>
        <time>2014-05-17T12:48:57Z</time>
      </trkpt>
      <trkpt lat="56.339951" lon="13.666005">
        <ele>107.8</ele>
        <time>2014-05-17T12:48:58Z</time>
      </trkpt>
      <trkpt lat="56.339949" lon="13.666056">
        <ele>107.8</ele>
        <time>2014-05-17T12:48:59Z</time>
      </trkpt>
      <trkpt lat="56.339949" lon="13.666109">
        <ele>107.8</ele>
        <time>2014-05-17T12:49:00Z</time>
      </trkpt>
      <trkpt lat="56.339951" lon="13.666164">
        <ele>107.8</ele>
        <time>2014-05-17T12:49:01Z</time>
      </trkpt>
      <trkpt lat="56.339955" lon="13.666223">
        <ele>107.9</ele>
        <time>2014-05-17T12:49:02Z</time>
      </trkpt>
      <trkpt lat="56.339958" lon="13.666294">
        <ele>107.9</ele>
        <time>2014-05-17T12:49:03Z</time>
      </trkpt>
      <trkpt lat="56.339962" lon="13.666363">
        <ele>107.9</ele>
        <time>2014-05-17T12:49:04Z</time>
      </trkpt>
      <trkpt lat="56.339964" lon="13.666434">
        <ele>107.9</ele>
        <time>2014-05-17T12:49:05Z</time>
      </trkpt>
      <trkpt lat="56.339968" lon="13.666508">
        <ele>107.9</ele>
        <time>2014-05-17T12:49:06Z</time>
      </trkpt>
      <trkpt lat="56.33997" lon="13.666578">
        <ele>107.9</ele>
        <time>2014-05-17T12:49:07Z</time>
      </trkpt>
      <trkpt lat="56.339971" lon="13.666656">
        <ele>107.9</ele>
        <time>2014-05-17T12:49:08Z</time>
      </trkpt>
      <trkpt lat="56.33997" lon="13.666729">
        <ele>107.8</ele>
        <time>2014-05-17T12:49:09Z</time>
      </trkpt>
      <trkpt lat="56.339969" lon="13.666802">
        <ele>107.8</ele>
        <time>2014-05-17T12:49:10Z</time>
      </trkpt>
      <trkpt lat="56.33997" lon="13.666873">
        <ele>107.8</ele>
        <time>2014-05-17T12:49:11Z</time>
      </trkpt>
      <trkpt lat="56.33997" lon="13.666942">
        <ele>107.8</ele>
        <time>2014-05-17T12:49:12Z</time>
      </trkpt>
      <trkpt lat="56.339973" lon="13.66701">
        <ele>107.8</ele>
        <time>2014-05-17T12:49:13Z</time>
      </trkpt>
      <trkpt lat="56.339976" lon="13.667075">
        <ele>107.8</ele>
        <time>2014-05-17T12:49:14Z</time>
      </trkpt>
      <trkpt lat="56.339982" lon="13.667137">
        <ele>107.9</ele>
        <time>2014-05-17T12:49:15Z</time>
      </trkpt>
      <trkpt lat="56.339997" lon="13.66722">
        <ele>108.1</ele>
        <time>2014-05-17T12:49:17Z</time>
      </trkpt>
      <trkpt lat="56.340007" lon="13.667311">
        <ele>108.2</ele>
        <time>2014-05-17T12:49:19Z</time>
      </trkpt>
      <trkpt lat="56.340016" lon="13.667406">
        <ele>108.3</ele>
        <time>2014-05-17T12:49:21Z</time>
      </trkpt>
      <trkpt lat="56.340024" lon="13.667458">
        <ele>108.4</ele>
        <time>2014-05-17T12:49:22Z</time>
      </trkpt>
      <trkpt lat="56.340033" lon="13.667522">
        <ele>108.5</ele>
        <time>2014-05-17T12:49:23Z</time>
      </trkpt>
      <trkpt lat="56.340043" lon="13.667595">
        <ele>108.6</ele>
        <time>2014-05-17T12:49:24Z</time>
      </trkpt>
      <trkpt lat="56.340052" lon="13.667666">
        <ele>108.7</ele>
        <time>2014-05-17T12:49:25Z</time>
      </trkpt>
      <trkpt lat="56.34006" lon="13.667738">
        <ele>108.8</ele>
        <time>2014-05-17T12:49:26Z</time>
      </trkpt>
      <trkpt lat="56.340068" lon="13.66781">
        <ele>108.9</ele>
        <time>2014-05-17T12:49:27Z</time>
      </trkpt>
      <trkpt lat="56.340077" lon="13.66788">
        <ele>108.9</ele>
        <time>2014-05-17T12:49:28Z</time>
      </trkpt>
      <trkpt lat="56.340088" lon="13.667948">
        <ele>109</ele>
        <time>2014-05-17T12:49:29Z</time>
      </trkpt>
      <trkpt lat="56.340099" lon="13.668015">
        <ele>109.1</ele>
        <time>2014-05-17T12:49:30Z</time>
      </trkpt>
      <trkpt lat="56.340111" lon="13.668084">
        <ele>109.2</ele>
        <time>2014-05-17T12:49:31Z</time>
      </trkpt>
      <trkpt lat="56.340121" lon="13.668155">
        <ele>109.2</ele>
        <time>2014-05-17T12:49:32Z</time>
      </trkpt>
      <trkpt lat="56.34013" lon="13.668227">
        <ele>109.3</ele>
        <time>2014-05-17T12:49:33Z</time>
      </trkpt>
      <trkpt lat="56.34014" lon="13.668298">
        <ele>109.3</ele>
        <time>2014-05-17T12:49:34Z</time>
      </trkpt>
      <trkpt lat="56.340149" lon="13.668365">
        <ele>109.4</ele>
        <time>2014-05-17T12:49:35Z</time>
      </trkpt>
      <trkpt lat="56.340158" lon="13.66843">
        <ele>109.4</ele>
        <time>2014-05-17T12:49:36Z</time>
      </trkpt>
      <trkpt lat="56.340164" lon="13.668517">
        <ele>109.4</ele>
        <time>2014-05-17T12:49:38Z</time>
      </trkpt>
      <trkpt lat="56.340169" lon="13.668572">
        <ele>109.4</ele>
        <time>2014-05-17T12:49:40Z</time>
      </trkpt>
      <trkpt lat="56.340188" lon="13.668624">
        <ele>109.5</ele>
        <time>2014-05-17T12:49:43Z</time>
      </trkpt>
      <trkpt lat="56.340214" lon="13.668596">
        <ele>109.6</ele>
        <time>2014-05-17T12:49:45Z</time>
      </trkpt>
      <trkpt lat="56.340244" lon="13.66857">
        <ele>109.7</ele>
        <time>2014-05-17T12:49:47Z</time>
      </trkpt>
      <trkpt lat="56.34028" lon="13.668583">
        <ele>109.8</ele>
        <time>2014-05-17T12:49:49Z</time>
      </trkpt>
      <trkpt lat="56.340311" lon="13.668615">
        <ele>109.8</ele>
        <time>2014-05-17T12:49:50Z</time>
      </trkpt>
      <trkpt lat="56.34034" lon="13.668664">
        <ele>109.9</ele>
        <time>2014-05-17T12:49:51Z</time>
      </trkpt>
      <trkpt lat="56.340367" lon="13.668728">
        <ele>109.9</ele>
        <time>2014-05-17T12:49:52Z</time>
      </trkpt>
      <trkpt lat="56.340391" lon="13.668797">
        <ele>109.9</ele>
        <time>2014-05-17T12:49:53Z</time>
      </trkpt>
      <trkpt lat="56.340404" lon="13.668866">
        <ele>110</ele>
        <time>2014-05-17T12:49:54Z</time>
      </trkpt>
      <trkpt lat="56.340408" lon="13.668941">
        <ele>110</ele>
        <time>2014-05-17T12:49:55Z</time>
      </trkpt>
      <trkpt lat="56.340409" lon="13.669019">
        <ele>110</ele>
        <time>2014-05-17T12:49:56Z</time>
      </trkpt>
      <trkpt lat="56.340412" lon="13.6691">
        <ele>110</ele>
        <time>2014-05-17T12:49:57Z</time>
      </trkpt>
      <trkpt lat="56.340422" lon="13.669198">
        <ele>110</ele>
        <time>2014-05-17T12:49:58Z</time>
      </trkpt>
      <trkpt lat="56.340436" lon="13.669316">
        <ele>110.1</ele>
        <time>2014-05-17T12:49:59Z</time>
      </trkpt>
      <trkpt lat="56.340457" lon="13.669387">
        <ele>110.3</ele>
        <time>2014-05-17T12:50:00Z</time>
      </trkpt>
      <trkpt lat="56.34047" lon="13.66945">
        <ele>110.3</ele>
        <time>2014-05-17T12:50:01Z</time>
      </trkpt>
      <trkpt lat="56.34048" lon="13.669509">
        <ele>110.4</ele>
        <time>2014-05-17T12:50:02Z</time>
      </trkpt>
      <trkpt lat="56.3405" lon="13.66957">
        <ele>110.5</ele>
        <time>2014-05-17T12:50:03Z</time>
      </trkpt>
      <trkpt lat="56.34051" lon="13.66964">
        <ele>110.5</ele>
        <time>2014-05-17T12:50:04Z</time>
      </trkpt>
      <trkpt lat="56.340511" lon="13.669701">
        <ele>110.5</ele>
        <time>2014-05-17T12:50:05Z</time>
      </trkpt>
      <trkpt lat="56.340517" lon="13.669776">
        <ele>110.5</ele>
        <time>2014-05-17T12:50:06Z</time>
      </trkpt>
      <trkpt lat="56.340514" lon="13.669853">
        <ele>110.5</ele>
        <time>2014-05-17T12:50:07Z</time>
      </trkpt>
      <trkpt lat="56.340527" lon="13.669915">
        <ele>110.6</ele>
        <time>2014-05-17T12:50:08Z</time>
      </trkpt>
      <trkpt lat="56.340531" lon="13.669964">
        <ele>110.6</ele>
        <time>2014-05-17T12:50:09Z</time>
      </trkpt>
      <trkpt lat="56.340541" lon="13.670047">
        <ele>110.6</ele>
        <time>2014-05-17T12:50:11Z</time>
      </trkpt>
      <trkpt lat="56.340563" lon="13.670122">
        <ele>110.7</ele>
        <time>2014-05-17T12:50:13Z</time>
      </trkpt>
      <trkpt lat="56.340581" lon="13.670162">
        <ele>110.7</ele>
        <time>2014-05-17T12:50:14Z</time>
      </trkpt>
      <trkpt lat="56.340603" lon="13.670203">
        <ele>110.8</ele>
        <time>2014-05-17T12:50:15Z</time>
      </trkpt>
      <trkpt lat="56.340622" lon="13.670244">
        <ele>110.8</ele>
        <time>2014-05-17T12:50:16Z</time>
      </trkpt>
      <trkpt lat="56.340643" lon="13.670279">
        <ele>110.9</ele>
        <time>2014-05-17T12:50:17Z</time>
      </trkpt>
      <trkpt lat="56.340681" lon="13.670321">
        <ele>111</ele>
        <time>2014-05-17T12:50:19Z</time>
      </trkpt>
      <trkpt lat="56.340732" lon="13.670326">
        <ele>111.2</ele>
        <time>2014-05-17T12:50:21Z</time>
      </trkpt>
      <trkpt lat="56.340785" lon="13.670278">
        <ele>111.5</ele>
        <time>2014-05-17T12:50:23Z</time>
      </trkpt>
      <trkpt lat="56.340837" lon="13.670228">
        <ele>111.7</ele>
        <time>2014-05-17T12:50:25Z</time>
      </trkpt>
      <trkpt lat="56.340895" lon="13.670203">
        <ele>112</ele>
        <time>2014-05-17T12:50:27Z</time>
      </trkpt>
      <trkpt lat="56.340932" lon="13.670185">
        <ele>112.2</ele>
        <time>2014-05-17T12:50:28Z</time>
      </trkpt>
      <trkpt lat="56.340968" lon="13.670166">
        <ele>112.4</ele>
        <time>2014-05-17T12:50:29Z</time>
      </trkpt>
      <trkpt lat="56.341004" lon="13.670141">
        <ele>112.6</ele>
        <time>2014-05-17T12:50:30Z</time>
      </trkpt>
      <trkpt lat="56.341037" lon="13.670114">
        <ele>112.8</ele>
        <time>2014-05-17T12:50:31Z</time>
      </trkpt>
      <trkpt lat="56.341067" lon="13.670093">
        <ele>112.9</ele>
        <time>2014-05-17T12:50:32Z</time>
      </trkpt>
      <trkpt lat="56.341094" lon="13.670043">
        <ele>113.2</ele>
        <time>2014-05-17T12:50:33Z</time>
      </trkpt>
      <trkpt lat="56.341121" lon="13.670014">
        <ele>113.4</ele>
        <time>2014-05-17T12:50:34Z</time>
      </trkpt>
      <trkpt lat="56.341148" lon="13.669944">
        <ele>113.6</ele>
        <time>2014-05-17T12:50:35Z</time>
      </trkpt>
      <trkpt lat="56.34117" lon="13.669904">
        <ele>113.8</ele>
        <time>2014-05-17T12:50:36Z</time>
      </trkpt>
      <trkpt lat="56.34119" lon="13.669833">
        <ele>114.1</ele>
        <time>2014-05-17T12:50:37Z</time>
      </trkpt>
      <trkpt lat="56.341208" lon="13.669787">
        <ele>114.3</ele>
        <time>2014-05-17T12:50:38Z</time>
      </trkpt>
      <trkpt lat="56.341226" lon="13.669721">
        <ele>114.5</ele>
        <time>2014-05-17T12:50:39Z</time>
      </trkpt>
      <trkpt lat="56.341241" lon="13.669673">
        <ele>114.7</ele>
        <time>2014-05-17T12:50:40Z</time>
      </trkpt>
      <trkpt lat="56.341265" lon="13.66962">
        <ele>114.8</ele>
        <time>2014-05-17T12:50:41Z</time>
      </trkpt>
      <trkpt lat="56.341282" lon="13.669575">
        <ele>114.8</ele>
        <time>2014-05-17T12:50:42Z</time>
      </trkpt>
      <trkpt lat="56.341308" lon="13.669512">
        <ele>114.7</ele>
        <time>2014-05-17T12:50:44Z</time>
      </trkpt>
      <trkpt lat="56.341338" lon="13.669454">
        <ele>114.6</ele>
        <time>2014-05-17T12:50:46Z</time>
      </trkpt>
      <trkpt lat="56.341366" lon="13.669395">
        <ele>114.5</ele>
        <time>2014-05-17T12:50:48Z</time>
      </trkpt>
      <trkpt lat="56.341395" lon="13.669341">
        <ele>114.4</ele>
        <time>2014-05-17T12:50:50Z</time>
      </trkpt>
      <trkpt lat="56.341429" lon="13.669295">
        <ele>114.3</ele>
        <time>2014-05-17T12:50:52Z</time>
      </trkpt>
      <trkpt lat="56.341451" lon="13.669235">
        <ele>114.3</ele>
        <time>2014-05-17T12:50:54Z</time>
      </trkpt>
      <trkpt lat="56.341467" lon="13.669159">
        <ele>114.3</ele>
        <time>2014-05-17T12:50:56Z</time>
      </trkpt>
      <trkpt lat="56.341493" lon="13.669087">
        <ele>114.4</ele>
        <time>2014-05-17T12:50:58Z</time>
      </trkpt>
      <trkpt lat="56.341523" lon="13.66904">
        <ele>114.3</ele>
        <time>2014-05-17T12:51:00Z</time>
      </trkpt>
      <trkpt lat="56.341555" lon="13.668986">
        <ele>114.3</ele>
        <time>2014-05-17T12:51:02Z</time>
      </trkpt>
      <trkpt lat="56.341588" lon="13.668877">
        <ele>114.4</ele>
        <time>2014-05-17T12:51:04Z</time>
      </trkpt>
      <trkpt lat="56.341605" lon="13.668801">
        <ele>114.6</ele>
        <time>2014-05-17T12:51:05Z</time>
      </trkpt>
      <trkpt lat="56.341619" lon="13.668729">
        <ele>114.6</ele>
        <time>2014-05-17T12:51:06Z</time>
      </trkpt>
      <trkpt lat="56.34163" lon="13.668658">
        <ele>114.4</ele>
        <time>2014-05-17T12:51:07Z</time>
      </trkpt>
      <trkpt lat="56.341642" lon="13.668599">
        <ele>114.1</ele>
        <time>2014-05-17T12:51:08Z</time>
      </trkpt>
      <trkpt lat="56.341665" lon="13.66853">
        <ele>113.8</ele>
        <time>2014-05-17T12:51:10Z</time>
      </trkpt>
      <trkpt lat="56.341702" lon="13.66845">
        <ele>113.5</ele>
        <time>2014-05-17T12:51:12Z</time>
      </trkpt>
      <trkpt lat="56.341734" lon="13.668389">
        <ele>113.2</ele>
        <time>2014-05-17T12:51:13Z</time>
      </trkpt>
      <trkpt lat="56.341764" lon="13.668322">
        <ele>112.9</ele>
        <time>2014-05-17T12:51:14Z</time>
      </trkpt>
      <trkpt lat="56.341794" lon="13.668249">
        <ele>112.6</ele>
        <time>2014-05-17T12:51:15Z</time>
      </trkpt>
      <trkpt lat="56.341835" lon="13.668134">
        <ele>112.2</ele>
        <time>2014-05-17T12:51:16Z</time>
      </trkpt>
      <trkpt lat="56.341867" lon="13.66809">
        <ele>112</ele>
        <time>2014-05-17T12:51:17Z</time>
      </trkpt>
      <trkpt lat="56.341908" lon="13.668089">
        <ele>111.9</ele>
        <time>2014-05-17T12:51:18Z</time>
      </trkpt>
      <trkpt lat="56.341957" lon="13.668122">
        <ele>111.8</ele>
        <time>2014-05-17T12:51:19Z</time>
      </trkpt>
      <trkpt lat="56.341994" lon="13.668117">
        <ele>111.7</ele>
        <time>2014-05-17T12:51:20Z</time>
      </trkpt>
      <trkpt lat="56.342036" lon="13.668126">
        <ele>111.6</ele>
        <time>2014-05-17T12:51:21Z</time>
      </trkpt>
      <trkpt lat="56.342075" lon="13.668127">
        <ele>111.5</ele>
        <time>2014-05-17T12:51:22Z</time>
      </trkpt>
      <trkpt lat="56.342121" lon="13.668115">
        <ele>111.5</ele>
        <time>2014-05-17T12:51:23Z</time>
      </trkpt>
      <trkpt lat="56.342151" lon="13.668095">
        <ele>111.5</ele>
        <time>2014-05-17T12:51:24Z</time>
      </trkpt>
      <trkpt lat="56.342183" lon="13.668081">
        <ele>111.6</ele>
        <time>2014-05-17T12:51:25Z</time>
      </trkpt>
      <trkpt lat="56.342218" lon="13.668083">
        <ele>111.7</ele>
        <time>2014-05-17T12:51:26Z</time>
      </trkpt>
      <trkpt lat="56.342253" lon="13.668075">
        <ele>111.7</ele>
        <time>2014-05-17T12:51:27Z</time>
      </trkpt>
      <trkpt lat="56.342289" lon="13.668069">
        <ele>111.8</ele>
        <time>2014-05-17T12:51:28Z</time>
      </trkpt>
      <trkpt lat="56.342322" lon="13.668062">
        <ele>111.9</ele>
        <time>2014-05-17T12:51:29Z</time>
      </trkpt>
      <trkpt lat="56.342354" lon="13.668056">
        <ele>111.9</ele>
        <time>2014-05-17T12:51:30Z</time>
      </trkpt>
      <trkpt lat="56.342384" lon="13.668048">
        <ele>112</ele>
        <time>2014-05-17T12:51:31Z</time>
      </trkpt>
      <trkpt lat="56.342422" lon="13.668024">
        <ele>112.1</ele>
        <time>2014-05-17T12:51:33Z</time>
      </trkpt>
      <trkpt lat="56.342461" lon="13.667987">
        <ele>112.3</ele>
        <time>2014-05-17T12:51:35Z</time>
      </trkpt>
      <trkpt lat="56.342499" lon="13.667941">
        <ele>112.5</ele>
        <time>2014-05-17T12:51:37Z</time>
      </trkpt>
      <trkpt lat="56.342537" lon="13.66787">
        <ele>112.8</ele>
        <time>2014-05-17T12:51:39Z</time>
      </trkpt>
      <trkpt lat="56.342557" lon="13.667824">
        <ele>113</ele>
        <time>2014-05-17T12:51:40Z</time>
      </trkpt>
      <trkpt lat="56.342575" lon="13.667778">
        <ele>113.2</ele>
        <time>2014-05-17T12:51:41Z</time>
      </trkpt>
      <trkpt lat="56.342594" lon="13.66773">
        <ele>113.4</ele>
        <time>2014-05-17T12:51:42Z</time>
      </trkpt>
      <trkpt lat="56.342611" lon="13.667682">
        <ele>113.7</ele>
        <time>2014-05-17T12:51:43Z</time>
      </trkpt>
      <trkpt lat="56.342628" lon="13.667635">
        <ele>113.9</ele>
        <time>2014-05-17T12:51:44Z</time>
      </trkpt>
      <trkpt lat="56.342641" lon="13.667586">
        <ele>114.2</ele>
        <time>2014-05-17T12:51:45Z</time>
      </trkpt>
      <trkpt lat="56.342652" lon="13.667541">
        <ele>114.4</ele>
        <time>2014-05-17T12:51:46Z</time>
      </trkpt>
      <trkpt lat="56.342667" lon="13.667472">
        <ele>114.8</ele>
        <time>2014-05-17T12:51:48Z</time>
      </trkpt>
      <trkpt lat="56.342683" lon="13.667414">
        <ele>115.2</ele>
        <time>2014-05-17T12:51:50Z</time>
      </trkpt>
      <trkpt lat="56.342712" lon="13.667352">
        <ele>115.7</ele>
        <time>2014-05-17T12:51:52Z</time>
      </trkpt>
      <trkpt lat="56.342731" lon="13.667306">
        <ele>116</ele>
        <time>2014-05-17T12:51:53Z</time>
      </trkpt>
      <trkpt lat="56.342747" lon="13.667262">
        <ele>116.4</ele>
        <time>2014-05-17T12:51:54Z</time>
      </trkpt>
      <trkpt lat="56.342762" lon="13.667219">
        <ele>116.7</ele>
        <time>2014-05-17T12:51:55Z</time>
      </trkpt>
      <trkpt lat="56.342785" lon="13.667135">
        <ele>117.3</ele>
        <time>2014-05-17T12:51:57Z</time>
      </trkpt>
      <trkpt lat="56.342803" lon="13.667072">
        <ele>117.7</ele>
        <time>2014-05-17T12:51:59Z</time>
      </trkpt>
      <trkpt lat="56.342821" lon="13.667011">
        <ele>117.7</ele>
        <time>2014-05-17T12:52:01Z</time>
      </trkpt>
      <trkpt lat="56.342809" lon="13.666945">
        <ele>117.4</ele>
        <time>2014-05-17T12:52:03Z</time>
      </trkpt>
      <trkpt lat="56.34278" lon="13.666942">
        <ele>117.1</ele>
        <time>2014-05-17T12:52:05Z</time>
      </trkpt>
      <trkpt lat="56.342749" lon="13.666957">
        <ele>116.8</ele>
        <time>2014-05-17T12:52:07Z</time>
      </trkpt>
      <trkpt lat="56.34272" lon="13.666942">
        <ele>116.4</ele>
        <time>2014-05-17T12:52:09Z</time>
      </trkpt>
      <trkpt lat="56.342674" lon="13.666916">
        <ele>115.9</ele>
        <time>2014-05-17T12:52:11Z</time>
      </trkpt>
      <trkpt lat="56.342633" lon="13.666866">
        <ele>115.3</ele>
        <time>2014-05-17T12:52:13Z</time>
      </trkpt>
      <trkpt lat="56.342616" lon="13.666773">
        <ele>114.9</ele>
        <time>2014-05-17T12:52:15Z</time>
      </trkpt>
      <trkpt lat="56.34262" lon="13.666722">
        <ele>114.8</ele>
        <time>2014-05-17T12:52:16Z</time>
      </trkpt>
      <trkpt lat="56.34263" lon="13.666671">
        <ele>114.8</ele>
        <time>2014-05-17T12:52:17Z</time>
      </trkpt>
      <trkpt lat="56.342642" lon="13.666624">
        <ele>114.7</ele>
        <time>2014-05-17T12:52:18Z</time>
      </trkpt>
      <trkpt lat="56.342677" lon="13.666545">
        <ele>114.8</ele>
        <time>2014-05-17T12:52:20Z</time>
      </trkpt>
      <trkpt lat="56.342717" lon="13.666497">
        <ele>115.1</ele>
        <time>2014-05-17T12:52:22Z</time>
      </trkpt>
      <trkpt lat="56.342756" lon="13.666461">
        <ele>115.3</ele>
        <time>2014-05-17T12:52:24Z</time>
      </trkpt>
      <trkpt lat="56.342786" lon="13.666402">
        <ele>115.4</ele>
        <time>2014-05-17T12:52:26Z</time>
      </trkpt>
      <trkpt lat="56.342817" lon="13.666349">
        <ele>115.5</ele>
        <time>2014-05-17T12:52:28Z</time>
      </trkpt>
      <trkpt lat="56.342852" lon="13.666312">
        <ele>115.7</ele>
        <time>2014-05-17T12:52:30Z</time>
      </trkpt>
      <trkpt lat="56.342886" lon="13.66628">
        <ele>115.8</ele>
        <time>2014-05-17T12:52:32Z</time>
      </trkpt>
      <trkpt lat="56.342926" lon="13.666264">
        <ele>116</ele>
        <time>2014-05-17T12:52:34Z</time>
      </trkpt>
      <trkpt lat="56.342968" lon="13.666256">
        <ele>115.7</ele>
        <time>2014-05-17T12:52:36Z</time>
      </trkpt>
      <trkpt lat="56.343011" lon="13.666233">
        <ele>115.4</ele>
        <time>2014-05-17T12:52:38Z</time>
      </trkpt>
      <trkpt lat="56.343051" lon="13.666203">
        <ele>115.1</ele>
        <time>2014-05-17T12:52:40Z</time>
      </trkpt>
      <trkpt lat="56.343089" lon="13.66617">
        <ele>114.7</ele>
        <time>2014-05-17T12:52:42Z</time>
      </trkpt>
      <trkpt lat="56.343126" lon="13.666121">
        <ele>114.4</ele>
        <time>2014-05-17T12:52:44Z</time>
      </trkpt>
      <trkpt lat="56.343162" lon="13.666051">
        <ele>114</ele>
        <time>2014-05-17T12:52:46Z</time>
      </trkpt>
      <trkpt lat="56.343174" lon="13.666003">
        <ele>113.8</ele>
        <time>2014-05-17T12:52:47Z</time>
      </trkpt>
      <trkpt lat="56.343183" lon="13.665951">
        <ele>113.7</ele>
        <time>2014-05-17T12:52:48Z</time>
      </trkpt>
      <trkpt lat="56.34319" lon="13.665897">
        <ele>113.5</ele>
        <time>2014-05-17T12:52:49Z</time>
      </trkpt>
      <trkpt lat="56.343195" lon="13.665847">
        <ele>113.4</ele>
        <time>2014-05-17T12:52:50Z</time>
      </trkpt>
      <trkpt lat="56.343203" lon="13.665787">
        <ele>113.2</ele>
        <time>2014-05-17T12:52:52Z</time>
      </trkpt>
      <trkpt lat="56.343215" lon="13.665844">
        <ele>113.3</ele>
        <time>2014-05-17T12:53:00Z</time>
      </trkpt>
      <trkpt lat="56.342028" lon="13.666087">
        <ele>108.7</ele>
        <time>2014-05-17T14:32:45Z</time>
      </trkpt>
      <trkpt lat="56.341957" lon="13.666004">
        <ele>108.5</ele>
        <time>2014-05-17T14:32:46Z</time>
      </trkpt>
      <trkpt lat="56.341968" lon="13.666067">
        <ele>108.6</ele>
        <time>2014-05-17T14:32:47Z</time>
      </trkpt>
      <trkpt lat="56.342029" lon="13.665989">
        <ele>108.6</ele>
        <time>2014-05-17T14:32:48Z</time>
      </trkpt>
      <trkpt lat="56.342035" lon="13.665923">
        <ele>108.5</ele>
        <time>2014-05-17T14:32:49Z</time>
      </trkpt>
      <trkpt lat="56.342038" lon="13.665859">
        <ele>108.5</ele>
        <time>2014-05-17T14:32:50Z</time>
      </trkpt>
      <trkpt lat="56.342026" lon="13.665796">
        <ele>108.3</ele>
        <time>2014-05-17T14:32:51Z</time>
      </trkpt>
      <trkpt lat="56.342038" lon="13.665732">
        <ele>108.3</ele>
        <time>2014-05-17T14:32:52Z</time>
      </trkpt>
      <trkpt lat="56.342044" lon="13.665679">
        <ele>108.2</ele>
        <time>2014-05-17T14:32:53Z</time>
      </trkpt>
      <trkpt lat="56.342048" lon="13.665621">
        <ele>108.2</ele>
        <time>2014-05-17T14:32:54Z</time>
      </trkpt>
      <trkpt lat="56.34206" lon="13.665523">
        <ele>108.1</ele>
        <time>2014-05-17T14:32:56Z</time>
      </trkpt>
      <trkpt lat="56.342063" lon="13.665466">
        <ele>108</ele>
        <time>2014-05-17T14:32:57Z</time>
      </trkpt>
      <trkpt lat="56.342066" lon="13.665406">
        <ele>107.9</ele>
        <time>2014-05-17T14:32:58Z</time>
      </trkpt>
      <trkpt lat="56.34207" lon="13.665344">
        <ele>107.8</ele>
        <time>2014-05-17T14:32:59Z</time>
      </trkpt>
      <trkpt lat="56.342073" lon="13.665275">
        <ele>107.6</ele>
        <time>2014-05-17T14:33:00Z</time>
      </trkpt>
      <trkpt lat="56.342076" lon="13.665205">
        <ele>107.5</ele>
        <time>2014-05-17T14:33:01Z</time>
      </trkpt>
      <trkpt lat="56.342078" lon="13.665133">
        <ele>107.3</ele>
        <time>2014-05-17T14:33:02Z</time>
      </trkpt>
      <trkpt lat="56.34208" lon="13.665061">
        <ele>107.1</ele>
        <time>2014-05-17T14:33:03Z</time>
      </trkpt>
      <trkpt lat="56.342083" lon="13.66499">
        <ele>107</ele>
        <time>2014-05-17T14:33:04Z</time>
      </trkpt>
      <trkpt lat="56.342088" lon="13.664921">
        <ele>106.8</ele>
        <time>2014-05-17T14:33:05Z</time>
      </trkpt>
      <trkpt lat="56.342092" lon="13.664854">
        <ele>106.7</ele>
        <time>2014-05-17T14:33:06Z</time>
      </trkpt>
      <trkpt lat="56.342098" lon="13.664787">
        <ele>106.5</ele>
        <time>2014-05-17T14:33:07Z</time>
      </trkpt>
      <trkpt lat="56.342103" lon="13.664721">
        <ele>106.4</ele>
        <time>2014-05-17T14:33:08Z</time>
      </trkpt>
      <trkpt lat="56.342108" lon="13.664655">
        <ele>106.2</ele>
        <time>2014-05-17T14:33:09Z</time>
      </trkpt>
      <trkpt lat="56.342114" lon="13.664586">
        <ele>106.1</ele>
        <time>2014-05-17T14:33:10Z</time>
      </trkpt>
      <trkpt lat="56.34212" lon="13.664513">
        <ele>106</ele>
        <time>2014-05-17T14:33:11Z</time>
      </trkpt>
      <trkpt lat="56.342132" lon="13.664416">
        <ele>105.9</ele>
        <time>2014-05-17T14:33:12Z</time>
      </trkpt>
      <trkpt lat="56.342145" lon="13.664358">
        <ele>105.8</ele>
        <time>2014-05-17T14:33:13Z</time>
      </trkpt>
      <trkpt lat="56.342154" lon="13.664301">
        <ele>105.7</ele>
        <time>2014-05-17T14:33:15Z</time>
      </trkpt>
      <trkpt lat="56.342183" lon="13.664234">
        <ele>105.7</ele>
        <time>2014-05-17T14:33:19Z</time>
      </trkpt>
      <trkpt lat="56.342208" lon="13.664212">
        <ele>105.7</ele>
        <time>2014-05-17T14:33:20Z</time>
      </trkpt>
      <trkpt lat="56.342243" lon="13.6642">
        <ele>105.7</ele>
        <time>2014-05-17T14:33:21Z</time>
      </trkpt>
      <trkpt lat="56.342279" lon="13.664183">
        <ele>105.7</ele>
        <time>2014-05-17T14:33:22Z</time>
      </trkpt>
      <trkpt lat="56.342317" lon="13.664169">
        <ele>105.6</ele>
        <time>2014-05-17T14:33:23Z</time>
      </trkpt>
      <trkpt lat="56.342356" lon="13.664154">
        <ele>105.6</ele>
        <time>2014-05-17T14:33:24Z</time>
      </trkpt>
      <trkpt lat="56.342411" lon="13.664133">
        <ele>105.6</ele>
        <time>2014-05-17T14:33:25Z</time>
      </trkpt>
      <trkpt lat="56.342461" lon="13.664125">
        <ele>105.6</ele>
        <time>2014-05-17T14:33:26Z</time>
      </trkpt>
      <trkpt lat="56.342512" lon="13.664092">
        <ele>105.5</ele>
        <time>2014-05-17T14:33:27Z</time>
      </trkpt>
      <trkpt lat="56.342566" lon="13.664084">
        <ele>105.5</ele>
        <time>2014-05-17T14:33:28Z</time>
      </trkpt>
      <trkpt lat="56.342612" lon="13.66409">
        <ele>105.6</ele>
        <time>2014-05-17T14:33:29Z</time>
      </trkpt>
      <trkpt lat="56.342662" lon="13.664064">
        <ele>105.5</ele>
        <time>2014-05-17T14:33:30Z</time>
      </trkpt>
      <trkpt lat="56.342711" lon="13.664046">
        <ele>105.4</ele>
        <time>2014-05-17T14:33:31Z</time>
      </trkpt>
      <trkpt lat="56.342764" lon="13.664015">
        <ele>105.3</ele>
        <time>2014-05-17T14:33:32Z</time>
      </trkpt>
      <trkpt lat="56.342813" lon="13.66397">
        <ele>105.1</ele>
        <time>2014-05-17T14:33:33Z</time>
      </trkpt>
      <trkpt lat="56.342863" lon="13.663933">
        <ele>104.9</ele>
        <time>2014-05-17T14:33:34Z</time>
      </trkpt>
      <trkpt lat="56.342914" lon="13.663895">
        <ele>104.7</ele>
        <time>2014-05-17T14:33:35Z</time>
      </trkpt>
      <trkpt lat="56.342958" lon="13.663845">
        <ele>104.4</ele>
        <time>2014-05-17T14:33:36Z</time>
      </trkpt>
      <trkpt lat="56.343006" lon="13.663786">
        <ele>104.1</ele>
        <time>2014-05-17T14:33:37Z</time>
      </trkpt>
      <trkpt lat="56.343044" lon="13.663718">
        <ele>103.9</ele>
        <time>2014-05-17T14:33:38Z</time>
      </trkpt>
      <trkpt lat="56.343082" lon="13.663644">
        <ele>103.8</ele>
        <time>2014-05-17T14:33:39Z</time>
      </trkpt>
      <trkpt lat="56.343115" lon="13.663559">
        <ele>103.8</ele>
        <time>2014-05-17T14:33:40Z</time>
      </trkpt>
      <trkpt lat="56.343144" lon="13.663482">
        <ele>103.8</ele>
        <time>2014-05-17T14:33:41Z</time>
      </trkpt>
      <trkpt lat="56.343167" lon="13.663395">
        <ele>103.8</ele>
        <time>2014-05-17T14:33:42Z</time>
      </trkpt>
      <trkpt lat="56.34319" lon="13.663298">
        <ele>103.8</ele>
        <time>2014-05-17T14:33:43Z</time>
      </trkpt>
      <trkpt lat="56.343211" lon="13.663219">
        <ele>103.9</ele>
        <time>2014-05-17T14:33:44Z</time>
      </trkpt>
      <trkpt lat="56.343233" lon="13.66316">
        <ele>103.9</ele>
        <time>2014-05-17T14:33:45Z</time>
      </trkpt>
      <trkpt lat="56.343246" lon="13.663108">
        <ele>103.9</ele>
        <time>2014-05-17T14:33:46Z</time>
      </trkpt>
      <trkpt lat="56.343259" lon="13.663053">
        <ele>103.9</ele>
        <time>2014-05-17T14:33:47Z</time>
      </trkpt>
      <trkpt lat="56.343272" lon="13.663">
        <ele>104</ele>
        <time>2014-05-17T14:33:48Z</time>
      </trkpt>
      <trkpt lat="56.343291" lon="13.662951">
        <ele>104</ele>
        <time>2014-05-17T14:33:49Z</time>
      </trkpt>
      <trkpt lat="56.343304" lon="13.662887">
        <ele>104</ele>
        <time>2014-05-17T14:33:50Z</time>
      </trkpt>
      <trkpt lat="56.343304" lon="13.662833">
        <ele>104</ele>
        <time>2014-05-17T14:33:51Z</time>
      </trkpt>
      <trkpt lat="56.343292" lon="13.66277">
        <ele>104.1</ele>
        <time>2014-05-17T14:33:52Z</time>
      </trkpt>
      <trkpt lat="56.343276" lon="13.66272">
        <ele>104.1</ele>
        <time>2014-05-17T14:33:53Z</time>
      </trkpt>
      <trkpt lat="56.343261" lon="13.66267">
        <ele>104.1</ele>
        <time>2014-05-17T14:33:54Z</time>
      </trkpt>
      <trkpt lat="56.343247" lon="13.662606">
        <ele>104.1</ele>
        <time>2014-05-17T14:33:55Z</time>
      </trkpt>
      <trkpt lat="56.343239" lon="13.662539">
        <ele>104.2</ele>
        <time>2014-05-17T14:33:56Z</time>
      </trkpt>
      <trkpt lat="56.343231" lon="13.662472">
        <ele>104.2</ele>
        <time>2014-05-17T14:33:57Z</time>
      </trkpt>
      <trkpt lat="56.343226" lon="13.662405">
        <ele>104.2</ele>
        <time>2014-05-17T14:33:58Z</time>
      </trkpt>
      <trkpt lat="56.343222" lon="13.662337">
        <ele>104.3</ele>
        <time>2014-05-17T14:33:59Z</time>
      </trkpt>
      <trkpt lat="56.34322" lon="13.66227">
        <ele>104.3</ele>
        <time>2014-05-17T14:34:00Z</time>
      </trkpt>
      <trkpt lat="56.343216" lon="13.662205">
        <ele>104.3</ele>
        <time>2014-05-17T14:34:01Z</time>
      </trkpt>
      <trkpt lat="56.343211" lon="13.662142">
        <ele>104.3</ele>
        <time>2014-05-17T14:34:02Z</time>
      </trkpt>
      <trkpt lat="56.343205" lon="13.66208">
        <ele>104.4</ele>
        <time>2014-05-17T14:34:03Z</time>
      </trkpt>
      <trkpt lat="56.343198" lon="13.662019">
        <ele>104.4</ele>
        <time>2014-05-17T14:34:04Z</time>
      </trkpt>
      <trkpt lat="56.343193" lon="13.66196">
        <ele>104.5</ele>
        <time>2014-05-17T14:34:05Z</time>
      </trkpt>
      <trkpt lat="56.343191" lon="13.661909">
        <ele>104.6</ele>
        <time>2014-05-17T14:34:06Z</time>
      </trkpt>
      <trkpt lat="56.343189" lon="13.661857">
        <ele>104.7</ele>
        <time>2014-05-17T14:34:07Z</time>
      </trkpt>
      <trkpt lat="56.343187" lon="13.661801">
        <ele>104.8</ele>
        <time>2014-05-17T14:34:08Z</time>
      </trkpt>
      <trkpt lat="56.343182" lon="13.661744">
        <ele>104.9</ele>
        <time>2014-05-17T14:34:09Z</time>
      </trkpt>
      <trkpt lat="56.343176" lon="13.661683">
        <ele>104.9</ele>
        <time>2014-05-17T14:34:10Z</time>
      </trkpt>
      <trkpt lat="56.343168" lon="13.661611">
        <ele>105</ele>
        <time>2014-05-17T14:34:11Z</time>
      </trkpt>
      <trkpt lat="56.343161" lon="13.661537">
        <ele>105.1</ele>
        <time>2014-05-17T14:34:12Z</time>
      </trkpt>
      <trkpt lat="56.343156" lon="13.66146">
        <ele>105.3</ele>
        <time>2014-05-17T14:34:13Z</time>
      </trkpt>
      <trkpt lat="56.343151" lon="13.661381">
        <ele>105.4</ele>
        <time>2014-05-17T14:34:14Z</time>
      </trkpt>
      <trkpt lat="56.343141" lon="13.661282">
        <ele>105.5</ele>
        <time>2014-05-17T14:34:15Z</time>
      </trkpt>
      <trkpt lat="56.343137" lon="13.661194">
        <ele>105.6</ele>
        <time>2014-05-17T14:34:16Z</time>
      </trkpt>
      <trkpt lat="56.343131" lon="13.661105">
        <ele>105.7</ele>
        <time>2014-05-17T14:34:17Z</time>
      </trkpt>
      <trkpt lat="56.343125" lon="13.661024">
        <ele>105.8</ele>
        <time>2014-05-17T14:34:18Z</time>
      </trkpt>
      <trkpt lat="56.343125" lon="13.660945">
        <ele>106</ele>
        <time>2014-05-17T14:34:19Z</time>
      </trkpt>
      <trkpt lat="56.343122" lon="13.660863">
        <ele>106.1</ele>
        <time>2014-05-17T14:34:20Z</time>
      </trkpt>
      <trkpt lat="56.343116" lon="13.660775">
        <ele>106.2</ele>
        <time>2014-05-17T14:34:21Z</time>
      </trkpt>
      <trkpt lat="56.343109" lon="13.660702">
        <ele>106.3</ele>
        <time>2014-05-17T14:34:22Z</time>
      </trkpt>
      <trkpt lat="56.343106" lon="13.660613">
        <ele>106.4</ele>
        <time>2014-05-17T14:34:23Z</time>
      </trkpt>
      <trkpt lat="56.343099" lon="13.660544">
        <ele>106.5</ele>
        <time>2014-05-17T14:34:24Z</time>
      </trkpt>
      <trkpt lat="56.343095" lon="13.660469">
        <ele>106.6</ele>
        <time>2014-05-17T14:34:25Z</time>
      </trkpt>
      <trkpt lat="56.343094" lon="13.6604">
        <ele>106.7</ele>
        <time>2014-05-17T14:34:26Z</time>
      </trkpt>
      <trkpt lat="56.343083" lon="13.660322">
        <ele>106.8</ele>
        <time>2014-05-17T14:34:27Z</time>
      </trkpt>
      <trkpt lat="56.343075" lon="13.660252">
        <ele>106.9</ele>
        <time>2014-05-17T14:34:28Z</time>
      </trkpt>
      <trkpt lat="56.343072" lon="13.660183">
        <ele>107.1</ele>
        <time>2014-05-17T14:34:29Z</time>
      </trkpt>
      <trkpt lat="56.343074" lon="13.660124">
        <ele>107.2</ele>
        <time>2014-05-17T14:34:30Z</time>
      </trkpt>
      <trkpt lat="56.343069" lon="13.660063">
        <ele>107.3</ele>
        <time>2014-05-17T14:34:31Z</time>
      </trkpt>
      <trkpt lat="56.343064" lon="13.65999">
        <ele>107.5</ele>
        <time>2014-05-17T14:34:32Z</time>
      </trkpt>
      <trkpt lat="56.343061" lon="13.659923">
        <ele>107.6</ele>
        <time>2014-05-17T14:34:33Z</time>
      </trkpt>
      <trkpt lat="56.343059" lon="13.65986">
        <ele>107.7</ele>
        <time>2014-05-17T14:34:34Z</time>
      </trkpt>
      <trkpt lat="56.343054" lon="13.659797">
        <ele>107.9</ele>
        <time>2014-05-17T14:34:35Z</time>
      </trkpt>
      <trkpt lat="56.34305" lon="13.659734">
        <ele>108</ele>
        <time>2014-05-17T14:34:36Z</time>
      </trkpt>
      <trkpt lat="56.343047" lon="13.659669">
        <ele>108.1</ele>
        <time>2014-05-17T14:34:37Z</time>
      </trkpt>
      <trkpt lat="56.343042" lon="13.659608">
        <ele>108.2</ele>
        <time>2014-05-17T14:34:38Z</time>
      </trkpt>
      <trkpt lat="56.343037" lon="13.659547">
        <ele>108.4</ele>
        <time>2014-05-17T14:34:39Z</time>
      </trkpt>
      <trkpt lat="56.343033" lon="13.659486">
        <ele>108.5</ele>
        <time>2014-05-17T14:34:40Z</time>
      </trkpt>
      <trkpt lat="56.343031" lon="13.659427">
        <ele>108.6</ele>
        <time>2014-05-17T14:34:41Z</time>
      </trkpt>
      <trkpt lat="56.343031" lon="13.659369">
        <ele>108.8</ele>
        <time>2014-05-17T14:34:42Z</time>
      </trkpt>
      <trkpt lat="56.343035" lon="13.659318">
        <ele>108.9</ele>
        <time>2014-05-17T14:34:43Z</time>
      </trkpt>
      <trkpt lat="56.343034" lon="13.659268">
        <ele>109</ele>
        <time>2014-05-17T14:34:44Z</time>
      </trkpt>
      <trkpt lat="56.343034" lon="13.659217">
        <ele>109.1</ele>
        <time>2014-05-17T14:34:45Z</time>
      </trkpt>
      <trkpt lat="56.343035" lon="13.659166">
        <ele>109.2</ele>
        <time>2014-05-17T14:34:46Z</time>
      </trkpt>
      <trkpt lat="56.343043" lon="13.659116">
        <ele>109.3</ele>
        <time>2014-05-17T14:34:47Z</time>
      </trkpt>
      <trkpt lat="56.343052" lon="13.659067">
        <ele>109.5</ele>
        <time>2014-05-17T14:34:48Z</time>
      </trkpt>
      <trkpt lat="56.343057" lon="13.659015">
        <ele>109.6</ele>
        <time>2014-05-17T14:34:49Z</time>
      </trkpt>
      <trkpt lat="56.343054" lon="13.658959">
        <ele>109.7</ele>
        <time>2014-05-17T14:34:50Z</time>
      </trkpt>
      <trkpt lat="56.343047" lon="13.658901">
        <ele>109.8</ele>
        <time>2014-05-17T14:34:51Z</time>
      </trkpt>
      <trkpt lat="56.34304" lon="13.658833">
        <ele>110</ele>
        <time>2014-05-17T14:34:52Z</time>
      </trkpt>
      <trkpt lat="56.343034" lon="13.658764">
        <ele>110.1</ele>
        <time>2014-05-17T14:34:53Z</time>
      </trkpt>
      <trkpt lat="56.343027" lon="13.658693">
        <ele>110.1</ele>
        <time>2014-05-17T14:34:54Z</time>
      </trkpt>
      <trkpt lat="56.34302" lon="13.658619">
        <ele>110</ele>
        <time>2014-05-17T14:34:55Z</time>
      </trkpt>
      <trkpt lat="56.343012" lon="13.658537">
        <ele>109.9</ele>
        <time>2014-05-17T14:34:56Z</time>
      </trkpt>
      <trkpt lat="56.343005" lon="13.658455">
        <ele>109.8</ele>
        <time>2014-05-17T14:34:57Z</time>
      </trkpt>
      <trkpt lat="56.342999" lon="13.658372">
        <ele>109.6</ele>
        <time>2014-05-17T14:34:58Z</time>
      </trkpt>
      <trkpt lat="56.342988" lon="13.658269">
        <ele>109.5</ele>
        <time>2014-05-17T14:34:59Z</time>
      </trkpt>
      <trkpt lat="56.342985" lon="13.658184">
        <ele>109.4</ele>
        <time>2014-05-17T14:35:00Z</time>
      </trkpt>
      <trkpt lat="56.342983" lon="13.658087">
        <ele>109.3</ele>
        <time>2014-05-17T14:35:01Z</time>
      </trkpt>
      <trkpt lat="56.342982" lon="13.657988">
        <ele>109.2</ele>
        <time>2014-05-17T14:35:02Z</time>
      </trkpt>
      <trkpt lat="56.342974" lon="13.65789">
        <ele>109</ele>
        <time>2014-05-17T14:35:03Z</time>
      </trkpt>
      <trkpt lat="56.342968" lon="13.657793">
        <ele>108.9</ele>
        <time>2014-05-17T14:35:04Z</time>
      </trkpt>
      <trkpt lat="56.342963" lon="13.657678">
        <ele>108.8</ele>
        <time>2014-05-17T14:35:05Z</time>
      </trkpt>
      <trkpt lat="56.342965" lon="13.657574">
        <ele>108.6</ele>
        <time>2014-05-17T14:35:06Z</time>
      </trkpt>
      <trkpt lat="56.34298" lon="13.657472">
        <ele>108.5</ele>
        <time>2014-05-17T14:35:07Z</time>
      </trkpt>
      <trkpt lat="56.343003" lon="13.657378">
        <ele>108.5</ele>
        <time>2014-05-17T14:35:08Z</time>
      </trkpt>
      <trkpt lat="56.34304" lon="13.657291">
        <ele>108.4</ele>
        <time>2014-05-17T14:35:09Z</time>
      </trkpt>
      <trkpt lat="56.343076" lon="13.657204">
        <ele>108.3</ele>
        <time>2014-05-17T14:35:10Z</time>
      </trkpt>
      <trkpt lat="56.343114" lon="13.65713">
        <ele>108.3</ele>
        <time>2014-05-17T14:35:11Z</time>
      </trkpt>
      <trkpt lat="56.343145" lon="13.657043">
        <ele>108.3</ele>
        <time>2014-05-17T14:35:12Z</time>
      </trkpt>
      <trkpt lat="56.343173" lon="13.656958">
        <ele>108.2</ele>
        <time>2014-05-17T14:35:13Z</time>
      </trkpt>
      <trkpt lat="56.343204" lon="13.656878">
        <ele>108.3</ele>
        <time>2014-05-17T14:35:14Z</time>
      </trkpt>
      <trkpt lat="56.343228" lon="13.656792">
        <ele>108.3</ele>
        <time>2014-05-17T14:35:15Z</time>
      </trkpt>
      <trkpt lat="56.343252" lon="13.656715">
        <ele>108.3</ele>
        <time>2014-05-17T14:35:16Z</time>
      </trkpt>
      <trkpt lat="56.343272" lon="13.656643">
        <ele>108.3</ele>
        <time>2014-05-17T14:35:17Z</time>
      </trkpt>
      <trkpt lat="56.343294" lon="13.656579">
        <ele>108.4</ele>
        <time>2014-05-17T14:35:18Z</time>
      </trkpt>
      <trkpt lat="56.343314" lon="13.656496">
        <ele>108.4</ele>
        <time>2014-05-17T14:35:19Z</time>
      </trkpt>
      <trkpt lat="56.34333" lon="13.656428">
        <ele>108.5</ele>
        <time>2014-05-17T14:35:20Z</time>
      </trkpt>
      <trkpt lat="56.343352" lon="13.656374">
        <ele>108.6</ele>
        <time>2014-05-17T14:35:21Z</time>
      </trkpt>
      <trkpt lat="56.34338" lon="13.656324">
        <ele>108.7</ele>
        <time>2014-05-17T14:35:22Z</time>
      </trkpt>
      <trkpt lat="56.343413" lon="13.656267">
        <ele>108.8</ele>
        <time>2014-05-17T14:35:23Z</time>
      </trkpt>
      <trkpt lat="56.343448" lon="13.65623">
        <ele>108.9</ele>
        <time>2014-05-17T14:35:24Z</time>
      </trkpt>
      <trkpt lat="56.343476" lon="13.656181">
        <ele>109</ele>
        <time>2014-05-17T14:35:25Z</time>
      </trkpt>
      <trkpt lat="56.343518" lon="13.656126">
        <ele>109.2</ele>
        <time>2014-05-17T14:35:26Z</time>
      </trkpt>
      <trkpt lat="56.343554" lon="13.656073">
        <ele>109.3</ele>
        <time>2014-05-17T14:35:27Z</time>
      </trkpt>
      <trkpt lat="56.343595" lon="13.656014">
        <ele>109.4</ele>
        <time>2014-05-17T14:35:28Z</time>
      </trkpt>
      <trkpt lat="56.343646" lon="13.655946">
        <ele>109.6</ele>
        <time>2014-05-17T14:35:29Z</time>
      </trkpt>
      <trkpt lat="56.343689" lon="13.655874">
        <ele>109.8</ele>
        <time>2014-05-17T14:35:30Z</time>
      </trkpt>
      <trkpt lat="56.343736" lon="13.655814">
        <ele>109.9</ele>
        <time>2014-05-17T14:35:31Z</time>
      </trkpt>
      <trkpt lat="56.343788" lon="13.655737">
        <ele>109.9</ele>
        <time>2014-05-17T14:35:32Z</time>
      </trkpt>
      <trkpt lat="56.343839" lon="13.65567">
        <ele>109.8</ele>
        <time>2014-05-17T14:35:33Z</time>
      </trkpt>
      <trkpt lat="56.343889" lon="13.655611">
        <ele>109.7</ele>
        <time>2014-05-17T14:35:34Z</time>
      </trkpt>
      <trkpt lat="56.343938" lon="13.655539">
        <ele>109.6</ele>
        <time>2014-05-17T14:35:35Z</time>
      </trkpt>
      <trkpt lat="56.343982" lon="13.655461">
        <ele>109.5</ele>
        <time>2014-05-17T14:35:36Z</time>
      </trkpt>
      <trkpt lat="56.344028" lon="13.655405">
        <ele>109.3</ele>
        <time>2014-05-17T14:35:37Z</time>
      </trkpt>
      <trkpt lat="56.344069" lon="13.655328">
        <ele>109.3</ele>
        <time>2014-05-17T14:35:38Z</time>
      </trkpt>
      <trkpt lat="56.344111" lon="13.65525">
        <ele>109.3</ele>
        <time>2014-05-17T14:35:39Z</time>
      </trkpt>
      <trkpt lat="56.344157" lon="13.655175">
        <ele>109.3</ele>
        <time>2014-05-17T14:35:40Z</time>
      </trkpt>
      <trkpt lat="56.344198" lon="13.655097">
        <ele>109.3</ele>
        <time>2014-05-17T14:35:41Z</time>
      </trkpt>
      <trkpt lat="56.344237" lon="13.655027">
        <ele>109.3</ele>
        <time>2014-05-17T14:35:42Z</time>
      </trkpt>
      <trkpt lat="56.344273" lon="13.65495">
        <ele>109.3</ele>
        <time>2014-05-17T14:35:43Z</time>
      </trkpt>
      <trkpt lat="56.344301" lon="13.654859">
        <ele>109.3</ele>
        <time>2014-05-17T14:35:44Z</time>
      </trkpt>
      <trkpt lat="56.344316" lon="13.654761">
        <ele>109.4</ele>
        <time>2014-05-17T14:35:45Z</time>
      </trkpt>
      <trkpt lat="56.344325" lon="13.654669">
        <ele>109.5</ele>
        <time>2014-05-17T14:35:46Z</time>
      </trkpt>
      <trkpt lat="56.344321" lon="13.654562">
        <ele>109.6</ele>
        <time>2014-05-17T14:35:47Z</time>
      </trkpt>
      <trkpt lat="56.344312" lon="13.654449">
        <ele>109.8</ele>
        <time>2014-05-17T14:35:48Z</time>
      </trkpt>
      <trkpt lat="56.344285" lon="13.654338">
        <ele>109.9</ele>
        <time>2014-05-17T14:35:49Z</time>
      </trkpt>
      <trkpt lat="56.344248" lon="13.654242">
        <ele>110</ele>
        <time>2014-05-17T14:35:50Z</time>
      </trkpt>
      <trkpt lat="56.344231" lon="13.654168">
        <ele>110.1</ele>
        <time>2014-05-17T14:35:51Z</time>
      </trkpt>
      <trkpt lat="56.344198" lon="13.654075">
        <ele>110.3</ele>
        <time>2014-05-17T14:35:52Z</time>
      </trkpt>
      <trkpt lat="56.344175" lon="13.65398">
        <ele>110.3</ele>
        <time>2014-05-17T14:35:53Z</time>
      </trkpt>
      <trkpt lat="56.344151" lon="13.653905">
        <ele>110.4</ele>
        <time>2014-05-17T14:35:54Z</time>
      </trkpt>
      <trkpt lat="56.344121" lon="13.65381">
        <ele>110.5</ele>
        <time>2014-05-17T14:35:55Z</time>
      </trkpt>
      <trkpt lat="56.344085" lon="13.653718">
        <ele>110.6</ele>
        <time>2014-05-17T14:35:56Z</time>
      </trkpt>
      <trkpt lat="56.344069" lon="13.653626">
        <ele>110.7</ele>
        <time>2014-05-17T14:35:57Z</time>
      </trkpt>
      <trkpt lat="56.344057" lon="13.653523">
        <ele>110.8</ele>
        <time>2014-05-17T14:35:58Z</time>
      </trkpt>
      <trkpt lat="56.344094" lon="13.653441">
        <ele>110.8</ele>
        <time>2014-05-17T14:35:59Z</time>
      </trkpt>
      <trkpt lat="56.344088" lon="13.653354">
        <ele>110.9</ele>
        <time>2014-05-17T14:36:00Z</time>
      </trkpt>
      <trkpt lat="56.344117" lon="13.653258">
        <ele>110.9</ele>
        <time>2014-05-17T14:36:01Z</time>
      </trkpt>
      <trkpt lat="56.344124" lon="13.653151">
        <ele>110.9</ele>
        <time>2014-05-17T14:36:02Z</time>
      </trkpt>
      <trkpt lat="56.344117" lon="13.653076">
        <ele>111</ele>
        <time>2014-05-17T14:36:03Z</time>
      </trkpt>
      <trkpt lat="56.344136" lon="13.652994">
        <ele>111</ele>
        <time>2014-05-17T14:36:04Z</time>
      </trkpt>
      <trkpt lat="56.34415" lon="13.652913">
        <ele>111</ele>
        <time>2014-05-17T14:36:05Z</time>
      </trkpt>
      <trkpt lat="56.344174" lon="13.652817">
        <ele>111</ele>
        <time>2014-05-17T14:36:06Z</time>
      </trkpt>
      <trkpt lat="56.344191" lon="13.652738">
        <ele>111</ele>
        <time>2014-05-17T14:36:07Z</time>
      </trkpt>
      <trkpt lat="56.34422" lon="13.652659">
        <ele>111</ele>
        <time>2014-05-17T14:36:08Z</time>
      </trkpt>
      <trkpt lat="56.344233" lon="13.652561">
        <ele>111</ele>
        <time>2014-05-17T14:36:09Z</time>
      </trkpt>
      <trkpt lat="56.344247" lon="13.652471">
        <ele>111</ele>
        <time>2014-05-17T14:36:10Z</time>
      </trkpt>
      <trkpt lat="56.34427" lon="13.652361">
        <ele>111</ele>
        <time>2014-05-17T14:36:11Z</time>
      </trkpt>
      <trkpt lat="56.344288" lon="13.652268">
        <ele>111</ele>
        <time>2014-05-17T14:36:12Z</time>
      </trkpt>
      <trkpt lat="56.344317" lon="13.652175">
        <ele>110.9</ele>
        <time>2014-05-17T14:36:13Z</time>
      </trkpt>
      <trkpt lat="56.344325" lon="13.65209">
        <ele>110.9</ele>
        <time>2014-05-17T14:36:14Z</time>
      </trkpt>
      <trkpt lat="56.344342" lon="13.651995">
        <ele>110.9</ele>
        <time>2014-05-17T14:36:15Z</time>
      </trkpt>
      <trkpt lat="56.344347" lon="13.651915">
        <ele>110.9</ele>
        <time>2014-05-17T14:36:16Z</time>
      </trkpt>
      <trkpt lat="56.344351" lon="13.651837">
        <ele>111</ele>
        <time>2014-05-17T14:36:17Z</time>
      </trkpt>
      <trkpt lat="56.344371" lon="13.651774">
        <ele>110.9</ele>
        <time>2014-05-17T14:36:18Z</time>
      </trkpt>
      <trkpt lat="56.344395" lon="13.651723">
        <ele>110.9</ele>
        <time>2014-05-17T14:36:19Z</time>
      </trkpt>
      <trkpt lat="56.344418" lon="13.651677">
        <ele>110.9</ele>
        <time>2014-05-17T14:36:20Z</time>
      </trkpt>
      <trkpt lat="56.344456" lon="13.651616">
        <ele>110.8</ele>
        <time>2014-05-17T14:36:21Z</time>
      </trkpt>
      <trkpt lat="56.344505" lon="13.65158">
        <ele>110.8</ele>
        <time>2014-05-17T14:36:22Z</time>
      </trkpt>
      <trkpt lat="56.344547" lon="13.651537">
        <ele>110.7</ele>
        <time>2014-05-17T14:36:23Z</time>
      </trkpt>
      <trkpt lat="56.344584" lon="13.651504">
        <ele>110.7</ele>
        <time>2014-05-17T14:36:24Z</time>
      </trkpt>
      <trkpt lat="56.344613" lon="13.651469">
        <ele>110.7</ele>
        <time>2014-05-17T14:36:25Z</time>
      </trkpt>
      <trkpt lat="56.344642" lon="13.651432">
        <ele>110.8</ele>
        <time>2014-05-17T14:36:26Z</time>
      </trkpt>
      <trkpt lat="56.344668" lon="13.651386">
        <ele>110.8</ele>
        <time>2014-05-17T14:36:27Z</time>
      </trkpt>
      <trkpt lat="56.344713" lon="13.651347">
        <ele>110.9</ele>
        <time>2014-05-17T14:36:29Z</time>
      </trkpt>
      <trkpt lat="56.344746" lon="13.651283">
        <ele>111</ele>
        <time>2014-05-17T14:36:31Z</time>
      </trkpt>
      <trkpt lat="56.344786" lon="13.651234">
        <ele>111</ele>
        <time>2014-05-17T14:36:33Z</time>
      </trkpt>
      <trkpt lat="56.344824" lon="13.651195">
        <ele>111.1</ele>
        <time>2014-05-17T14:36:35Z</time>
      </trkpt>
      <trkpt lat="56.34486" lon="13.65116">
        <ele>111.1</ele>
        <time>2014-05-17T14:36:37Z</time>
      </trkpt>
      <trkpt lat="56.344896" lon="13.651124">
        <ele>111.2</ele>
        <time>2014-05-17T14:36:39Z</time>
      </trkpt>
      <trkpt lat="56.344932" lon="13.651091">
        <ele>111.3</ele>
        <time>2014-05-17T14:36:41Z</time>
      </trkpt>
      <trkpt lat="56.344967" lon="13.651054">
        <ele>111.3</ele>
        <time>2014-05-17T14:36:43Z</time>
      </trkpt>
      <trkpt lat="56.345003" lon="13.651009">
        <ele>111.4</ele>
        <time>2014-05-17T14:36:45Z</time>
      </trkpt>
      <trkpt lat="56.345041" lon="13.650959">
        <ele>111.5</ele>
        <time>2014-05-17T14:36:47Z</time>
      </trkpt>
      <trkpt lat="56.345086" lon="13.650905">
        <ele>111.7</ele>
        <time>2014-05-17T14:36:49Z</time>
      </trkpt>
      <trkpt lat="56.345109" lon="13.650877">
        <ele>111.7</ele>
        <time>2014-05-17T14:36:50Z</time>
      </trkpt>
      <trkpt lat="56.345131" lon="13.650846">
        <ele>111.8</ele>
        <time>2014-05-17T14:36:51Z</time>
      </trkpt>
      <trkpt lat="56.345153" lon="13.650815">
        <ele>111.9</ele>
        <time>2014-05-17T14:36:52Z</time>
      </trkpt>
      <trkpt lat="56.345175" lon="13.650786">
        <ele>112</ele>
        <time>2014-05-17T14:36:53Z</time>
      </trkpt>
      <trkpt lat="56.345218" lon="13.650727">
        <ele>112.1</ele>
        <time>2014-05-17T14:36:55Z</time>
      </trkpt>
      <trkpt lat="56.34524" lon="13.650696">
        <ele>112.2</ele>
        <time>2014-05-17T14:36:56Z</time>
      </trkpt>
      <trkpt lat="56.345263" lon="13.650665">
        <ele>112.3</ele>
        <time>2014-05-17T14:36:57Z</time>
      </trkpt>
      <trkpt lat="56.34529" lon="13.650629">
        <ele>112.4</ele>
        <time>2014-05-17T14:36:58Z</time>
      </trkpt>
      <trkpt lat="56.345317" lon="13.650593">
        <ele>112.5</ele>
        <time>2014-05-17T14:36:59Z</time>
      </trkpt>
      <trkpt lat="56.345344" lon="13.650557">
        <ele>112.6</ele>
        <time>2014-05-17T14:37:00Z</time>
      </trkpt>
      <trkpt lat="56.345373" lon="13.650522">
        <ele>112.7</ele>
        <time>2014-05-17T14:37:01Z</time>
      </trkpt>
      <trkpt lat="56.345401" lon="13.650486">
        <ele>112.8</ele>
        <time>2014-05-17T14:37:02Z</time>
      </trkpt>
      <trkpt lat="56.345429" lon="13.650447">
        <ele>112.9</ele>
        <time>2014-05-17T14:37:03Z</time>
      </trkpt>
      <trkpt lat="56.345458" lon="13.650409">
        <ele>113.1</ele>
        <time>2014-05-17T14:37:04Z</time>
      </trkpt>
      <trkpt lat="56.345488" lon="13.650371">
        <ele>113.1</ele>
        <time>2014-05-17T14:37:05Z</time>
      </trkpt>
      <trkpt lat="56.345518" lon="13.650333">
        <ele>113.2</ele>
        <time>2014-05-17T14:37:06Z</time>
      </trkpt>
      <trkpt lat="56.345552" lon="13.650294">
        <ele>113.3</ele>
        <time>2014-05-17T14:37:07Z</time>
      </trkpt>
      <trkpt lat="56.345586" lon="13.650257">
        <ele>113.4</ele>
        <time>2014-05-17T14:37:08Z</time>
      </trkpt>
      <trkpt lat="56.345621" lon="13.65022">
        <ele>113.5</ele>
        <time>2014-05-17T14:37:09Z</time>
      </trkpt>
      <trkpt lat="56.345657" lon="13.650182">
        <ele>113.7</ele>
        <time>2014-05-17T14:37:10Z</time>
      </trkpt>
      <trkpt lat="56.345692" lon="13.650146">
        <ele>113.8</ele>
        <time>2014-05-17T14:37:11Z</time>
      </trkpt>
      <trkpt lat="56.345727" lon="13.650107">
        <ele>113.9</ele>
        <time>2014-05-17T14:37:12Z</time>
      </trkpt>
      <trkpt lat="56.345762" lon="13.650068">
        <ele>114</ele>
        <time>2014-05-17T14:37:13Z</time>
      </trkpt>
      <trkpt lat="56.345797" lon="13.650026">
        <ele>114.1</ele>
        <time>2014-05-17T14:37:14Z</time>
      </trkpt>
      <trkpt lat="56.345831" lon="13.649986">
        <ele>114.3</ele>
        <time>2014-05-17T14:37:15Z</time>
      </trkpt>
      <trkpt lat="56.345866" lon="13.649946">
        <ele>114.4</ele>
        <time>2014-05-17T14:37:16Z</time>
      </trkpt>
      <trkpt lat="56.345901" lon="13.649906">
        <ele>114.6</ele>
        <time>2014-05-17T14:37:17Z</time>
      </trkpt>
      <trkpt lat="56.345935" lon="13.649864">
        <ele>114.7</ele>
        <time>2014-05-17T14:37:18Z</time>
      </trkpt>
      <trkpt lat="56.345969" lon="13.649819">
        <ele>114.9</ele>
        <time>2014-05-17T14:37:19Z</time>
      </trkpt>
      <trkpt lat="56.346003" lon="13.649776">
        <ele>115</ele>
        <time>2014-05-17T14:37:20Z</time>
      </trkpt>
      <trkpt lat="56.346038" lon="13.649735">
        <ele>115.2</ele>
        <time>2014-05-17T14:37:21Z</time>
      </trkpt>
      <trkpt lat="56.346074" lon="13.649695">
        <ele>115.3</ele>
        <time>2014-05-17T14:37:22Z</time>
      </trkpt>
      <trkpt lat="56.346109" lon="13.649656">
        <ele>115.5</ele>
        <time>2014-05-17T14:37:23Z</time>
      </trkpt>
      <trkpt lat="56.346145" lon="13.649619">
        <ele>115.7</ele>
        <time>2014-05-17T14:37:24Z</time>
      </trkpt>
      <trkpt lat="56.346181" lon="13.649584">
        <ele>115.8</ele>
        <time>2014-05-17T14:37:25Z</time>
      </trkpt>
      <trkpt lat="56.346217" lon="13.649553">
        <ele>116</ele>
        <time>2014-05-17T14:37:26Z</time>
      </trkpt>
      <trkpt lat="56.346252" lon="13.649523">
        <ele>116.1</ele>
        <time>2014-05-17T14:37:27Z</time>
      </trkpt>
      <trkpt lat="56.346284" lon="13.649493">
        <ele>116.2</ele>
        <time>2014-05-17T14:37:28Z</time>
      </trkpt>
      <trkpt lat="56.346315" lon="13.649458">
        <ele>116.2</ele>
        <time>2014-05-17T14:37:29Z</time>
      </trkpt>
      <trkpt lat="56.346346" lon="13.649424">
        <ele>116.3</ele>
        <time>2014-05-17T14:37:30Z</time>
      </trkpt>
      <trkpt lat="56.346379" lon="13.649385">
        <ele>116.4</ele>
        <time>2014-05-17T14:37:31Z</time>
      </trkpt>
      <trkpt lat="56.346412" lon="13.649343">
        <ele>116.5</ele>
        <time>2014-05-17T14:37:32Z</time>
      </trkpt>
      <trkpt lat="56.346444" lon="13.649298">
        <ele>116.7</ele>
        <time>2014-05-17T14:37:33Z</time>
      </trkpt>
      <trkpt lat="56.346475" lon="13.649254">
        <ele>116.8</ele>
        <time>2014-05-17T14:37:34Z</time>
      </trkpt>
      <trkpt lat="56.346506" lon="13.649212">
        <ele>116.9</ele>
        <time>2014-05-17T14:37:35Z</time>
      </trkpt>
      <trkpt lat="56.346537" lon="13.649173">
        <ele>117</ele>
        <time>2014-05-17T14:37:36Z</time>
      </trkpt>
      <trkpt lat="56.346567" lon="13.649132">
        <ele>117.1</ele>
        <time>2014-05-17T14:37:37Z</time>
      </trkpt>
      <trkpt lat="56.346596" lon="13.649089">
        <ele>117.3</ele>
        <time>2014-05-17T14:37:38Z</time>
      </trkpt>
      <trkpt lat="56.346623" lon="13.649045">
        <ele>117.4</ele>
        <time>2014-05-17T14:37:39Z</time>
      </trkpt>
      <trkpt lat="56.346651" lon="13.649001">
        <ele>117.5</ele>
        <time>2014-05-17T14:37:40Z</time>
      </trkpt>
      <trkpt lat="56.346681" lon="13.648959">
        <ele>117.7</ele>
        <time>2014-05-17T14:37:41Z</time>
      </trkpt>
      <trkpt lat="56.346713" lon="13.64892">
        <ele>117.8</ele>
        <time>2014-05-17T14:37:42Z</time>
      </trkpt>
      <trkpt lat="56.346746" lon="13.648887">
        <ele>117.9</ele>
        <time>2014-05-17T14:37:43Z</time>
      </trkpt>
      <trkpt lat="56.346779" lon="13.648856">
        <ele>118.1</ele>
        <time>2014-05-17T14:37:44Z</time>
      </trkpt>
      <trkpt lat="56.346811" lon="13.648824">
        <ele>118.2</ele>
        <time>2014-05-17T14:37:45Z</time>
      </trkpt>
      <trkpt lat="56.346843" lon="13.648791">
        <ele>118.3</ele>
        <time>2014-05-17T14:37:46Z</time>
      </trkpt>
      <trkpt lat="56.346874" lon="13.648758">
        <ele>118.5</ele>
        <time>2014-05-17T14:37:47Z</time>
      </trkpt>
      <trkpt lat="56.346904" lon="13.648722">
        <ele>118.5</ele>
        <time>2014-05-17T14:37:48Z</time>
      </trkpt>
      <trkpt lat="56.346933" lon="13.648684">
        <ele>118.6</ele>
        <time>2014-05-17T14:37:49Z</time>
      </trkpt>
      <trkpt lat="56.346964" lon="13.648646">
        <ele>118.6</ele>
        <time>2014-05-17T14:37:50Z</time>
      </trkpt>
      <trkpt lat="56.346995" lon="13.648609">
        <ele>118.6</ele>
        <time>2014-05-17T14:37:51Z</time>
      </trkpt>
      <trkpt lat="56.347029" lon="13.648576">
        <ele>118.7</ele>
        <time>2014-05-17T14:37:52Z</time>
      </trkpt>
      <trkpt lat="56.347063" lon="13.648545">
        <ele>118.7</ele>
        <time>2014-05-17T14:37:53Z</time>
      </trkpt>
      <trkpt lat="56.347098" lon="13.648512">
        <ele>118.7</ele>
        <time>2014-05-17T14:37:54Z</time>
      </trkpt>
      <trkpt lat="56.347132" lon="13.648478">
        <ele>118.6</ele>
        <time>2014-05-17T14:37:55Z</time>
      </trkpt>
      <trkpt lat="56.347164" lon="13.648441">
        <ele>118.6</ele>
        <time>2014-05-17T14:37:56Z</time>
      </trkpt>
      <trkpt lat="56.347195" lon="13.6484">
        <ele>118.5</ele>
        <time>2014-05-17T14:37:57Z</time>
      </trkpt>
      <trkpt lat="56.347225" lon="13.64836">
        <ele>118.4</ele>
        <time>2014-05-17T14:37:58Z</time>
      </trkpt>
      <trkpt lat="56.347256" lon="13.648323">
        <ele>118.4</ele>
        <time>2014-05-17T14:37:59Z</time>
      </trkpt>
      <trkpt lat="56.347289" lon="13.648288">
        <ele>118.3</ele>
        <time>2014-05-17T14:38:00Z</time>
      </trkpt>
      <trkpt lat="56.347321" lon="13.648254">
        <ele>118.3</ele>
        <time>2014-05-17T14:38:01Z</time>
      </trkpt>
      <trkpt lat="56.347353" lon="13.648222">
        <ele>118.2</ele>
        <time>2014-05-17T14:38:02Z</time>
      </trkpt>
      <trkpt lat="56.347385" lon="13.64819">
        <ele>118.2</ele>
        <time>2014-05-17T14:38:03Z</time>
      </trkpt>
      <trkpt lat="56.347418" lon="13.648157">
        <ele>118.2</ele>
        <time>2014-05-17T14:38:04Z</time>
      </trkpt>
      <trkpt lat="56.347452" lon="13.648123">
        <ele>118.1</ele>
        <time>2014-05-17T14:38:05Z</time>
      </trkpt>
      <trkpt lat="56.347486" lon="13.648087">
        <ele>118.1</ele>
        <time>2014-05-17T14:38:06Z</time>
      </trkpt>
      <trkpt lat="56.34752" lon="13.648048">
        <ele>118.1</ele>
        <time>2014-05-17T14:38:07Z</time>
      </trkpt>
      <trkpt lat="56.347558" lon="13.648009">
        <ele>118</ele>
        <time>2014-05-17T14:38:08Z</time>
      </trkpt>
      <trkpt lat="56.347598" lon="13.647975">
        <ele>118</ele>
        <time>2014-05-17T14:38:09Z</time>
      </trkpt>
      <trkpt lat="56.347639" lon="13.647941">
        <ele>118</ele>
        <time>2014-05-17T14:38:10Z</time>
      </trkpt>
      <trkpt lat="56.347678" lon="13.647902">
        <ele>118</ele>
        <time>2014-05-17T14:38:11Z</time>
      </trkpt>
      <trkpt lat="56.347716" lon="13.647859">
        <ele>118</ele>
        <time>2014-05-17T14:38:12Z</time>
      </trkpt>
      <trkpt lat="56.347754" lon="13.647817">
        <ele>118</ele>
        <time>2014-05-17T14:38:13Z</time>
      </trkpt>
      <trkpt lat="56.347791" lon="13.647773">
        <ele>118</ele>
        <time>2014-05-17T14:38:14Z</time>
      </trkpt>
      <trkpt lat="56.347829" lon="13.647731">
        <ele>118</ele>
        <time>2014-05-17T14:38:15Z</time>
      </trkpt>
      <trkpt lat="56.347868" lon="13.64769">
        <ele>118</ele>
        <time>2014-05-17T14:38:16Z</time>
      </trkpt>
      <trkpt lat="56.347905" lon="13.64765">
        <ele>118</ele>
        <time>2014-05-17T14:38:17Z</time>
      </trkpt>
      <trkpt lat="56.347941" lon="13.647606">
        <ele>118</ele>
        <time>2014-05-17T14:38:18Z</time>
      </trkpt>
      <trkpt lat="56.347976" lon="13.64756">
        <ele>118</ele>
        <time>2014-05-17T14:38:19Z</time>
      </trkpt>
      <trkpt lat="56.348009" lon="13.647515">
        <ele>117.9</ele>
        <time>2014-05-17T14:38:20Z</time>
      </trkpt>
      <trkpt lat="56.348043" lon="13.64747">
        <ele>117.9</ele>
        <time>2014-05-17T14:38:21Z</time>
      </trkpt>
      <trkpt lat="56.348078" lon="13.647425">
        <ele>117.9</ele>
        <time>2014-05-17T14:38:22Z</time>
      </trkpt>
      <trkpt lat="56.348113" lon="13.64738">
        <ele>117.9</ele>
        <time>2014-05-17T14:38:23Z</time>
      </trkpt>
      <trkpt lat="56.34815" lon="13.647341">
        <ele>117.9</ele>
        <time>2014-05-17T14:38:24Z</time>
      </trkpt>
      <trkpt lat="56.348188" lon="13.6473">
        <ele>117.9</ele>
        <time>2014-05-17T14:38:25Z</time>
      </trkpt>
      <trkpt lat="56.348226" lon="13.64726">
        <ele>117.9</ele>
        <time>2014-05-17T14:38:26Z</time>
      </trkpt>
      <trkpt lat="56.348262" lon="13.647218">
        <ele>117.9</ele>
        <time>2014-05-17T14:38:27Z</time>
      </trkpt>
      <trkpt lat="56.348297" lon="13.647174">
        <ele>118</ele>
        <time>2014-05-17T14:38:28Z</time>
      </trkpt>
      <trkpt lat="56.348331" lon="13.647137">
        <ele>118</ele>
        <time>2014-05-17T14:38:29Z</time>
      </trkpt>
      <trkpt lat="56.348367" lon="13.647099">
        <ele>118</ele>
        <time>2014-05-17T14:38:30Z</time>
      </trkpt>
      <trkpt lat="56.348403" lon="13.647062">
        <ele>117.9</ele>
        <time>2014-05-17T14:38:31Z</time>
      </trkpt>
      <trkpt lat="56.348439" lon="13.647021">
        <ele>117.8</ele>
        <time>2014-05-17T14:38:32Z</time>
      </trkpt>
      <trkpt lat="56.348474" lon="13.64698">
        <ele>117.7</ele>
        <time>2014-05-17T14:38:33Z</time>
      </trkpt>
      <trkpt lat="56.348508" lon="13.646936">
        <ele>117.5</ele>
        <time>2014-05-17T14:38:34Z</time>
      </trkpt>
      <trkpt lat="56.348541" lon="13.646891">
        <ele>117.4</ele>
        <time>2014-05-17T14:38:35Z</time>
      </trkpt>
      <trkpt lat="56.348576" lon="13.646848">
        <ele>117.2</ele>
        <time>2014-05-17T14:38:36Z</time>
      </trkpt>
      <trkpt lat="56.348611" lon="13.646804">
        <ele>117.1</ele>
        <time>2014-05-17T14:38:37Z</time>
      </trkpt>
      <trkpt lat="56.348644" lon="13.646758">
        <ele>116.9</ele>
        <time>2014-05-17T14:38:38Z</time>
      </trkpt>
      <trkpt lat="56.348673" lon="13.646701">
        <ele>116.7</ele>
        <time>2014-05-17T14:38:39Z</time>
      </trkpt>
      <trkpt lat="56.348698" lon="13.646636">
        <ele>116.4</ele>
        <time>2014-05-17T14:38:40Z</time>
      </trkpt>
      <trkpt lat="56.348724" lon="13.646576">
        <ele>116.2</ele>
        <time>2014-05-17T14:38:41Z</time>
      </trkpt>
      <trkpt lat="56.348756" lon="13.646527">
        <ele>116</ele>
        <time>2014-05-17T14:38:42Z</time>
      </trkpt>
      <trkpt lat="56.348791" lon="13.646491">
        <ele>115.8</ele>
        <time>2014-05-17T14:38:43Z</time>
      </trkpt>
      <trkpt lat="56.348826" lon="13.646459">
        <ele>115.6</ele>
        <time>2014-05-17T14:38:44Z</time>
      </trkpt>
      <trkpt lat="56.348855" lon="13.646429">
        <ele>115.4</ele>
        <time>2014-05-17T14:38:45Z</time>
      </trkpt>
      <trkpt lat="56.34889" lon="13.64636">
        <ele>115.1</ele>
        <time>2014-05-17T14:38:47Z</time>
      </trkpt>
      <trkpt lat="56.348898" lon="13.646312">
        <ele>114.9</ele>
        <time>2014-05-17T14:38:48Z</time>
      </trkpt>
      <trkpt lat="56.348896" lon="13.646219">
        <ele>114.5</ele>
        <time>2014-05-17T14:38:50Z</time>
      </trkpt>
      <trkpt lat="56.348888" lon="13.64615">
        <ele>114.3</ele>
        <time>2014-05-17T14:38:52Z</time>
      </trkpt>
      <trkpt lat="56.348911" lon="13.6462">
        <ele>114.4</ele>
        <time>2014-05-17T14:38:56Z</time>
      </trkpt>
      <trkpt lat="56.348921" lon="13.646263">
        <ele>114.6</ele>
        <time>2014-05-17T14:38:59Z</time>
      </trkpt>
      <trkpt lat="56.348945" lon="13.646288">
        <ele>114.7</ele>
        <time>2014-05-17T14:39:03Z</time>
      </trkpt>
      <trkpt lat="56.348963" lon="13.646252">
        <ele>114.5</ele>
        <time>2014-05-17T14:39:11Z</time>
      </trkpt>
      <trkpt lat="56.348942" lon="13.646218">
        <ele>114.4</ele>
        <time>2014-05-17T14:39:16Z</time>
      </trkpt>
      <trkpt lat="56.348916" lon="13.646187">
        <ele>114.4</ele>
        <time>2014-05-17T14:39:19Z</time>
      </trkpt>
      <trkpt lat="56.348881" lon="13.646164">
        <ele>114.4</ele>
        <time>2014-05-17T14:39:22Z</time>
      </trkpt>
      <trkpt lat="56.348853" lon="13.646158">
        <ele>114.4</ele>
        <time>2014-05-17T14:39:41Z</time>
      </trkpt>
      <trkpt lat="56.348826" lon="13.646177">
        <ele>114.6</ele>
        <time>2014-05-17T14:40:29Z</time>
      </trkpt>
      <trkpt lat="56.348847" lon="13.646216">
        <ele>114.6</ele>
        <time>2014-05-17T14:40:36Z</time>
      </trkpt>
      <trkpt lat="56.348843" lon="13.646266">
        <ele>114.8</ele>
        <time>2014-05-17T14:40:40Z</time>
      </trkpt>
      <trkpt lat="56.348815" lon="13.646244">
        <ele>114.8</ele>
        <time>2014-05-17T14:40:44Z</time>
      </trkpt>
      <trkpt lat="56.34878" lon="13.646255">
        <ele>114.9</ele>
        <time>2014-05-17T14:40:48Z</time>
      </trkpt>
      <trkpt lat="56.348752" lon="13.646231">
        <ele>114.9</ele>
        <time>2014-05-17T14:40:53Z</time>
      </trkpt>
    </trkseg>
  </trk>
</gpx>